Date StartTime U_cm/s V_cm/s W_cm/s Ustd_cm/s Vstd_cm/s Wstd_cm/s Uvar_(cm/s)^2 Vvar_(cm/s)^2 Wvar_(cm/s)^2 KE_(m/s)^2 TurbulentKE_(m/s)^2 HorizWindSpeed_cm/s FrictionSpeec_cm/s DragCoef SpeedOfSound_m/s SonicTemperature_C Pressure_mb 
11/11/2013  00:00:00     -112.627      -71.927       -5.154       23.677       18.519       16.275      560.588      342.935      264.891        0.953        0.058      133.635       14.375        0.012      335.406        6.018      865.729
11/11/2013  00:01:00     -108.210      -55.480       -9.495       11.829       15.320        9.476      139.924      234.690       89.790        0.767        0.023      121.604        8.563        0.005      335.361        5.942      865.742
11/11/2013  00:02:00     -120.516      -52.176      -11.846       10.407        9.973        9.233      108.311       99.455       85.242        0.884        0.015      131.326        5.684        0.002      335.377        5.970      865.743
11/11/2013  00:03:00     -124.427      -42.347       -9.937       12.493       10.688        8.176      156.065      114.225       66.840        0.886        0.017      131.436        6.190        0.002      335.381        5.978      865.734
11/11/2013  00:04:00     -133.083      -47.550       -3.999       18.774       13.553       12.955      352.465      183.687      167.838        1.035        0.035      141.323       10.303        0.005      335.377        5.971      865.728
11/11/2013  00:05:00     -138.922      -50.615      -13.019       10.915       11.602       10.681      119.139      134.608      114.085        1.120        0.018      147.856        5.405        0.001      335.340        5.908      865.735
11/11/2013  00:06:00     -132.901      -56.661       -6.670       18.636       18.082       11.214      347.290      326.952      125.748        1.086        0.040      144.475        9.983        0.005      335.318        5.872      865.741
11/11/2013  00:07:00     -137.553      -41.267      -16.549       12.335       14.348       11.179      152.150      205.861      124.960        1.069        0.024      143.610        5.339        0.001      335.320        5.874      865.748
11/11/2013  00:08:00     -129.995      -43.265      -15.358       19.039       17.882       12.839      362.483      319.751      164.836        0.993        0.042      137.005        6.511        0.002      335.358        5.938      865.747
11/11/2013  00:09:00     -159.063      -54.082      -14.600       13.569       11.108       12.268      184.105      123.395      150.513        1.445        0.023      168.006        5.960        0.001      335.370        5.959      865.756
11/11/2013  00:10:00     -148.539      -46.156       -7.055       26.784       20.671       17.478      717.383      427.302      305.480        1.285        0.073      155.545       15.189        0.010      335.274        5.800      865.743
11/11/2013  00:11:00     -130.564      -41.527       -7.538       26.157       19.541       14.805      684.213      381.852      219.197        1.006        0.064      137.009        9.919        0.005      335.299        5.840      865.739
11/11/2013  00:12:00     -131.223      -35.609       -8.301       25.147       22.667       18.894      632.353      513.805      356.995        1.003        0.075      135.969       15.698        0.013      335.276        5.802      865.729
11/11/2013  00:13:00     -110.664      -36.788       -4.547       39.388       22.334       19.696     1551.446      498.794      387.951        0.803        0.122      116.619       19.983        0.029      335.266        5.784      865.724
11/11/2013  00:14:00     -135.190      -38.057       -7.344       18.326       18.563       13.670      335.844      344.589      186.860        1.032        0.043      140.444        9.846        0.005      335.244        5.747      865.730
11/11/2013  00:15:00     -130.297      -41.080       -5.762       26.375       21.331       12.855      695.648      454.993      165.240        1.001        0.066      136.619        9.912        0.005      335.246        5.751      865.728
11/11/2013  00:16:00     -110.557      -30.140       -1.536       31.236       21.644       17.555      975.668      468.450      308.174        0.744        0.088      114.592       18.480        0.026      335.309        5.856      865.708
11/11/2013  00:17:00     -123.021      -43.265       -4.247       22.067       21.210       16.790      486.968      449.870      281.909        0.912        0.061      130.407       15.388        0.014      335.313        5.863      865.687
11/11/2013  00:18:00     -138.469      -43.668       -7.901       20.548       21.798       12.766      422.229      475.174      162.963        1.110        0.053      145.192       10.967        0.006      335.305        5.848      865.673
11/11/2013  00:19:00     -104.152      -43.177       -3.466       30.778       29.495       18.538      947.257      869.930      343.642        0.744        0.108      112.747       11.611        0.011      335.256        5.768      865.647
11/11/2013  00:20:00     -108.893      -31.318       -4.517       33.434       27.960       16.539     1117.860      781.743      273.536        0.752        0.109      113.307       11.631        0.011      335.210        5.691      865.640
11/11/2013  00:21:00      -98.779      -36.708        3.401       39.012       38.887       23.722     1521.944     1512.191      562.754        0.736        0.180      105.379       21.120        0.040      335.153        5.597      865.640
11/11/2013  00:22:00     -126.789      -34.660       -9.038       25.529       25.760       15.254      651.752      663.570      232.687        0.945        0.077      131.442       14.518        0.012      335.126        5.552      865.649
11/11/2013  00:23:00      -56.494      -46.140        5.709       47.253       29.873       19.202     2232.865      892.400      368.713        0.442        0.175       72.941       25.645        0.124      335.116        5.538      865.651
11/11/2013  00:24:00      -93.985      -39.932       -9.200       31.774       18.207       14.322     1009.575      331.482      205.107        0.603        0.077      102.117       14.827        0.021      335.114        5.534      865.639
11/11/2013  00:25:00      -71.151      -46.880       -7.881       21.387       20.458       17.184      457.415      418.520      295.300        0.425        0.059       85.207       14.189        0.028      335.085        5.485      865.630
11/11/2013  00:26:00      -93.002      -37.642      -17.181       18.775       15.284       10.509      352.507      233.605      110.444        0.553        0.035      100.331       10.111        0.010      335.095        5.503      865.640
11/11/2013  00:27:00     -102.757      -51.772       -9.404       20.104       20.691       16.197      404.172      428.099      262.346        0.721        0.055      115.062       13.219        0.013      335.155        5.600      865.646
11/11/2013  00:28:00     -129.683      -42.362      -18.632       12.298       15.499       12.162      151.241      240.229      147.910        0.975        0.027      136.426        5.478        0.002      335.255        5.766      865.648
11/11/2013  00:29:00     -127.057      -69.960      -14.574       14.489       13.164        9.834      209.918      173.296       96.704        1.087        0.024      145.044        7.962        0.003      335.267        5.786      865.645
11/11/2013  00:30:00     -134.598      -41.664      -11.163       18.229       12.586       14.585      332.293      158.406      212.724        1.034        0.035      140.899       12.630        0.008      335.272        5.794      865.656
11/11/2013  00:31:00     -134.823      -40.613      -13.475       10.926       12.498       10.180      119.382      156.191      103.635        1.019        0.019      140.808        6.487        0.002      335.286        5.818      865.659
11/11/2013  00:32:00     -124.029      -42.485      -15.320       14.728       12.107       11.706      216.921      146.579      137.020        0.896        0.025      131.104        8.436        0.004      335.307        5.853      865.662
11/11/2013  00:33:00     -110.988      -45.662      -10.943       15.944       15.627       12.592      254.199      244.207      158.571        0.759        0.033      120.014        7.030        0.003      335.332        5.894      865.662
11/11/2013  00:34:00     -110.353      -44.145      -13.408       11.431       15.887       11.206      130.665      252.408      125.572        0.741        0.025      118.855        5.654        0.002      335.254        5.766      865.661
11/11/2013  00:35:00     -117.315      -41.225      -15.664       13.338       14.610       11.590      177.912      213.441      134.323        0.812        0.026      124.348        6.082        0.002      335.239        5.741      865.654
11/11/2013  00:36:00     -117.113      -53.616      -10.124       15.053       15.902       12.143      226.596      252.880      147.442        0.866        0.031      128.803        6.409        0.002      335.246        5.753      865.646
11/11/2013  00:37:00     -104.482      -56.499       -6.388       17.605       15.696       15.584      309.936      246.377      242.851        0.747        0.040      118.780        9.077        0.006      335.131        5.560      865.645
11/11/2013  00:38:00     -117.772      -66.516       -9.386       16.762       18.390       13.849      280.953      338.174      191.786        0.960        0.041      135.257        9.815        0.005      335.135        5.569      865.653
11/11/2013  00:39:00      -83.504      -48.905        0.810       30.663       20.672       17.631      940.226      427.340      310.844        0.552        0.084       96.771       17.276        0.032      335.063        5.450      865.657
11/11/2013  00:40:00      -60.748      -38.013        7.823       30.734       24.136       20.291      944.570      582.543      411.736        0.357        0.097       71.661       20.577        0.082      334.993        5.333      865.651
11/11/2013  00:41:00      -82.271      -44.637        2.491       33.659       22.511       17.336     1132.896      506.748      300.524        0.535        0.097       93.600       14.581        0.024      334.961        5.280      865.645
11/11/2013  00:42:00      -56.691      -41.480        9.966       40.599       28.989       21.164     1648.269      840.361      447.906        0.398        0.147       70.246       22.521        0.103      334.914        5.201      865.638
11/11/2013  00:43:00      -86.159      -55.481        0.169       32.740       22.942       22.821     1071.920      526.352      520.807        0.631        0.106      102.476       19.724        0.037      334.919        5.210      865.636
11/11/2013  00:44:00      -99.926      -38.725       -5.018       27.037       16.895       15.216      731.011      285.427      231.532        0.638        0.062      107.168       16.413        0.023      334.961        5.278      865.629
11/11/2013  00:45:00     -112.879      -38.283       -8.660       15.006       15.910       11.093      225.165      253.127      123.062        0.744        0.030      119.194        5.686        0.002      334.971        5.295      865.612
11/11/2013  00:46:00      -97.432      -29.899       -3.056       23.013       15.331       12.408      529.577      235.038      153.962        0.566        0.046      101.916       12.842        0.016      334.962        5.282      865.607
11/11/2013  00:47:00      -98.583      -28.925       -4.647       23.702       19.362       12.929      561.801      374.903      167.161        0.584        0.055      102.739        9.218        0.008      334.977        5.306      865.608
11/11/2013  00:48:00     -107.851      -42.329       -3.557       19.476       19.063       11.569      379.306      363.388      133.851        0.716        0.044      115.861       10.103        0.008      334.979        5.311      865.622
11/11/2013  00:49:00     -115.017      -54.272       -2.160       25.985       21.053       19.395      675.219      443.215      376.180        0.884        0.075      127.178       18.423        0.021      334.977        5.305      865.644
11/11/2013  00:50:00     -123.651      -57.862       -5.938       15.264       19.528       13.223      232.998      381.336      174.839        0.973        0.039      136.520        7.995        0.003      334.991        5.329      865.658
11/11/2013  00:51:00     -118.200      -40.417       -6.342       22.836       22.010       17.643      521.472      484.433      311.289        0.848        0.066      124.919       12.498        0.010      334.981        5.312      865.658
11/11/2013  00:52:00      -95.383      -27.442        5.635       38.292       20.149       18.647     1466.278      405.974      347.728        0.605        0.111       99.252       20.144        0.041      334.918        5.209      865.667
11/11/2013  00:53:00     -114.720      -39.679       -1.938       21.484       19.244       11.942      461.567      370.344      142.600        0.786        0.049      121.388        9.342        0.006      334.953        5.265      865.688
11/11/2013  00:54:00      -94.786      -43.752        2.152       29.124       28.601       18.671      848.200      818.023      348.618        0.646        0.101      104.397       16.487        0.025      334.927        5.222      865.704
11/11/2013  00:55:00     -114.032      -58.939       -2.309       25.256       18.166       16.939      637.860      330.002      286.942        0.887        0.063      128.364       13.837        0.012      334.963        5.283      865.712
11/11/2013  00:56:00     -107.126      -46.421       -3.708       29.397       24.418       18.553      864.163      596.228      344.231        0.772        0.090      116.751       16.904        0.021      335.012        5.364      865.709
11/11/2013  00:57:00     -104.898      -38.144        0.907       22.803       17.118       13.902      519.987      293.040      193.252        0.673        0.050      111.618       13.170        0.014      334.959        5.276      865.692
11/11/2013  00:58:00      -87.816      -21.402        0.444       21.974       17.339       13.264      482.863      300.631      175.927        0.456        0.048       90.386       12.416        0.019      334.916        5.205      865.675
11/11/2013  00:59:00     -102.875      -30.424       -7.021       13.279       13.877       10.251      176.320      192.573      105.091        0.602        0.024      107.279        7.650        0.005      334.983        5.315      865.670
11/11/2013  01:00:00     -117.571      -31.130      -13.935       14.521       12.032        9.677      210.874      144.763       93.654        0.772        0.022      121.622        6.877        0.003      335.003        5.348      865.669
11/11/2013  01:01:00     -124.154      -36.045       -8.614       15.544       11.859       10.008      241.631      140.642      100.159        0.864        0.024      129.281        4.796        0.001      334.973        5.299      865.671
11/11/2013  01:02:00      -95.137      -32.347        1.023       26.478       18.674       13.110      701.067      348.703      171.864        0.566        0.061      100.486       12.233        0.015      334.952        5.263      865.676
11/11/2013  01:03:00     -108.904      -26.295       -8.618       20.503       14.213       15.139      420.373      201.996      229.186        0.674        0.043      112.033       12.936        0.013      334.920        5.212      865.688
11/11/2013  01:04:00      -88.171      -21.203       -8.618       18.566       12.566       14.196      344.709      157.896      201.529        0.450        0.035       90.684       11.532        0.016      334.929        5.227      865.682
11/11/2013  01:05:00      -78.744      -42.590      -13.263       11.816       17.076       10.578      139.621      291.607      111.886        0.437        0.027       89.524        5.150        0.003      334.924        5.217      865.683
11/11/2013  01:06:00      -94.453      -25.020      -12.982       18.237       18.673       11.303      332.603      348.682      127.767        0.526        0.040       97.711       10.270        0.011      334.862        5.115      865.692
11/11/2013  01:07:00      -92.738      -25.172      -17.782        9.479       10.343        7.250       89.846      106.975       52.558        0.490        0.012       96.093        3.423        0.001      334.868        5.125      865.712
11/11/2013  01:08:00      -81.030      -27.518      -13.434        9.018        9.409        9.723       81.330       88.531       94.541        0.388        0.013       85.575        4.743        0.003      334.844        5.085      865.727
11/11/2013  01:09:00      -96.781      -32.091      -17.044       19.445       11.285        7.665      378.093      127.340       58.747        0.563        0.028      101.963        5.722        0.003      334.852        5.099      865.758
11/11/2013  01:10:00     -122.324      -40.530       -5.134       21.524       16.596       13.718      463.297      275.421      188.176        0.878        0.046      128.863       12.651        0.010      334.830        5.061      865.776
11/11/2013  01:11:00     -126.122      -31.940       -9.397       16.988       17.276       12.297      288.599      298.450      151.226        0.888        0.037      130.104        8.207        0.004      334.867        5.124      865.802
11/11/2013  01:12:00      -94.030      -37.858       -1.122       26.507       21.143       14.824      702.597      447.005      219.739        0.582        0.068      101.366       12.794        0.016      334.866        5.120      865.810
11/11/2013  01:13:00      -52.963      -26.839        3.936       34.111       18.449       13.515     1163.575      340.357      182.644        0.261        0.084       59.375       14.303        0.058      334.722        4.883      865.817
11/11/2013  01:14:00      -64.209      -31.714       -5.054       13.396       11.426        5.852      179.463      130.561       34.246        0.275        0.017       71.614        3.940        0.003      334.840        5.078      865.826
11/11/2013  01:15:00      -37.748      -28.540        5.173       21.549       13.901       12.624      464.339      193.227      159.357        0.154        0.041       47.323       10.141        0.046      334.877        5.141      865.824
11/11/2013  01:16:00      -69.308      -32.819       -9.498       11.181       10.966        8.140      125.005      120.254       66.265        0.314        0.016       76.686        3.953        0.003      334.930        5.228      865.804
11/11/2013  01:17:00      -70.547      -21.590       -9.060        5.983        8.861        6.152       35.799       78.521       37.844        0.284        0.008       73.777        2.870        0.002      334.863        5.116      865.789
11/11/2013  01:18:00      -50.913      -34.298       -3.252       18.419       10.978       10.681      339.264      120.507      114.078        0.218        0.029       61.388        8.861        0.021      334.820        5.045      865.786
11/11/2013  01:19:00      -64.361      -47.281       -2.741       29.820       19.560       12.350      889.233      382.603      152.518        0.390        0.071       79.861       13.467        0.028      334.818        5.043      865.783
11/11/2013  01:20:00      -80.442      -43.910       -3.927       19.370       18.428       13.758      375.196      339.582      189.296        0.466        0.045       91.646        9.127        0.010      334.675        4.803      865.794
11/11/2013  01:21:00      -66.360      -43.498        1.714       20.202       23.267       15.906      408.117      541.365      253.011        0.375        0.060       79.345       11.281        0.020      334.647        4.758      865.805
11/11/2013  01:22:00      -79.806      -60.974       -5.183       20.778       17.107       14.845      431.721      292.637      220.378        0.553        0.047      100.433       12.250        0.015      334.712        4.865      865.809
11/11/2013  01:23:00      -85.497      -41.080      -11.544       13.836       16.577       10.454      191.441      274.789      109.281        0.485        0.029       94.854        6.128        0.004      334.782        4.981      865.806
11/11/2013  01:24:00      -79.418      -24.746      -12.645        7.835        8.607        6.652       61.386       74.081       44.248        0.363        0.009       83.184        3.461        0.002      334.753        4.933      865.793
11/11/2013  01:25:00      -84.959      -15.426      -12.415        6.806        7.475        5.621       46.318       55.879       31.591        0.387        0.007       86.348        3.315        0.001      334.736        4.907      865.785
11/11/2013  01:26:00      -90.641      -22.284       -8.896       16.810       12.197        8.771      282.569      148.769       76.938        0.465        0.025       93.340        5.872        0.004      334.741        4.913      865.782
11/11/2013  01:27:00      -94.014      -39.624        0.437       19.225       14.962       12.186      369.601      223.849      148.509        0.558        0.037      102.023       10.415        0.010      334.716        4.872      865.790
11/11/2013  01:28:00     -108.300      -23.864       -3.984       17.171       13.258       12.259      294.849      175.771      150.279        0.647        0.031      110.898        8.736        0.006      334.690        4.829      865.790
11/11/2013  01:29:00     -100.880      -29.010       -3.762       22.410       19.104       12.230      502.213      364.959      149.571        0.602        0.051      104.968       10.226        0.009      334.613        4.701      865.792
11/11/2013  01:30:00     -104.347      -20.352       -3.803       24.498       15.675       14.255      600.158      245.719      203.194        0.618        0.052      106.313       12.375        0.014      334.494        4.504      865.790
11/11/2013  01:31:00     -114.829      -16.250      -10.268       18.599       16.531       11.917      345.906      273.276      142.004        0.716        0.038      115.973        9.046        0.006      334.474        4.470      865.796
11/11/2013  01:32:00      -75.619      -28.297        0.763       30.327       18.013       15.977      919.717      324.455      255.249        0.401        0.075       80.740       17.367        0.046      334.530        4.562      865.811
11/11/2013  01:33:00      -46.084      -36.197        5.453       31.799       21.580       16.426     1011.201      465.709      269.828        0.260        0.087       58.600       17.422        0.088      334.653        4.767      865.829
11/11/2013  01:34:00      -54.124      -35.060        5.925       26.332       19.402       13.576      693.387      376.443      184.302        0.272        0.063       64.488       12.621        0.038      334.631        4.730      865.830
11/11/2013  01:35:00      -81.839      -28.746       -7.285       13.371       15.298       10.484      178.787      234.042      109.906        0.405        0.026       86.741        7.323        0.007      334.693        4.833      865.811
11/11/2013  01:36:00      -85.183      -17.413       -6.669       14.191       14.299       10.358      201.375      204.464      107.288        0.406        0.026       86.944        7.877        0.008      334.656        4.773      865.792
11/11/2013  01:37:00      -70.430       -8.842       -3.795       15.809        9.701        8.748      249.938       94.109       76.521        0.274        0.021       70.983        9.003        0.016      334.653        4.767      865.794
11/11/2013  01:38:00      -74.925      -24.211       -9.765       11.697       10.932        7.765      136.811      119.507       60.288        0.331        0.016       78.740        4.521        0.003      334.694        4.835      865.793
11/11/2013  01:39:00      -92.810      -23.909       -6.637       14.829       10.887        8.039      219.892      118.521       64.627        0.482        0.020       95.840        6.817        0.005      334.711        4.863      865.792
11/11/2013  01:40:00      -89.994      -22.793       -2.647       24.905       16.121       13.887      620.270      259.871      192.840        0.485        0.054       92.835       12.758        0.019      334.610        4.696      865.792
11/11/2013  01:41:00     -108.024      -46.265       -4.879       15.396       13.855        8.971      237.052      191.957       80.482        0.717        0.025      117.514        7.916        0.005      334.616        4.707      865.810
11/11/2013  01:42:00     -114.234      -39.281      -11.051        9.744       10.566        8.307       94.942      111.650       68.999        0.750        0.014      120.799        2.103        0.000      334.620        4.714      865.831
11/11/2013  01:43:00      -99.742      -33.879       -1.906       29.850       18.469       13.179      890.995      341.119      173.696        0.625        0.070      105.339       14.170        0.018      334.582        4.649      865.831
11/11/2013  01:44:00      -94.406      -32.628       -1.443       19.081       17.538        9.705      364.096      307.592       94.193        0.537        0.038       99.886        8.258        0.007      334.541        4.580      865.835
11/11/2013  01:45:00     -108.856      -35.810       -3.278       22.921       18.168       13.072      525.393      330.079      170.886        0.708        0.051      114.595       12.721        0.012      334.469        4.462      865.834
11/11/2013  01:46:00     -100.098      -36.645       -0.425       21.493       18.211       14.532      461.965      331.650      211.193        0.618        0.050      106.595       12.955        0.015      334.429        4.396      865.843
11/11/2013  01:47:00     -108.499      -44.293       -6.233       18.837       16.105       14.664      354.833      259.381      215.037        0.730        0.041      117.192        7.744        0.004      334.413        4.371      865.855
11/11/2013  01:48:00     -121.102      -28.805       -7.891       24.704       19.961       17.499      610.292      398.449      306.229        0.844        0.066      124.481       15.026        0.015      334.408        4.362      865.858
11/11/2013  01:49:00     -118.615      -33.604        1.827       34.775       26.056       20.699     1209.270      678.897      428.455        0.876        0.116      123.283       19.997        0.026      334.372        4.302      865.854
11/11/2013  01:50:00     -144.377      -42.612        0.087       38.126       29.137       19.593     1453.568      848.983      383.881        1.267        0.134      150.534       21.879        0.021      334.380        4.313      865.847
11/11/2013  01:51:00     -146.749      -46.967       -2.817       35.064       27.359       22.057     1229.495      748.505      486.514        1.311        0.123      154.081       22.067        0.021      334.429        4.396      865.848
11/11/2013  01:52:00     -132.132      -41.725       -6.014       26.898       30.175       18.111      723.495      910.501      328.005        1.060        0.098      138.564       14.378        0.011      334.415        4.372      865.851
11/11/2013  01:53:00     -130.852      -28.600       -4.564       29.629       24.523       15.941      877.876      601.357      254.116        0.985        0.087      133.941       14.538        0.012      334.387        4.327      865.842
11/11/2013  01:54:00     -126.218      -35.655       -6.218       24.790       16.764       16.646      614.549      281.035      277.085        0.921        0.059      131.157       15.602        0.014      334.323        4.220      865.822
11/11/2013  01:55:00     -132.512      -45.864       -4.837       15.134       12.864       10.548      229.053      165.494      111.261        1.010        0.025      140.224        8.318        0.004      334.323        4.220      865.809
11/11/2013  01:56:00     -128.129      -55.610      -11.840       13.217       19.293       13.547      174.691      372.232      183.514        1.019        0.037      139.676        8.533        0.004      334.337        4.242      865.818
11/11/2013  01:57:00     -118.118      -39.490      -10.926       16.498       15.300        8.643      272.177      234.089       74.702        0.811        0.029      124.545        6.274        0.003      334.312        4.202      865.809
11/11/2013  01:58:00      -75.221      -40.457        2.791       28.330       20.910       15.720      802.603      437.228      247.107        0.439        0.074       85.411       14.649        0.029      334.319        4.215      865.799
11/11/2013  01:59:00      -99.718      -67.083       -6.525       17.207       12.709       11.240      296.091      161.513      126.329        0.754        0.029      120.182        8.777        0.005      334.580        4.646      865.797
11/11/2013  02:00:00     -116.859      -64.567       -4.318       16.324       16.014       13.723      266.470      256.446      188.312        0.928        0.036      133.510        9.674        0.005      334.693        4.833      865.789
11/11/2013  02:01:00     -122.934      -55.888      -10.861       11.441       10.984        8.582      130.886      120.651       73.647        0.934        0.016      135.042        6.129        0.002      334.676        4.806      865.774
11/11/2013  02:02:00     -117.899      -33.954      -10.887       16.799       17.771       12.144      282.200      315.801      147.478        0.796        0.037      122.691        9.088        0.005      334.622        4.717      865.761
11/11/2013  02:03:00     -133.172      -44.976       -7.416       20.719       18.146       13.992      429.275      329.285      195.766        1.038        0.048      140.561        9.858        0.005      334.609        4.694      865.767
11/11/2013  02:04:00     -134.070      -46.245       -8.001       19.201       14.899       12.404      368.683      221.975      153.863        1.046        0.037      141.821        7.614        0.003      334.484        4.487      865.776
11/11/2013  02:05:00     -140.099      -44.065      -13.543       19.748       19.466       15.840      389.985      378.927      250.914        1.139        0.051      146.865        8.844        0.004      334.468        4.461      865.781
11/11/2013  02:06:00     -129.246      -59.041      -14.386       15.068       17.048       12.481      227.052      290.632      155.781        1.054        0.034      142.093        6.766        0.002      334.386        4.325      865.790
11/11/2013  02:07:00     -113.543      -46.898       -7.287       16.384       18.517       13.685      268.444      342.866      187.280        0.797        0.040      122.847        9.432        0.006      334.423        4.386      865.796
11/11/2013  02:08:00      -99.108      -44.697       -8.286       15.743       15.627       12.623      247.838      244.215      159.345        0.627        0.033      108.721        8.760        0.006      334.452        4.433      865.785
11/11/2013  02:09:00      -99.636      -40.350      -10.686       16.353        8.577       13.736      267.411       73.562      188.668        0.610        0.026      107.497       10.232        0.009      334.476        4.475      865.771
11/11/2013  02:10:00     -100.433      -30.960      -16.573        6.985        9.156        7.593       48.796       83.839       57.648        0.576        0.010      105.097        1.327        0.000      334.551        4.598      865.772
11/11/2013  02:11:00     -103.314      -36.888      -11.808       11.360       14.776        8.664      129.039      218.318       75.071        0.630        0.021      109.702        5.800        0.003      334.619        4.710      865.761
11/11/2013  02:12:00     -109.984      -43.749       -8.775       11.797       13.960        9.959      139.177      194.880       99.176        0.726        0.022      118.366        4.996        0.002      334.571        4.630      865.757
11/11/2013  02:13:00      -97.585      -44.470       -5.067       19.453       14.013       14.398      378.414      196.369      207.316        0.615        0.039      107.240       11.663        0.012      334.494        4.505      865.751
11/11/2013  02:14:00     -109.728      -42.036       -5.511       25.403       21.436       13.487      645.298      459.511      181.910        0.756        0.064      117.504       12.665        0.012      334.495        4.505      865.752
11/11/2013  02:15:00      -56.496      -40.965       -3.095       32.944       26.274       14.858     1085.276      690.313      220.759        0.344        0.100       69.785        6.258        0.008      334.472        4.467      865.764
11/11/2013  02:16:00      -59.283      -37.509       -2.025       20.451       26.166       16.170      418.258      684.672      261.464        0.314        0.068       70.153       11.135        0.025      334.472        4.468      865.778
11/11/2013  02:17:00      -93.579      -44.636      -13.129       16.750       22.897       13.025      280.557      524.266      169.642        0.595        0.049      103.679       11.644        0.013      334.382        4.318      865.789
11/11/2013  02:18:00      -98.255      -66.204      -15.813       27.722       26.433       14.880      768.515      698.696      221.417        0.799        0.084      118.478       10.064        0.007      334.397        4.344      865.808
11/11/2013  02:19:00     -139.101      -45.206      -12.752       22.201       22.436       13.005      492.896      503.372      169.123        1.136        0.058      146.263       10.030        0.005      334.343        4.254      865.832
11/11/2013  02:20:00     -110.039      -46.543      -10.458       17.316       14.610       10.864      299.839      213.438      118.016        0.751        0.032      119.478        7.543        0.004      334.348        4.262      865.852
11/11/2013  02:21:00     -106.434      -31.883      -10.096       14.765       21.623       12.810      218.013      467.548      164.085        0.665        0.042      111.106        7.268        0.004      334.381        4.316      865.865
11/11/2013  02:22:00     -108.648      -41.512      -13.450       16.566       15.068       10.892      274.429      227.033      118.644        0.716        0.031      116.309        7.969        0.005      334.458        4.444      865.868
11/11/2013  02:23:00     -106.018      -33.747       -3.739       19.987       21.813       14.263      399.467      475.801      203.443        0.674        0.054      111.259       10.536        0.009      334.418        4.377      865.873
11/11/2013  02:24:00      -89.408      -40.094       -2.199       24.224       23.579       16.543      586.787      555.960      273.655        0.551        0.071       97.987       15.680        0.026      334.395        4.340      865.879
11/11/2013  02:25:00      -85.421      -41.669        2.486       31.504       21.290       14.627      992.517      453.256      213.960        0.535        0.083       95.042       14.233        0.022      334.466        4.457      865.886
11/11/2013  02:26:00     -115.327      -53.724       -5.173       15.529       20.270       13.167      241.165      410.879      173.375        0.852        0.041      127.226        9.173        0.005      334.500        4.513      865.886
11/11/2013  02:27:00     -115.635      -43.644      -10.328       10.839       19.199        9.448      117.481      368.612       89.261        0.798        0.029      123.597        5.578        0.002      334.451        4.434      865.885
11/11/2013  02:28:00     -102.997      -44.638       -9.863       19.865       15.170       10.440      394.606      230.127      108.993        0.672        0.037      112.254        4.848        0.002      334.388        4.328      865.903
11/11/2013  02:29:00      -79.812      -34.389        1.131       22.475       17.764       16.218      505.133      315.574      263.011        0.432        0.054       86.905       15.614        0.032      334.396        4.342      865.912
11/11/2013  02:30:00     -100.581      -37.568       -5.934       11.091       13.680        8.046      123.017      187.145       64.742        0.597        0.019      107.368        4.225        0.002      334.466        4.458      865.918
11/11/2013  02:31:00      -96.805      -30.946      -10.610       10.705       14.360        9.914      114.599      206.203       98.291        0.543        0.021      101.631        5.753        0.003      334.548        4.594      865.918
11/11/2013  02:32:00      -96.872      -27.143      -10.795        9.957       12.178        8.836       99.132      148.309       78.083        0.528        0.016      100.603        6.333        0.004      334.501        4.517      865.929
11/11/2013  02:33:00      -95.079      -27.111       -6.501       18.577       12.121       10.662      345.101      146.919      113.676        0.521        0.030       98.869       10.594        0.011      334.572        4.631      865.950
11/11/2013  02:34:00     -108.487      -31.451      -13.121       11.489       12.914        8.413      131.998      166.784       70.785        0.665        0.018      112.954        5.439        0.002      334.694        4.837      865.963
11/11/2013  02:35:00     -119.601      -29.551      -10.118       11.975        9.605        8.563      143.391       92.258       73.322        0.779        0.015      123.197        4.556        0.001      334.607        4.692      865.966
11/11/2013  02:36:00     -100.323      -33.303       -9.043       13.427       12.172       12.285      180.274      148.162      150.912        0.587        0.024      105.706        9.786        0.009      334.553        4.601      865.971
11/11/2013  02:37:00      -89.169      -36.599      -15.671       13.375       14.772        9.016      178.896      218.211       81.287        0.501        0.024       96.388        4.297        0.002      334.472        4.468      865.969
11/11/2013  02:38:00      -97.728      -27.880      -12.187       14.197       14.186        8.967      201.566      201.253       80.414        0.548        0.024      101.627        8.727        0.007      334.380        4.315      865.981
11/11/2013  02:39:00     -113.017      -43.060      -12.548       13.901       12.120        7.057      193.237      146.891       49.797        0.759        0.019      120.943        5.608        0.002      334.453        4.436      865.988
11/11/2013  02:40:00     -114.518      -43.326       -8.922       11.856       12.230        9.723      140.576      149.565       94.540        0.773        0.019      122.440        5.905        0.002      334.486        4.491      865.996
11/11/2013  02:41:00     -108.096      -29.900      -14.467       13.260       10.497        9.195      175.835      110.180       84.553        0.658        0.019      112.155        2.081        0.000      334.443        4.418      866.009
11/11/2013  02:42:00     -101.049      -16.581      -12.496       18.439       11.291       11.431      339.982      127.491      130.657        0.562        0.030      102.401       10.386        0.010      334.365        4.291      866.029
11/11/2013  02:43:00     -111.927      -30.686      -10.739       17.798       12.497       10.946      316.780      156.186      119.819        0.709        0.030      116.057        9.556        0.007      334.358        4.279      866.031
11/11/2013  02:44:00     -116.481      -30.374       -9.120       18.783       11.963       13.837      352.794      143.111      191.462        0.763        0.034      120.376       11.167        0.009      334.333        4.236      866.037
11/11/2013  02:45:00      -92.498      -22.639       -0.572       26.755       18.251       14.639      715.832      333.084      214.301        0.517        0.063       95.228       12.278        0.017      334.260        4.116      866.036
11/11/2013  02:46:00      -76.888      -22.830       -3.128       13.691       13.481       12.112      187.436      181.735      146.706        0.348        0.026       80.205        8.306        0.011      334.278        4.146      866.038
11/11/2013  02:47:00      -76.735      -16.229       -8.056        9.575        9.489        7.998       91.676       90.034       63.965        0.323        0.012       78.433        5.564        0.005      334.368        4.295      866.037
11/11/2013  02:48:00      -68.045      -24.306      -12.137        8.292        7.654        7.050       68.754       58.588       49.702        0.277        0.009       72.255        2.772        0.001      334.339        4.248      866.038
11/11/2013  02:49:00      -62.961      -17.895       -9.734        9.315        7.903        6.283       86.771       62.463       39.470        0.228        0.009       65.455        2.389        0.001      334.327        4.228      866.030
11/11/2013  02:50:00      -66.513      -23.556       -9.968        7.274        6.719        6.220       52.912       45.146       38.692        0.261        0.007       70.561        1.472        0.000      334.279        4.148      866.021
11/11/2013  02:51:00      -79.032      -19.936      -10.680        7.398        5.921        5.568       54.724       35.059       30.999        0.344        0.006       81.508        2.604        0.001      334.311        4.202      866.004
11/11/2013  02:52:00      -82.293      -11.989       -8.706       10.534       10.270        7.264      110.956      105.479       52.773        0.363        0.013       83.162        5.880        0.005      334.256        4.110      865.982
11/11/2013  02:53:00      -64.838      -15.746       -5.257       21.675       17.523       12.390      469.787      307.050      153.516        0.270        0.047       66.722       11.913        0.032      334.220        4.049      865.974
11/11/2013  02:54:00      -76.831      -17.992       -4.696       17.594       18.104        9.060      309.537      327.745       82.077        0.348        0.036       78.910        6.144        0.006      334.285        4.157      865.988
11/11/2013  02:55:00      -69.640      -28.512       -4.403        9.153        7.924        5.317       83.775       62.796       28.275        0.293        0.009       75.251        4.298        0.003      334.391        4.332      866.013
11/11/2013  02:56:00      -62.964      -37.239       -2.104       10.044        7.419        8.148      100.877       55.037       66.383        0.279        0.011       73.152        5.260        0.005      334.361        4.282      866.043
11/11/2013  02:57:00      -81.004      -33.047       -7.509        8.388        5.775        4.102       70.364       33.352       16.827        0.392        0.006       87.485        2.203        0.001      334.329        4.229      866.068
11/11/2013  02:58:00      -89.548      -11.877       -9.049       10.998       13.445        7.164      120.957      180.775       51.329        0.430        0.018       90.332        5.678        0.004      334.196        4.009      866.085
11/11/2013  02:59:00      -92.205      -18.850       -5.439       11.278       15.956        6.932      127.201      254.603       48.052        0.466        0.021       94.112        5.638        0.004      334.215        4.040      866.092
11/11/2013  03:00:00      -92.722      -25.706       -8.420       13.767       14.809        9.166      189.543      219.319       84.015        0.491        0.025       96.219        5.160        0.003      334.237        4.077      866.100
11/11/2013  03:01:00     -101.919      -18.669       -4.200       24.152       14.251       11.517      583.295      203.098      132.643        0.584        0.046      103.615       12.780        0.015      334.135        3.907      866.090
11/11/2013  03:02:00     -117.018       -6.665      -15.282        8.208        9.444        8.403       67.372       89.198       70.605        0.710        0.011      117.208        4.726        0.002      334.232        4.068      866.085
11/11/2013  03:03:00      -80.641      -12.907      -13.690       16.699       11.808       13.431      278.849      139.428      180.387        0.373        0.030       81.667       12.165        0.022      334.205        4.025      866.076
11/11/2013  03:04:00      -70.002      -12.429       -5.631        8.272        9.159        5.933       68.422       83.892       35.205        0.264        0.009       71.097        3.699        0.003      334.449        4.428      866.075
11/11/2013  03:05:00      -45.905      -29.595      -11.064       15.457       11.801        8.783      238.910      139.258       77.146        0.178        0.023       54.618        8.890        0.026      334.521        4.548      866.084
11/11/2013  03:06:00      -22.013      -27.604       -7.683       20.562       17.366       14.584      422.786      301.569      212.680        0.112        0.047       35.307       12.964        0.135      334.285        4.156      866.092
11/11/2013  03:07:00      -21.093      -24.084       -5.436       21.949        9.989       14.220      481.758       99.777      202.197        0.092        0.039       32.015       13.102        0.167      334.264        4.123      866.098
11/11/2013  03:08:00      -28.688      -17.850       -9.421       10.677        8.387        6.743      113.993       70.341       45.474        0.073        0.011       33.788        6.743        0.040      334.318        4.213      866.093
11/11/2013  03:09:00      -36.002      -13.787       -8.475        6.180        9.560        4.891       38.197       91.400       23.919        0.086        0.008       38.552        2.627        0.005      334.402        4.353      866.084
11/11/2013  03:10:00      -34.973      -27.602      -13.197        9.757        9.257        7.918       95.192       85.699       62.699        0.120        0.012       44.553        3.149        0.005      334.304        4.188      866.082
11/11/2013  03:11:00      -60.815      -26.066      -11.685        9.662       12.263        6.325       93.361      150.371       40.002        0.240        0.014       66.165        3.818        0.003      334.188        3.996      866.080
11/11/2013  03:12:00      -64.287      -12.727       -9.827        5.228        6.852        6.858       27.336       46.955       47.031        0.226        0.006       65.535        2.097        0.001      334.114        3.872      866.084
11/11/2013  03:13:00      -70.923      -20.465      -12.705        6.570       10.932        5.160       43.166      119.509       26.623        0.290        0.009       73.817        2.884        0.002      334.178        3.978      866.090
11/11/2013  03:14:00      -62.352      -33.008       -7.883        6.090        7.180        6.848       37.082       51.547       46.898        0.259        0.007       70.550        3.038        0.002      334.194        4.006      866.096
11/11/2013  03:15:00      -64.044      -35.327       -7.763        5.943        7.071        5.334       35.322       49.999       28.448        0.276        0.006       73.142        3.535        0.002      334.152        3.936      866.111
11/11/2013  03:16:00      -91.486      -12.144       -9.014        8.219        7.077        5.679       67.555       50.080       32.252        0.437        0.007       92.289        3.861        0.002      334.113        3.871      866.109
11/11/2013  03:17:00      -90.122      -17.368       -8.996       12.652       13.647        8.839      160.070      186.241       78.134        0.446        0.021       91.781        5.797        0.004      334.044        3.757      866.104
11/11/2013  03:18:00      -69.216      -20.896        2.124       27.120       18.745       12.555      735.509      351.373      157.638        0.324        0.062       72.302       10.177        0.020      334.071        3.802      866.102
11/11/2013  03:19:00      -71.818      -23.555        5.230       23.147       19.962       11.960      535.805      398.489      143.053        0.341        0.054       75.582       10.270        0.018      334.031        3.735      866.104
11/11/2013  03:20:00      -77.509      -25.144        0.190       20.922       26.954       10.951      437.745      726.512      119.914        0.396        0.064       81.485        8.992        0.012      334.088        3.832      866.110
11/11/2013  03:21:00      -67.722      -23.439        1.551       22.417       15.353       10.795      502.501      235.717      116.540        0.300        0.043       71.663       11.255        0.025      334.025        3.725      866.123
11/11/2013  03:22:00      -65.583      -31.597        1.474       30.290       13.594        8.855      917.475      184.792       78.406        0.324        0.059       72.798       10.597        0.021      333.942        3.589      866.129
11/11/2013  03:23:00      -41.081      -11.427       -0.934       21.929       18.446       13.377      480.883      340.237      178.954        0.141        0.050       42.641       12.069        0.080      333.976        3.646      866.124
11/11/2013  03:24:00      -55.821      -18.128        0.412       15.882       14.712       10.184      252.250      216.439      103.720        0.201        0.029       58.691        8.730        0.022      334.006        3.695      866.126
11/11/2013  03:25:00      -90.173      -23.614       -1.427       22.641       14.528       13.266      512.594      211.061      175.998        0.480        0.045       93.214        9.478        0.010      333.957        3.613      866.124
11/11/2013  03:26:00      -94.036      -26.106        0.163       29.022       22.068       17.451      842.300      486.998      304.552        0.558        0.082       97.592       15.232        0.024      333.816        3.378      866.131
11/11/2013  03:27:00      -75.454      -19.131        6.265       34.397       21.288       16.435     1183.159      453.169      270.105        0.400        0.095       77.841       17.770        0.052      333.680        3.154      866.136
11/11/2013  03:28:00      -62.900      -20.429        2.316       34.310       18.884       14.347     1177.173      356.615      205.827        0.306        0.087       66.135        9.385        0.020      333.668        3.134      866.133
11/11/2013  03:29:00      -41.434        1.404       10.832       40.121       24.370       22.511     1609.702      593.877      506.757        0.227        0.136       41.458       23.487        0.321      333.723        3.224      866.123
11/11/2013  03:30:00      -57.922      -21.062        6.248       37.968       23.673       17.547     1441.546      560.392      307.884        0.307        0.115       61.632       19.018        0.095      333.655        3.112      866.114
11/11/2013  03:31:00     -105.794      -24.212       -0.769       24.443       21.364       15.326      597.455      456.425      234.895        0.653        0.064      108.529       11.392        0.011      333.670        3.137      866.112
11/11/2013  03:32:00      -90.233      -15.777        4.203       30.907       27.811       18.198      955.213      773.425      331.167        0.523        0.103       91.602       13.999        0.023      333.669        3.135      866.126
11/11/2013  03:33:00     -127.034      -21.689       -7.533       26.878       18.279       17.843      722.405      334.129      318.372        0.902        0.069      128.872       12.442        0.009      333.616        3.048      866.145
11/11/2013  03:34:00     -132.997      -18.277       -4.475       42.791       25.074       21.555     1831.042      628.690      464.608        1.048        0.146      134.247       22.595        0.028      333.619        3.052      866.154
11/11/2013  03:35:00      -98.543      -19.153       -0.652       43.290       26.984       21.345     1874.004      728.121      455.619        0.657        0.153      100.387       23.577        0.055      333.576        2.981      866.157
11/11/2013  03:36:00      -95.790      -36.725       -0.903       37.052       32.282       18.021     1372.864     1042.111      324.739        0.663        0.137      102.589       16.922        0.027      333.592        3.007      866.157
11/11/2013  03:37:00     -119.872      -30.859       -7.325       28.459       28.027       15.765      809.938      785.517      248.546        0.861        0.092      123.781       11.674        0.009      333.677        3.148      866.164
11/11/2013  03:38:00     -106.457      -20.482       -7.973       30.291       46.174       18.230      917.533     2132.077      332.342        0.760        0.169      108.409       13.663        0.016      333.726        3.228      866.187
11/11/2013  03:39:00      -66.320      -14.421       -2.780       27.056       28.977       18.151      732.031      839.654      329.471        0.326        0.095       67.870       15.930        0.055      333.687        3.164      866.190
11/11/2013  03:40:00      -78.522      -16.846        0.480       26.632       24.852       16.706      709.288      617.607      279.092        0.403        0.080       80.309       15.078        0.035      333.721        3.221      866.188
11/11/2013  03:41:00      -79.906      -15.291       -4.139       29.513       20.624       16.066      870.998      425.360      258.129        0.409        0.078       81.355       15.112        0.035      333.694        3.177      866.195
11/11/2013  03:42:00      -73.130      -18.271       -5.641       21.182       18.031       15.593      448.678      325.125      243.147        0.337        0.051       75.378       12.218        0.026      333.646        3.096      866.199
11/11/2013  03:43:00      -88.591        5.394       -5.405       26.498       18.419       16.128      702.150      339.261      260.107        0.460        0.065       88.755       17.092        0.037      333.635        3.078      866.201
11/11/2013  03:44:00     -116.593       -1.793      -10.282       28.151       17.666       11.611      792.505      312.090      134.815        0.747        0.062      116.607       11.457        0.010      333.712        3.207      866.208
11/11/2013  03:45:00     -114.253      -14.569      -11.067       21.928       15.665       12.204      480.836      245.390      148.946        0.713        0.044      115.178       10.011        0.008      333.720        3.219      866.219
11/11/2013  03:46:00      -99.158      -11.242       -6.331       44.689       19.853       17.427     1997.142      394.141      303.695        0.635        0.135       99.794       20.828        0.044      333.681        3.156      866.226
11/11/2013  03:47:00     -132.043       -0.824      -12.466       22.730       13.355       11.957      516.633      178.355      142.963        0.921        0.042      132.045       10.705        0.007      333.668        3.134      866.230
11/11/2013  03:48:00     -127.061       -7.176      -11.203       20.205       16.238       15.078      408.250      263.679      227.357        0.861        0.045      127.263       11.995        0.009      333.689        3.169      866.229
11/11/2013  03:49:00     -145.351       10.099      -15.863       13.296       12.795       10.588      176.785      163.704      112.098        1.097        0.023      145.702        4.351        0.001      333.732        3.239      866.239
11/11/2013  03:50:00      -99.187        1.952      -15.279       20.697       13.082       12.938      428.385      171.136      167.401        0.542        0.038       99.206        7.008        0.005      333.627        3.064      866.247
11/11/2013  03:51:00      -67.804      -10.558       -9.260       15.746       11.880       12.453      247.949      141.124      155.088        0.267        0.027       68.621        9.596        0.020      333.640        3.087      866.242
11/11/2013  03:52:00      -60.777      -25.470      -17.722       18.416       12.956       12.069      339.152      167.867      145.670        0.265        0.033       65.898        6.798        0.011      334.067        3.795      866.234
11/11/2013  03:53:00      -36.452      -27.697      -13.863       14.694       11.612        9.625      215.912      134.845       92.631        0.137        0.022       45.781        4.126        0.008      333.878        3.482      866.241
11/11/2013  03:54:00      -57.473      -25.458       -8.411       13.633       15.192       10.122      185.863      230.788      102.465        0.227        0.026       62.859        5.253        0.007      333.792        3.339      866.236
11/11/2013  03:55:00      -72.169      -28.913      -11.113       16.344       18.761       10.978      267.124      351.992      120.509        0.345        0.037       77.745        6.423        0.007      333.706        3.197      866.233
11/11/2013  03:56:00     -108.785       -2.542      -17.064       21.618       13.595       13.283      467.327      184.813      176.425        0.648        0.041      108.815       10.567        0.009      333.593        3.009      866.236
11/11/2013  03:57:00     -102.966      -10.567      -15.242       20.264       16.697       13.157      410.634      278.802      173.109        0.590        0.043      103.506       10.366        0.010      333.535        2.911      866.252
11/11/2013  03:58:00     -127.779      -23.428      -17.535       13.600       18.329       10.630      184.947      335.955      113.002        0.891        0.032      129.909        7.033        0.003      333.507        2.865      866.255
11/11/2013  03:59:00     -115.405      -16.752      -17.710       15.382       13.316       10.285      236.597      177.308      105.778        0.722        0.026      116.614        5.161        0.002      333.524        2.894      866.263
11/11/2013  04:00:00     -128.041        9.296      -21.613       14.840       12.477        9.237      220.233      155.676       85.321        0.870        0.023      128.378        4.549        0.001      333.608        3.034      866.276
11/11/2013  04:01:00     -117.875       11.911      -16.950       24.372       12.578       11.180      593.984      158.206      124.999        0.760        0.044      118.476        8.554        0.005      333.672        3.139      866.285
11/11/2013  04:02:00     -126.174        6.533      -21.140       19.149       15.459       11.295      366.683      238.987      127.588        0.857        0.037      126.343        8.144        0.004      333.674        3.144      866.290
11/11/2013  04:03:00     -115.077        9.786      -17.580       21.904       16.517       11.822      479.772      272.806      139.759        0.727        0.045      115.493       12.990        0.013      333.682        3.157      866.294
11/11/2013  04:04:00      -99.518      -17.690      -21.146       25.661       19.013       13.801      658.484      361.483      190.479        0.594        0.061      101.078       13.263        0.017      333.682        3.157      866.307
11/11/2013  04:05:00      -90.957      -11.411      -18.670       24.190       20.447       15.150      585.162      418.078      229.515        0.499        0.062       91.670       10.650        0.013      333.629        3.069      866.308
11/11/2013  04:06:00      -89.295      -36.718       -9.106       35.081       30.198       18.786     1230.669      911.891      352.922        0.595        0.125       96.550       19.138        0.039      333.521        2.889      866.314
11/11/2013  04:07:00      -77.473      -33.747       -3.256       50.752       34.272       24.895     2575.759     1174.600      619.739        0.576        0.219       84.504       26.051        0.095      333.436        2.749      866.322
11/11/2013  04:08:00      -86.982       -6.153        4.768       58.098       34.274       22.029     3375.321     1174.728      485.273        0.633        0.252       87.199       23.106        0.070      333.531        2.906      866.329
11/11/2013  04:09:00     -129.269       23.614       -7.282       62.451       32.110       23.255     3900.090     1031.070      540.812        1.140        0.274      131.409       21.575        0.027      333.582        2.991      866.342
11/11/2013  04:10:00     -144.572        5.968      -19.487       46.723       35.866       22.594     2183.078     1286.400      510.468        1.265        0.199      144.695        8.637        0.004      333.607        3.032      866.356
11/11/2013  04:11:00     -134.518       17.277      -16.810       44.487       35.776       23.244     1979.069     1279.929      540.269        1.124        0.190      135.623       19.794        0.021      333.583        2.992      866.346
11/11/2013  04:12:00     -150.415       17.532      -10.845       33.645       38.399       27.422     1131.957     1474.508      751.946        1.320        0.168      151.433       11.575        0.006      333.630        3.072      866.345
11/11/2013  04:13:00     -166.074       16.494      -16.908       53.312       43.299       22.192     2842.216     1874.763      492.468        1.667        0.260      166.891       18.477        0.012      333.713        3.206      866.344
11/11/2013  04:14:00     -105.187      -41.357        2.968       40.742       41.195       24.633     1659.904     1697.041      606.772        0.837        0.198      113.025       13.628        0.015      333.662        3.125      866.341
11/11/2013  04:15:00      -98.531      -55.686       -8.226       34.018       39.530       19.478     1157.204     1562.654      379.400        0.799        0.155      113.178        8.105        0.005      333.680        3.152      866.340
11/11/2013  04:16:00      -42.402      -33.551      -11.408       33.309       26.165       26.696     1109.459      684.621      712.687        0.278        0.125       54.070        9.226        0.029      333.672        3.140      866.352
11/11/2013  04:17:00      -13.311      -14.541      -14.882       35.375       19.241       21.390     1251.384      370.203      457.527        0.134        0.104       19.714       16.491        0.700      333.675        3.145      866.356
11/11/2013  04:18:00      -44.933      -23.826      -13.925       34.333       27.905       14.242     1178.731      778.679      202.827        0.247        0.108       50.860       13.769        0.073      333.671        3.138      866.369
11/11/2013  04:19:00      -42.176      -28.674       -2.147       29.189       19.730       19.549      852.025      389.276      382.145        0.211        0.081       51.000        9.278        0.033      333.636        3.079      866.390
11/11/2013  04:20:00      -22.751      -33.160        0.831       41.514       28.944       20.275     1723.433      837.766      411.076        0.229        0.149       40.214       17.603        0.192      333.673        3.141      866.405
11/11/2013  04:21:00      -86.956      -65.305        5.196       49.451       26.914       21.404     2445.434      724.351      458.115        0.774        0.181      108.748       17.433        0.026      333.679        3.151      866.425
11/11/2013  04:22:00      -96.189      -40.593        3.047       50.580       27.658       22.710     2558.358      764.946      515.731        0.737        0.192      104.403       23.914        0.052      333.675        3.144      866.460
11/11/2013  04:23:00      -49.567       -8.523        2.007       46.003       36.597       21.528     2116.316     1339.339      463.453        0.323        0.196       50.294       22.019        0.192      333.795        3.346      866.483
11/11/2013  04:24:00     -135.135        0.890       -6.428       44.460       39.180       24.987     1976.680     1535.076      624.364        1.122        0.207      135.138       22.436        0.028      333.944        3.591      866.501
11/11/2013  04:25:00     -132.761      -34.392      -17.988       33.260       41.317       19.469     1106.240     1707.064      379.054        1.116        0.160      137.143       16.334        0.014      333.914        3.541      866.522
11/11/2013  04:26:00     -137.894      -52.895       -5.676       47.102       34.542       22.185     2218.640     1193.176      492.190        1.287        0.195      147.691       22.303        0.023      333.757        3.281      866.545
11/11/2013  04:27:00     -155.622      -59.012       -1.393       44.540       37.247       25.451     1983.773     1387.372      647.767        1.586        0.201      166.435       25.838        0.024      333.736        3.246      866.567
11/11/2013  04:28:00     -145.253      -23.991       -1.580       48.764       42.600       25.337     2377.961     1814.772      641.968        1.325        0.242      147.221       20.388        0.019      333.745        3.259      866.577
11/11/2013  04:29:00     -136.315      -21.964       -6.317       42.596       21.982       20.835     1814.449      483.209      434.098        1.092        0.137      138.073       19.894        0.021      333.711        3.204      866.589
11/11/2013  04:30:00     -145.581      -57.610       -8.570       21.986       33.240       13.701      483.404     1104.909      187.726        1.318        0.089      156.565       11.153        0.005      333.719        3.218      866.612
11/11/2013  04:31:00     -143.892      -60.454        0.257       46.171       28.526       19.309     2131.778      813.757      372.819        1.384        0.166      156.076       20.149        0.017      333.756        3.279      866.633
11/11/2013  04:32:00     -155.142      -56.863      -10.677       21.603       24.485       13.167      466.696      599.495      173.371        1.433        0.062      165.234        5.167        0.001      333.749        3.267      866.656
11/11/2013  04:33:00     -121.905      -72.460      -14.233       21.467       21.084       16.041      460.827      444.526      257.309        1.074        0.058      141.814        7.363        0.003      333.759        3.284      866.665
11/11/2013  04:34:00     -128.165      -64.905      -12.874       17.357       14.092       15.645      301.251      198.588      244.769        1.077        0.037      143.663        8.784        0.004      333.799        3.352      866.674
11/11/2013  04:35:00     -123.783      -58.688       -9.404       25.868       17.842       16.661      669.163      318.349      277.576        1.006        0.063      136.991       15.439        0.013      333.712        3.205      866.675
11/11/2013  04:36:00     -115.548      -74.380       -1.072       42.800       27.060       18.307     1831.832      732.230      335.133        1.089        0.145      137.418       18.428        0.018      333.700        3.186      866.676
11/11/2013  04:37:00     -113.203      -47.966        0.289       45.061       24.512       19.554     2030.481      600.850      382.367        0.906        0.151      122.945       23.150        0.035      333.596        3.014      866.672
11/11/2013  04:38:00      -90.831      -42.559        0.127       24.897       21.703       16.165      619.879      470.999      261.299        0.571        0.068      100.307       11.124        0.012      333.607        3.032      866.654
11/11/2013  04:39:00      -55.713      -26.088        1.866       25.717       18.960       16.278      661.358      359.488      264.959        0.254        0.064       61.518       13.070        0.045      333.552        2.942      866.642
11/11/2013  04:40:00       -2.897      -17.948       -6.842       14.864       13.100        7.902      220.939      171.620       62.448        0.042        0.023       18.180        6.157        0.115      333.667        3.131      866.642
11/11/2013  04:41:00      -46.400      -24.766       -4.931       28.411       16.663       12.189      807.209      277.656      148.580        0.201        0.062       52.596       14.379        0.075      333.709        3.203      866.641
11/11/2013  04:42:00      -81.530      -53.567      -12.270       17.832       21.568       11.411      317.964      465.163      130.205        0.529        0.046       97.553        9.434        0.009      333.675        3.145      866.634
11/11/2013  04:43:00     -104.566      -45.355      -16.029       18.895       17.814       11.142      357.006      317.342      124.149        0.702        0.040      113.978        6.100        0.003      333.573        2.975      866.636
11/11/2013  04:44:00      -78.284      -32.624      -12.971       17.056       15.754       14.426      290.909      248.186      208.106        0.405        0.037       84.810       10.820        0.016      333.576        2.982      866.655
11/11/2013  04:45:00      -88.451      -38.427      -10.133       13.114       10.453        6.435      171.972      109.265       41.405        0.486        0.016       96.438        6.127        0.004      333.612        3.040      866.672
11/11/2013  04:46:00      -59.043      -44.960       -6.584       24.554       16.364       14.365      602.898      267.796      206.346        0.331        0.054       74.212       10.742        0.021      333.568        2.966      866.687
11/11/2013  04:47:00      -84.042      -38.161       -5.861       18.588       14.536       10.600      345.526      211.285      112.350        0.461        0.033       92.300        5.920        0.004      333.639        3.085      866.694
11/11/2013  04:48:00      -72.608      -13.252       -5.951       18.570       13.667        8.705      344.844      186.799       75.781        0.305        0.030       73.807        6.123        0.007      333.684        3.158      866.680
11/11/2013  04:49:00      -75.490        3.300      -14.703       15.625       10.745       12.151      244.148      115.460      147.638        0.322        0.025       75.563       10.547        0.019      333.710        3.202      866.664
11/11/2013  04:50:00      -49.193       -8.777       -7.725       15.472       11.288        8.886      239.397      127.425       78.954        0.150        0.022       49.970        5.713        0.013      333.693        3.174      866.666
11/11/2013  04:51:00      -45.260      -31.979       -9.328       24.087       13.073       10.801      580.189      170.891      116.652        0.201        0.043       55.417        8.168        0.022      333.748        3.266      866.671
11/11/2013  04:52:00      -47.090      -20.933       -0.715       22.659       11.530       14.373      513.438      132.945      206.574        0.175        0.043       51.534       13.611        0.070      333.767        3.297      866.684
11/11/2013  04:53:00      -51.051        9.604       -8.094        8.437        9.139        7.130       71.176       83.527       50.832        0.148        0.010       51.946        4.265        0.007      333.851        3.437      866.701
11/11/2013  04:54:00      -37.459        5.063       -3.178        5.184       14.423        3.632       26.874      208.037       13.195        0.084        0.012       37.799        2.639        0.005      333.857        3.447      866.725
11/11/2013  04:55:00      -15.192      -42.331        1.269       18.703       16.831        8.256      349.809      283.281       68.169        0.136        0.035       44.975        7.628        0.029      333.847        3.432      866.754
11/11/2013  04:56:00      -38.626       -4.911       -3.518       14.000       10.159        6.821      196.008      103.195       46.524        0.094        0.017       38.937        3.731        0.009      333.783        3.323      866.767
11/11/2013  04:57:00      -47.566        5.375       -6.216        6.298       13.399        3.535       39.670      179.530       12.496        0.128        0.012       47.868        1.856        0.002      333.838        3.416      866.774
11/11/2013  04:58:00       -1.150      -27.184        9.230       26.498       25.548       16.613      702.137      652.720      275.989        0.123        0.082       27.208       18.610        0.468      333.767        3.297      866.801
11/11/2013  04:59:00      -24.946      -25.416        4.079       24.605       13.372       10.172      605.424      178.822      103.474        0.109        0.044       35.612       13.797        0.150      333.751        3.271      866.822
11/11/2013  05:00:00      -16.445       -5.491       -2.185       14.599        6.469        5.055      213.120       41.845       25.551        0.029        0.014       17.337        5.769        0.111      333.728        3.232      866.844
11/11/2013  05:01:00      -35.141       -3.202       -0.088       10.034        8.686        6.818      100.673       75.447       46.487        0.073        0.011       35.287        5.157        0.021      333.688        3.167      866.862
11/11/2013  05:02:00      -23.029        2.439       -2.988       16.385        9.892        3.796      268.475       97.847       14.413        0.046        0.019       23.158        4.254        0.034      333.624        3.062      866.877
11/11/2013  05:03:00       -8.280       -4.862       -3.049       13.695        6.008        4.119      187.540       36.100       16.966        0.017        0.012        9.602        4.172        0.189      333.839        3.419      866.896
11/11/2013  05:04:00      -45.113       -7.263       -7.780        9.137        6.822        5.575       83.480       46.540       31.078        0.115        0.008       45.694        3.346        0.005      333.740        3.254      866.923
11/11/2013  05:05:00      -40.145      -15.703       -1.886        9.906        9.567        7.298       98.125       91.521       53.262        0.105        0.012       43.107        5.254        0.015      333.619        3.051      866.941
11/11/2013  05:06:00      -70.043      -25.429       -8.045       15.603       14.543       10.755      243.456      211.500      115.661        0.309        0.029       74.516        5.406        0.005      333.508        2.868      866.948
11/11/2013  05:07:00      -93.543      -41.339       -5.167       20.152       15.632       11.572      406.122      244.374      133.916        0.564        0.039      102.270       10.964        0.011      333.523        2.893      866.944
11/11/2013  05:08:00      -55.755      -19.721        0.966       27.394       17.252       10.447      750.437      297.633      109.140        0.233        0.058       59.140        8.563        0.021      333.472        2.809      866.930
11/11/2013  05:09:00      -60.260      -15.061       -0.745       17.619       16.957        7.304      310.429      287.535       53.344        0.225        0.033       62.114        5.867        0.009      333.649        3.101      866.916
11/11/2013  05:10:00      -14.957      -19.705        9.384       26.510       17.508       12.400      702.768      306.525      153.768        0.093        0.058       24.739       14.093        0.325      333.662        3.123      866.911
11/11/2013  05:11:00       15.532        9.989        1.927       12.728        9.050       10.719      161.995       81.908      114.893        0.035        0.018       18.467        8.745        0.224      333.608        3.035      866.911
11/11/2013  05:12:00      -16.225       -3.957       -5.034       17.945       10.882        6.321      322.011      118.408       39.959        0.039        0.024       16.701        4.385        0.069      333.718        3.217      866.910
11/11/2013  05:13:00      -47.735      -18.791       -5.849       13.838        8.529        7.226      191.477       72.745       52.211        0.149        0.016       51.300        4.728        0.008      333.700        3.186      866.904
11/11/2013  05:14:00      -50.108      -14.783       -0.546       17.939       14.833        7.459      321.804      220.017       55.637        0.166        0.030       52.243        5.933        0.013      333.649        3.102      866.882
11/11/2013  05:15:00      -64.965      -39.797        9.116       28.256       16.908       15.978      798.415      285.887      255.294        0.361        0.067       76.186       15.248        0.040      333.606        3.032      866.860
11/11/2013  05:16:00      -35.366      -27.737        6.992       24.493       21.704       15.801      599.928      471.043      249.667        0.169        0.066       44.945       13.936        0.096      333.613        3.042      866.846
11/11/2013  05:17:00      -26.980      -33.381        5.381       25.824       21.960       16.546      666.884      482.223      273.774        0.165        0.071       42.921       17.639        0.169      333.553        2.943      866.844
11/11/2013  05:18:00      -36.461      -29.182        2.492       26.374       20.084       10.295      695.605      403.380      105.991        0.170        0.060       46.702        7.807        0.028      333.608        3.037      866.848
11/11/2013  05:19:00      -27.613      -21.087        0.229       25.084       13.942        7.249      629.223      194.375       52.546        0.104        0.044       34.743        8.586        0.061      333.549        2.936      866.858
11/11/2013  05:20:00      -32.976       -1.794        1.167       14.655       17.165        7.820      214.777      294.643       61.149        0.083        0.029       33.025        8.130        0.061      333.577        2.983      866.855
11/11/2013  05:21:00      -25.354       -0.073        1.919       14.808       13.793        8.485      219.279      190.259       71.997        0.056        0.024       25.355       10.054        0.157      333.493        2.844      866.856
11/11/2013  05:22:00      -48.507       10.500       -1.758       20.052       10.193        5.985      402.085      103.889       35.826        0.150        0.027       49.631        3.642        0.005      333.523        2.894      866.859
11/11/2013  05:23:00      -65.126       -5.384       -2.954       13.546       11.277        7.712      183.485      127.179       59.480        0.232        0.019       65.348        5.517        0.007      333.508        2.867      866.874
11/11/2013  05:24:00      -76.069      -14.691       -8.479       13.401        9.724        7.033      179.599       94.548       49.458        0.320        0.016       77.474        6.764        0.008      333.385        2.664      866.897
11/11/2013  05:25:00      -92.930      -20.634       -7.712       32.025       20.023       12.434     1025.619      400.925      154.611        0.535        0.079       95.193        9.264        0.009      333.169        2.307      866.922
11/11/2013  05:26:00      -75.663      -12.810       -2.202       39.224       21.702       18.002     1538.507      470.986      324.073        0.411        0.117       76.740       19.831        0.067      332.991        2.014      866.938
11/11/2013  05:27:00      -74.559       -8.660       -3.038       28.688       27.530       16.127      823.019      757.915      260.087        0.374        0.092       75.060        9.805        0.017      333.051        2.113      866.946
11/11/2013  05:28:00      -50.339      -28.438       -3.784       25.304       23.014       15.793      640.273      529.628      249.421        0.239        0.071       57.816       11.624        0.040      333.078        2.158      866.947
11/11/2013  05:29:00      -58.559      -29.067      -11.973       24.800       17.003       14.421      615.021      289.095      207.969        0.276        0.056       65.376       10.223        0.024      333.152        2.278      866.947
11/11/2013  05:30:00      -34.552      -26.934       -2.156       28.010       17.758       15.436      784.542      315.360      238.279        0.163        0.067       43.809       16.970        0.150      333.155        2.284      866.938
11/11/2013  05:31:00      -47.338      -25.661      -15.058       17.176       14.911       10.548      295.017      222.345      111.252        0.188        0.031       53.846        5.003        0.009      333.237        2.419      866.925
11/11/2013  05:32:00       -7.574      -24.876       -2.706       21.021       12.667       13.799      441.874      160.461      190.408        0.074        0.040       26.004       11.218        0.186      333.265        2.465      866.915
11/11/2013  05:33:00       11.260      -34.153        6.919       16.287       18.919       12.930      265.270      357.922      167.194        0.107        0.040       35.961       10.410        0.084      333.346        2.600      866.910
11/11/2013  05:34:00       14.817      -11.887        8.515       12.091       11.126        7.806      146.187      123.785       60.938        0.038        0.017       18.996        4.155        0.048      333.367        2.635      866.908
11/11/2013  05:35:00        6.733      -19.042       -3.983        8.163       10.032        7.572       66.636      100.632       57.330        0.032        0.011       20.198        4.342        0.046      333.513        2.876      866.902
11/11/2013  05:36:00        0.878       -8.872        1.753        4.381        8.570        4.144       19.192       73.439       17.174        0.010        0.005        8.915        2.964        0.110      333.673        3.142      866.896
11/11/2013  05:37:00        4.786       11.843        1.008        9.635        8.812        7.695       92.828       77.646       59.219        0.020        0.011       12.773        4.936        0.149      333.861        3.453      866.888
11/11/2013  05:38:00        1.059       -4.787        4.419        8.353        9.714        5.531       69.768       94.369       30.595        0.012        0.010        4.903        4.225        0.742      333.770        3.303      866.886
11/11/2013  05:39:00        6.788       33.095       -0.568        6.940       14.762        5.839       48.164      217.915       34.092        0.072        0.015       33.784        7.209        0.046      333.793        3.340      866.888
11/11/2013  05:40:00      -14.038       22.722       -0.058       16.239       24.942        6.649      263.701      622.115       44.214        0.082        0.047       26.709        6.247        0.055      333.652        3.108      866.893
11/11/2013  05:41:00      -16.682      -11.385       -5.822       22.145       20.166       11.033      490.397      406.675      121.728        0.073        0.051       20.196        6.648        0.108      333.600        3.021      866.899
11/11/2013  05:42:00      -48.631      -28.988       -8.624       10.378        7.090        7.031      107.697       50.271       49.442        0.174        0.010       56.615        3.559        0.004      333.223        2.397      866.895
11/11/2013  05:43:00      -62.540      -24.461      -11.280       13.324       10.935        8.236      177.524      119.577       67.828        0.250        0.018       67.154        4.589        0.005      333.163        2.297      866.888
11/11/2013  05:44:00      -53.148      -24.987      -11.730        8.150       11.008        7.214       66.427      121.181       52.035        0.191        0.012       58.729        5.138        0.008      333.250        2.440      866.879
11/11/2013  05:45:00      -65.266       -3.674      -15.537       15.067       14.825       12.053      227.026      219.770      145.266        0.255        0.030       65.370        7.296        0.012      333.137        2.253      866.871
11/11/2013  05:46:00      -80.718       -6.863      -13.024       20.116       11.701       10.962      404.655      136.910      120.175        0.370        0.033       81.009        7.102        0.008      333.035        2.087      866.868
11/11/2013  05:47:00      -87.871       -5.134       -9.967       14.859        9.971       10.743      220.780       99.430      115.403        0.414        0.022       88.021        8.372        0.009      333.017        2.057      866.843
11/11/2013  05:48:00      -83.938       -1.109      -10.061       19.683       11.090       10.057      387.407      122.991      101.148        0.388        0.031       83.945        6.857        0.007      333.130        2.242      866.834
11/11/2013  05:49:00      -82.224      -12.954      -14.173       11.165        9.649        8.202      124.656       93.113       67.275        0.371        0.014       83.238        6.273        0.006      333.142        2.262      866.833
11/11/2013  05:50:00      -57.489      -15.545       -7.470       10.385        8.502        6.893      107.840       72.286       47.517        0.192        0.011       59.554        3.092        0.003      333.469        2.805      866.849
11/11/2013  05:51:00      -57.428      -20.619      -11.189        8.628        7.721        7.229       74.435       59.608       52.254        0.202        0.009       61.017        2.634        0.002      333.351        2.609      866.863
11/11/2013  05:52:00      -81.209      -21.931      -14.213       22.030       11.171        8.498      485.308      124.782       72.214        0.398        0.034       84.119        7.600        0.008      333.225        2.399      866.889
11/11/2013  05:53:00     -122.392      -15.149      -13.702       20.249       13.959       10.841      410.028      194.850      117.534        0.806        0.036      123.326       10.734        0.008      333.153        2.279      866.916
11/11/2013  05:54:00     -125.023      -18.501      -16.241       25.816       20.252       18.317      666.453      410.139      335.513        0.882        0.071      126.384       13.400        0.011      332.999        2.027      866.935
11/11/2013  05:55:00     -107.937      -55.073      -13.105       21.517       20.602       13.189      462.975      424.453      173.959        0.796        0.053      121.175        5.055        0.002      332.824        1.738      866.963
11/11/2013  05:56:00      -70.148      -44.689        3.409       37.042       23.637       19.949     1372.129      558.708      397.944        0.463        0.116       83.173       16.280        0.038      332.847        1.777      866.989
11/11/2013  05:57:00      -81.418        1.736       -0.983       39.704       31.816       18.913     1576.405     1012.252      357.698        0.479        0.147       81.436       19.090        0.055      332.890        1.846      867.005
11/11/2013  05:58:00      -51.204        0.274        1.081       54.525       32.008       22.604     2972.922     1024.504      510.958        0.356        0.225       51.205       27.784        0.294      332.928        1.910      867.013
11/11/2013  05:59:00      -58.652      -17.551       -1.285       45.270       35.827       21.593     2049.415     1283.582      466.249        0.377        0.190       61.221       24.443        0.159      333.018        2.057      867.016
11/11/2013  06:00:00      -69.752        2.938       -7.299       38.364       30.143       15.963     1471.803      908.613      254.808        0.378        0.132       69.814       15.770        0.051      333.115        2.218      867.016
11/11/2013  06:01:00      -67.310       20.054       -8.877       45.676       33.331       19.262     2086.304     1110.963      371.007        0.429        0.178       70.234       11.214        0.025      333.200        2.360      867.030
11/11/2013  06:02:00      -82.861      -12.270       -8.636       22.882       26.980       14.317      523.603      727.929      204.966        0.427        0.073       83.764        4.949        0.003      333.330        2.575      867.037
11/11/2013  06:03:00      -78.875      -11.146       -8.634       35.065       26.991       16.241     1229.534      728.501      263.783        0.432        0.111       79.659       15.364        0.037      333.183        2.330      867.045
11/11/2013  06:04:00      -79.368        0.462       -8.457       38.073       25.341       19.461     1449.543      642.173      378.737        0.442        0.124       79.369       20.163        0.065      333.054        2.119      867.063
11/11/2013  06:05:00      -92.804      -32.897      -14.602       19.620       24.944       18.051      384.940      622.200      325.840        0.562        0.067       98.462        8.811        0.008      333.046        2.105      867.082
11/11/2013  06:06:00     -106.594      -34.722      -18.759       24.306       18.964       15.138      590.793      359.639      229.169        0.705        0.059      112.107       14.950        0.018      332.987        2.007      867.101
11/11/2013  06:07:00     -123.015      -46.863      -18.967       35.981       18.608       21.340     1294.609      346.254      455.392        0.989        0.105      131.639       11.980        0.008      333.014        2.052      867.119
11/11/2013  06:08:00     -113.307      -39.501      -14.188       31.552       27.510       15.950      995.535      756.784      254.399        0.830        0.100      119.995       16.118        0.018      333.034        2.084      867.127
11/11/2013  06:09:00     -118.468      -37.257       -2.810       34.231       29.050       22.331     1171.757      843.925      498.679        0.897        0.126      124.188       22.529        0.033      332.989        2.010      867.123
11/11/2013  06:10:00     -129.783      -44.776       -9.680       34.989       24.080       17.225     1224.207      579.836      296.714        1.052        0.105      137.290       18.952        0.019      332.951        1.947      867.121
11/11/2013  06:11:00     -106.803      -10.356        5.528       39.013       41.729       22.919     1521.987     1741.307      525.264        0.767        0.189      107.304       18.763        0.031      333.006        2.038      867.114
11/11/2013  06:12:00     -111.789      -23.746        0.476       57.101       33.468       24.969     3260.473     1120.082      623.448        0.903        0.250      114.283       27.746        0.059      333.026        2.070      867.108
11/11/2013  06:13:00      -85.103      -26.694       -5.764       40.443       32.387       19.908     1635.667     1048.895      396.322        0.553        0.154       89.191       18.913        0.045      333.076        2.154      867.100
11/11/2013  06:14:00      -80.569      -18.553        4.154       47.543       31.787       19.619     2260.298     1010.395      384.891        0.525        0.183       82.677       21.002        0.065      333.102        2.196      867.100
11/11/2013  06:15:00      -95.868      -14.028       -1.418       48.550       35.122       23.215     2357.142     1233.561      538.930        0.676        0.206       96.888       26.047        0.072      333.116        2.220      867.100
11/11/2013  06:16:00     -118.702      -24.134       -8.716       40.278       26.602       17.112     1622.283      707.676      292.829        0.869        0.131      121.131       20.556        0.029      333.148        2.272      867.106
11/11/2013  06:17:00     -126.027      -19.591       -8.027       39.494       27.430       20.738     1559.759      752.403      430.047        0.954        0.137      127.540       13.300        0.011      333.187        2.336      867.107
11/11/2013  06:18:00     -124.303      -17.325       -2.367       43.741       24.191       19.517     1913.248      585.190      380.919        0.932        0.144      125.504       19.190        0.023      333.142        2.262      867.120
11/11/2013  06:19:00     -149.418      -19.799      -12.106       29.458       22.697       15.782      867.797      515.162      249.073        1.225        0.082      150.724       13.871        0.008      333.151        2.279      867.123
11/11/2013  06:20:00     -145.039      -11.322      -11.339       32.915       32.891       20.662     1083.379     1081.847      426.902        1.194        0.130      145.480       18.573        0.016      333.157        2.288      867.134
11/11/2013  06:21:00     -121.297        4.225       -9.485       39.163       35.426       26.579     1533.766     1254.976      706.417        0.916        0.175      121.371       22.040        0.033      333.222        2.394      867.154
11/11/2013  06:22:00     -123.175      -11.533       -5.493       36.991       35.050       25.611     1368.317     1228.511      655.919        0.929        0.163      123.714       24.377        0.039      333.208        2.373      867.178
11/11/2013  06:23:00     -147.591       -8.469      -13.241       47.289       35.550       24.816     2236.269     1263.781      615.843        1.307        0.206      147.834       26.907        0.033      333.293        2.512      867.200
11/11/2013  06:24:00     -168.117      -11.973      -14.433       26.394       30.128       19.902      696.663      907.688      396.086        1.531        0.100      168.543       17.495        0.011      333.286        2.500      867.221
11/11/2013  06:25:00     -132.935       -5.022       -8.613       45.599       28.219       24.671     2079.313      796.335      608.659        1.063        0.174      133.030       23.622        0.032      333.190        2.341      867.230
11/11/2013  06:26:00     -161.811      -21.446       -9.907       34.928       24.702       17.745     1219.945      610.190      314.899        1.444        0.107      163.226       17.891        0.012      333.142        2.264      867.244
11/11/2013  06:27:00     -116.457      -36.670       -3.122       25.288       23.544       14.756      639.464      554.338      217.739        0.816        0.071      122.094       12.528        0.011      333.216        2.385      867.250
11/11/2013  06:28:00      -95.585      -55.928       -4.598       26.681       40.914       20.708      711.889     1673.955      428.803        0.755        0.141      110.745       13.485        0.015      333.200        2.360      867.247
11/11/2013  06:29:00     -114.079      -73.225       -1.274       23.360       22.767       15.924      545.670      518.333      253.559        0.985        0.066      135.558       11.666        0.007      333.192        2.346      867.250
11/11/2013  06:30:00     -105.790      -65.585       -6.181       18.881       20.041       16.036      356.482      401.660      257.154        0.827        0.051      124.470       12.762        0.011      333.276        2.484      867.233
11/11/2013  06:31:00      -96.341      -52.141       -6.517       14.901       16.412       11.617      222.052      269.366      134.960        0.633        0.031      109.545        4.472        0.002      333.310        2.542      867.219
11/11/2013  06:32:00      -74.890      -53.600       -0.660       35.969       25.224       23.484     1293.765      636.248      551.517        0.548        0.124       92.095       19.586        0.045      333.269        2.473      867.225
11/11/2013  06:33:00      -92.576      -58.360        3.446       43.885       23.573       18.529     1925.894      555.684      343.334        0.741        0.141      109.436        8.409        0.006      333.331        2.576      867.224
11/11/2013  06:34:00      -93.782      -47.485        4.083       44.432       29.932       17.690     1974.214      895.954      312.946        0.712        0.159      105.118       18.611        0.031      333.486        2.832      867.219
11/11/2013  06:35:00      -33.631      -23.236       12.416       36.650       21.003       21.618     1343.233      441.107      467.358        0.204        0.113       40.877       19.180        0.220      333.556        2.948      867.216
11/11/2013  06:36:00      -46.175      -42.836        6.038       29.781       25.467       20.034      886.884      648.555      401.346        0.297        0.097       62.985       15.645        0.062      333.543        2.926      867.201
11/11/2013  06:37:00      -30.116      -27.897        6.118       26.935       18.615       16.390      725.489      346.533      268.643        0.153        0.067       41.051       11.662        0.081      333.486        2.831      867.175
11/11/2013  06:38:00      -24.724      -20.542        5.845       31.484       14.545       14.368      991.249      211.544      206.439        0.124        0.070       32.144       15.261        0.225      333.381        2.658      867.139
11/11/2013  06:39:00       -5.715      -16.760       -7.790       17.447       14.822        7.747      304.389      219.689       60.015        0.048        0.029       17.708        6.915        0.152      333.398        2.686      867.106
11/11/2013  06:40:00       -7.489      -21.906        0.462        8.116        8.861        7.455       65.872       78.511       55.571        0.037        0.010       23.151        4.137        0.032      333.622        3.059      867.078
11/11/2013  06:41:00      -46.771      -17.555       -3.356       16.532       11.099        6.329      273.298      123.197       40.059        0.147        0.022       49.957        4.787        0.009      333.525        2.895      867.066
11/11/2013  06:42:00      -62.364      -26.507       -0.707       17.573       10.939        8.743      308.802      119.667       76.445        0.255        0.025       67.763       10.577        0.024      333.396        2.682      867.081
11/11/2013  06:43:00      -63.153      -17.961       -7.930        9.655       11.825        7.054       93.214      139.825       49.764        0.233        0.014       65.657        3.260        0.002      333.348        2.602      867.107
11/11/2013  06:44:00      -44.853      -22.250       -3.210       12.778       13.832       10.947      163.287      191.311      119.830        0.150        0.024       50.068        9.414        0.035      333.415        2.714      867.145
11/11/2013  06:45:00      -42.745       -3.791        4.853       14.095       13.069       10.869      198.680      170.802      118.125        0.118        0.024       42.913        7.853        0.033      333.351        2.608      867.193
11/11/2013  06:46:00      -46.477       -5.669       -1.355       13.402        9.783        9.069      179.603       95.709       82.254        0.128        0.018       46.821        6.625        0.020      333.344        2.598      867.240
11/11/2013  06:47:00      -37.080      -25.999       -5.112       15.173        8.469        7.643      230.226       71.732       58.413        0.122        0.018       45.287        8.240        0.033      333.414        2.714      867.270
11/11/2013  06:48:00      -22.326      -23.547       -2.941       22.660       16.274        9.246      513.493      264.855       85.483        0.096        0.043       32.449        5.836        0.032      333.448        2.769      867.282
11/11/2013  06:49:00      -39.876      -14.246       -2.192       11.327        8.776        5.520      128.303       77.019       30.473        0.102        0.012       42.344        5.961        0.020      333.406        2.699      867.284
11/11/2013  06:50:00      -42.203      -13.886       -5.873       13.678       10.182        5.187      187.099      103.673       26.909        0.116        0.016       44.429        5.633        0.016      333.379        2.656      867.284
11/11/2013  06:51:00      -58.053      -11.554       -6.983        7.051       11.916        7.177       49.711      141.982       51.514        0.190        0.012       59.192        3.853        0.004      333.210        2.375      867.288
11/11/2013  06:52:00      -60.818        3.711       -6.176        8.534        8.265        6.077       72.832       68.303       36.931        0.196        0.009       60.931        4.311        0.005      333.270        2.473      867.290
11/11/2013  06:53:00      -39.408      -16.036       -0.908       15.687       11.050        5.898      246.067      122.113       34.782        0.111        0.020       42.546        5.221        0.015      333.302        2.528      867.297
11/11/2013  06:54:00      -47.924      -17.286       -1.619       17.961       15.535       12.453      322.593      241.331      155.082        0.166        0.036       50.947       11.741        0.053      333.255        2.450      867.301
11/11/2013  06:55:00      -34.736       -7.911        5.605       22.259       15.582       10.088      495.463      242.791      101.763        0.107        0.042       35.625       12.731        0.128      333.229        2.406      867.306
11/11/2013  06:56:00       -2.282      -17.253        0.032        7.631        9.638        9.025       58.226       92.890       81.456        0.027        0.012       17.403        6.262        0.129      333.354        2.614      867.325
11/11/2013  06:57:00       -0.336       -2.178        4.418        5.900        9.114        7.891       34.805       83.063       62.262        0.010        0.009        2.203        6.189        7.889      333.403        2.697      867.348
11/11/2013  06:58:00       -4.693       10.502        4.778        8.978        7.592        9.329       80.610       57.635       87.028        0.019        0.011       11.503        8.380        0.531      333.405        2.698      867.366
11/11/2013  06:59:00      -25.742        6.558       -5.482        9.786        3.908        4.145       95.770       15.273       17.179        0.043        0.006       26.565        1.312        0.002      333.425        2.731      867.391
11/11/2013  07:00:00      -42.761       -1.428       -7.818        5.458        4.579        4.566       29.794       20.967       20.850        0.098        0.004       42.785        1.623        0.001      333.453        2.776      867.416
11/11/2013  07:01:00      -52.716      -18.115       -6.577        5.952        8.220        5.833       35.421       67.570       34.022        0.164        0.007       55.742        2.614        0.002      333.472        2.809      867.436
11/11/2013  07:02:00      -39.020      -17.492       -2.728        8.915        8.554        7.499       79.470       73.177       56.233        0.102        0.010       42.761        4.323        0.010      333.455        2.780      867.444
11/11/2013  07:03:00      -22.264      -14.780       -4.672       12.737        8.726        7.589      162.228       76.148       57.589        0.052        0.015       26.723        5.354        0.040      333.435        2.748      867.444
11/11/2013  07:04:00      -14.195        6.089       -5.793        7.523       10.064        8.031       56.594      101.287       64.489        0.025        0.011       15.445        4.812        0.097      333.513        2.877      867.446
11/11/2013  07:05:00        1.813        3.097        3.442        6.961        4.633        7.432       48.455       21.461       55.232        0.007        0.006        3.589        5.145        2.055      333.741        3.257      867.437
11/11/2013  07:06:00       20.249       18.297        7.999        6.956        5.613       11.372       48.392       31.502      129.319        0.051        0.010       27.291        5.857        0.046      333.517        2.883      867.428
11/11/2013  07:07:00       13.585       12.969       -2.285        4.713        8.757        5.486       22.213       76.683       30.094        0.024        0.006       18.782        5.141        0.075      333.464        2.795      867.423
11/11/2013  07:08:00        9.366        6.963        8.593        9.434       12.293        7.734       89.007      151.130       59.807        0.025        0.015       11.671        2.949        0.064      333.649        3.102      867.421
11/11/2013  07:09:00       20.036       18.688        9.607        9.932        9.596       12.522       98.644       92.085      156.790        0.060        0.017       27.399        6.345        0.054      333.500        2.856      867.424
11/11/2013  07:10:00       35.877       22.670       16.482       10.034        8.909       10.849      100.684       79.367      117.703        0.119        0.015       42.439        5.479        0.017      333.603        3.026      867.427
11/11/2013  07:11:00       40.012       28.652       10.980       14.135       10.470        9.958      199.805      109.629       99.154        0.148        0.020       49.213        2.958        0.004      333.485        2.829      867.429
11/11/2013  07:12:00       22.294       21.622       18.452       10.844       12.217       11.469      117.593      149.255      131.543        0.085        0.020       31.057        6.626        0.046      333.604        3.027      867.435
11/11/2013  07:13:00       12.673       14.799       18.995       12.554       11.554       10.178      157.595      133.495      103.585        0.057        0.020       19.484        8.762        0.202      333.709        3.202      867.449
11/11/2013  07:14:00       27.306       26.675       21.529       12.668       10.943       10.283      160.487      119.742      105.749        0.115        0.019       38.173        8.308        0.047      333.642        3.091      867.461
11/11/2013  07:15:00       10.935       23.016       22.142       14.396       13.359        9.610      207.258      178.472       92.356        0.081        0.024       25.482        7.839        0.095      333.698        3.182      867.477
11/11/2013  07:16:00       -2.612        7.113       10.503        9.517       12.672        7.450       90.566      160.574       55.503        0.024        0.015        7.578        9.192        1.471      333.744        3.259      867.482
11/11/2013  07:17:00        6.995       -3.497        7.233        5.884        7.197        6.558       34.627       51.795       43.001        0.012        0.006        7.820        3.961        0.257      333.840        3.419      867.487
11/11/2013  07:18:00        2.743        3.670        4.689        6.051        5.417        5.572       36.619       29.348       31.052        0.007        0.005        4.582        2.749        0.360      333.874        3.476      867.498
11/11/2013  07:19:00        7.246       19.841        4.272       10.345       12.823       10.172      107.027      164.435      103.472        0.042        0.019       21.123        8.845        0.175      333.874        3.476      867.521
11/11/2013  07:20:00       38.067       28.461        4.347       11.471       11.352        8.999      131.587      128.864       80.982        0.131        0.017       47.530        6.899        0.021      333.729        3.233      867.539
11/11/2013  07:21:00       46.435       34.722        2.342        9.680        9.084        8.340       93.705       82.511       69.557        0.181        0.012       57.982        6.671        0.013      333.706        3.197      867.543
11/11/2013  07:22:00       44.858       37.936        0.171       14.011       13.912        9.842      196.297      193.544       96.874        0.197        0.024       58.749        7.905        0.018      333.748        3.267      867.543
11/11/2013  07:23:00       43.225       37.275        3.229       15.827       12.458       12.315      250.505      155.199      151.655        0.191        0.028       57.078        9.065        0.025      333.815        3.376      867.561
11/11/2013  07:24:00       38.631       37.012       -0.215       14.363       12.250        9.979      206.287      150.051       99.574        0.166        0.023       53.500        6.810        0.016      333.848        3.432      867.578
11/11/2013  07:25:00       26.880       32.675        0.685       16.809       13.600       12.771      282.536      184.955      163.109        0.121        0.032       42.311       10.431        0.061      333.900        3.519      867.601
11/11/2013  07:26:00       21.097       14.635        7.442       16.814       15.107       11.265      282.718      228.207      126.909        0.068        0.032       25.676        7.668        0.089      333.992        3.673      867.622
11/11/2013  07:27:00       -9.986       -4.740        4.429        9.544        5.163        5.972       91.080       26.652       35.660        0.015        0.008       11.054        2.057        0.035      333.986        3.663      867.650
11/11/2013  07:28:00      -35.342        3.201       -1.383       10.531        8.886        5.802      110.904       78.962       33.663        0.074        0.011       35.487        4.448        0.016      333.824        3.392      867.668
11/11/2013  07:29:00      -54.740        0.555       -5.300        7.059        5.732        6.486       49.825       32.860       42.072        0.157        0.006       54.743        3.117        0.003      333.781        3.322      867.680
11/11/2013  07:30:00      -57.262       -4.197        8.663       27.641       24.424       20.426      764.041      596.536      417.242        0.257        0.089       57.416       13.288        0.054      333.847        3.431      867.679
11/11/2013  07:31:00      -52.210      -93.006        2.330       24.804       38.716       18.440      615.243     1498.946      340.046        0.692        0.123      106.658       16.255        0.023      334.031        3.736      867.685
11/11/2013  07:32:00      -21.838      -34.678        8.152       22.783       23.392       12.658      519.085      547.174      160.236        0.149        0.061       40.981       13.650        0.111      334.103        3.854      867.693
11/11/2013  07:33:00      -31.741      -11.870       -1.708        9.492        8.793        6.399       90.094       77.312       40.945        0.068        0.010       33.888        3.362        0.010      334.044        3.759      867.700
11/11/2013  07:34:00       -0.545       -0.688        5.941        7.330       13.854        8.576       53.729      191.920       73.553        0.018        0.016        0.878        4.909       31.274      334.311        4.200      867.691
11/11/2013  07:35:00      -18.049        3.432      -10.917       12.934        8.866        8.952      167.277       78.608       80.131        0.039        0.016       18.373        7.559        0.169      334.248        4.097      867.689
11/11/2013  07:36:00      -13.269       15.667       11.297       15.613       14.833       12.719      243.757      220.014      161.775        0.059        0.031       20.531        9.121        0.197      334.420        4.381      867.675
11/11/2013  07:37:00       11.958       -3.004       15.829       13.461       12.153       13.921      181.202      147.707      193.789        0.046        0.026       12.329        8.695        0.497      334.653        4.768      867.669
11/11/2013  07:38:00        2.826       -0.782        9.939       18.125       10.196        9.661      328.502      103.962       93.334        0.032        0.026        2.932        5.729        3.819      334.648        4.760      867.681
11/11/2013  07:39:00      -21.746      -12.726       -8.199        9.625        8.142        8.851       92.650       66.289       78.344        0.047        0.012       25.196        6.035        0.057      334.433        4.402      867.684
11/11/2013  07:40:00      -15.522        5.754        3.838       10.015       19.151       16.978      100.301      366.755      288.267        0.052        0.038       16.554       15.504        0.877      334.515        4.538      867.685
11/11/2013  07:41:00       32.497       27.668       20.162       24.590       22.616       22.454      604.665      511.498      504.201        0.192        0.081       42.680       15.763        0.136      334.604        4.686      867.685
11/11/2013  07:42:00       51.795       55.363       10.412       31.489       22.520       22.184      991.555      507.134      492.151        0.392        0.100       75.814       10.973        0.021      334.494        4.504      867.687
11/11/2013  07:43:00       72.663       55.297       -5.458       25.088       24.197       24.420      629.390      585.501      596.315        0.509        0.091       91.311        8.448        0.009      334.519        4.545      867.686
11/11/2013  07:44:00       66.255       47.623        1.414       25.254       21.318       22.204      637.753      454.475      493.012        0.412        0.079       81.595       11.537        0.020      334.503        4.518      867.680
11/11/2013  07:45:00       51.147       46.431        2.178       24.411       18.547       20.479      595.902      344.004      419.374        0.307        0.068       69.079        8.498        0.015      334.599        4.676      867.679
11/11/2013  07:46:00       36.729       35.940        4.116       26.867       17.112       20.230      721.831      292.835      409.246        0.204        0.071       51.388       10.561        0.042      334.713        4.866      867.684
11/11/2013  07:47:00       30.627       35.345       35.282       33.882       26.018       20.605     1147.971      676.915      424.580        0.284        0.112       46.768       13.914        0.089      334.813        5.033      867.674
11/11/2013  07:48:00       33.217       41.313       27.259       39.507       26.060       29.185     1560.795      679.114      851.765        0.332        0.155       53.011       24.140        0.207      334.677        4.807      867.655
11/11/2013  07:49:00       72.071       57.830       13.810       20.844       13.970       22.606      434.490      195.171      511.041        0.493        0.057       92.404       12.824        0.019      334.469        4.461      867.640
11/11/2013  07:50:00       68.967       42.141        3.594       27.637       24.582       23.933      763.804      604.266      572.796        0.424        0.097       80.823       16.871        0.044      334.568        4.626      867.638
11/11/2013  07:51:00       48.381       30.638        8.472       23.344       25.355       29.018      544.962      642.895      842.039        0.269        0.101       57.267       12.644        0.049      334.671        4.797      867.646
11/11/2013  07:52:00       56.701       28.351        5.969       23.391       16.618       21.609      547.128      276.164      466.958        0.267        0.065       63.393       11.926        0.035      334.750        4.928      867.660
11/11/2013  07:53:00       42.589       45.117       15.884       30.347       21.169       22.337      920.967      448.146      498.961        0.298        0.093       62.043       18.122        0.085      334.819        5.043      867.671
11/11/2013  07:54:00        6.522       35.208       47.546       20.096       23.761       11.927      403.830      564.568      142.252        0.233        0.056       35.807        8.831        0.061      335.034        5.400      867.662
11/11/2013  07:55:00       19.882       28.566       40.368       30.406       21.587       22.811      924.500      465.983      520.364        0.238        0.096       34.804       19.943        0.328      334.926        5.220      867.644
11/11/2013  07:56:00       15.381       40.300       42.346       29.499       30.310       28.053      870.202      918.723      786.989        0.311        0.129       43.135       25.621        0.353      334.901        5.179      867.625
11/11/2013  07:57:00       39.968       33.163       28.328       26.316       26.326       21.457      692.521      693.042      460.399        0.267        0.092       51.934       17.854        0.118      334.837        5.074      867.610
11/11/2013  07:58:00       52.746       31.071       20.119       18.450       22.153       19.022      340.405      490.772      361.818        0.267        0.060       61.217        5.310        0.008      334.790        4.997      867.595
11/11/2013  07:59:00       30.970       34.162       -4.529       18.037       17.739       16.251      325.331      314.661      264.097        0.153        0.045       46.110       11.217        0.059      334.894        5.168      867.592
11/11/2013  08:00:00       13.430       23.922        5.251       19.699       19.767       15.613      388.066      390.715      243.761        0.090        0.051       27.434       13.498        0.242      335.111        5.528      867.605
11/11/2013  08:01:00       -5.102        1.344        3.262       20.531        9.893        7.699      421.525       97.879       59.269        0.031        0.029        5.276        9.741        3.409      335.090        5.493      867.622
11/11/2013  08:02:00      -23.244       -1.748       -4.502        7.579        5.505        6.708       57.441       30.304       44.995        0.035        0.007       23.310        6.170        0.070      334.936        5.238      867.635
11/11/2013  08:03:00      -25.392        3.314       -3.500        7.589        6.435        4.204       57.598       41.404       17.675        0.039        0.006       25.607        3.037        0.014      334.898        5.175      867.643
11/11/2013  08:04:00      -20.201        8.513       -0.511       17.515       11.651        9.018      306.781      135.751       81.327        0.050        0.026       21.921        6.007        0.075      335.021        5.380      867.659
11/11/2013  08:05:00      -25.982       -0.699        0.309        8.507        4.815        3.872       72.367       23.188       14.992        0.039        0.006       25.991        3.091        0.014      334.996        5.338      867.669
11/11/2013  08:06:00      -51.363      -15.473       -5.136        9.576        8.868        6.431       91.698       78.642       41.358        0.156        0.011       53.643        4.144        0.006      335.005        5.354      867.683
11/11/2013  08:07:00      -33.330      -21.625       -3.936        8.193        6.450        8.880       67.120       41.600       78.852        0.089        0.009       39.731        4.842        0.015      335.103        5.516      867.688
11/11/2013  08:08:00      -37.024      -12.589       -4.642        8.830       12.605        8.923       77.964      158.881       79.617        0.093        0.016       39.106        6.661        0.029      335.108        5.523      867.695
11/11/2013  08:09:00      -27.387       -3.234       -4.824        9.474        7.359        8.742       89.763       54.154       76.419        0.050        0.011       27.578        6.359        0.053      335.173        5.630      867.698
11/11/2013  08:10:00      -43.443       -1.828      -11.398       12.028       13.257        7.652      144.669      175.753       58.558        0.120        0.019       43.482        8.780        0.041      335.158        5.607      867.690
11/11/2013  08:11:00      -47.834      -18.497      -10.038        8.078        8.352        5.101       65.254       69.762       26.015        0.145        0.008       51.286        1.905        0.001      335.136        5.570      867.691
11/11/2013  08:12:00      -42.256        5.311       -6.485       10.481       13.613       11.711      109.859      185.315      137.149        0.114        0.022       42.589        7.416        0.030      335.175        5.635      867.692
11/11/2013  08:13:00      -37.250      -18.182       -6.124       11.516       14.354        8.659      132.609      206.043       74.974        0.108        0.021       41.451        6.345        0.023      335.211        5.693      867.689
11/11/2013  08:14:00      -74.833       -1.500       -9.900       15.944       14.804       10.796      254.201      219.148      116.546        0.314        0.029       74.848        8.256        0.012      335.191        5.660      867.683
11/11/2013  08:15:00      -65.512       10.426       -4.458       25.521       26.389       15.341      651.297      696.401      235.345        0.300        0.079       66.337       12.725        0.037      335.288        5.820      867.672
11/11/2013  08:16:00      -45.845       40.835       -5.898       21.422       22.552       18.162      458.916      508.598      329.870        0.255        0.065       61.394       12.497        0.041      335.491        6.161      867.665
11/11/2013  08:17:00      -64.692       14.427       -9.911       23.994       31.483       16.561      575.707      991.184      274.260        0.317        0.092       66.282       13.714        0.043      335.437        6.070      867.662
11/11/2013  08:18:00      -58.992      -44.965       -9.641       13.550       13.908       11.025      183.614      193.429      121.560        0.305        0.025       74.175        6.310        0.007      335.400        6.008      867.651
11/11/2013  08:19:00      -38.768      -70.125       -1.760       21.145       21.969       14.382      447.128      482.623      206.832        0.378        0.057       80.128        5.726        0.005      335.423        6.047      867.646
11/11/2013  08:20:00      -46.318      -27.565        1.803       29.583       21.495       15.327      875.181      462.033      234.907        0.224        0.079       53.900       15.972        0.088      335.539        6.240      867.644
11/11/2013  08:21:00     -120.986      -34.759       -6.482       28.982       21.224       15.788      839.980      450.468      249.254        0.871        0.077      125.880        8.868        0.005      335.405        6.018      867.643
11/11/2013  08:22:00     -113.246      -42.577        2.854       32.480       26.184       24.709     1054.948      685.628      610.541        0.850        0.118      120.985       21.761        0.032      335.388        5.989      867.636
11/11/2013  08:23:00     -102.380      -30.146       -3.146       30.766       27.888       19.608      946.570      777.762      384.481        0.675        0.105      106.726       16.164        0.023      335.421        6.046      867.633
11/11/2013  08:24:00     -127.217      -29.353       -7.269       29.606       14.925       12.560      876.491      222.743      157.759        0.918        0.063      130.559        8.748        0.004      335.392        5.996      867.641
11/11/2013  08:25:00      -63.226      -34.772       -2.632       35.378       27.578       18.799     1251.580      760.551      353.399        0.379        0.118       72.157       23.663        0.108      335.584        6.315      867.645
11/11/2013  08:26:00      -99.468      -42.497        3.689       44.327       36.475       27.446     1964.865     1330.459      753.302        0.788        0.202      108.166       28.800        0.071      335.597        6.336      867.642
11/11/2013  08:27:00     -125.294        4.130      -14.984       14.472       19.430        9.931      209.438      377.534       98.634        0.831        0.034      125.362        7.759        0.004      335.495        6.167      867.632
11/11/2013  08:28:00     -108.252       12.984      -11.941       14.126       15.549        7.714      199.532      241.765       59.502        0.627        0.025      109.028        4.954        0.002      335.517        6.205      867.618
11/11/2013  08:29:00      -53.770        3.242      -12.022       34.365       26.523        9.192     1180.920      703.473       84.493        0.251        0.098       53.868       13.296        0.061      335.671        6.462      867.618
11/11/2013  08:30:00      -37.381      -40.739        8.583       35.541       19.031       17.391     1263.162      362.165      302.456        0.253        0.096       55.291       21.372        0.149      335.817        6.704      867.620
11/11/2013  08:31:00      -23.350      -40.746        2.939       38.436       40.322       26.910     1477.353     1625.842      724.160        0.302        0.191       46.962       31.113        0.439      335.904        6.850      867.620
11/11/2013  08:32:00      -71.618      -48.657       10.862       53.446       36.120       24.947     2856.469     1304.631      622.357        0.620        0.239       86.583       25.472        0.087      335.784        6.649      867.621
11/11/2013  08:33:00      -40.429      -66.825        5.808       39.574       45.106       28.364     1566.126     2034.589      804.540        0.527        0.220       78.103       29.791        0.145      335.768        6.622      867.622
11/11/2013  08:34:00      -91.106      -85.143       -4.127       46.406       22.122       22.744     2153.563      489.374      517.297        0.936        0.158      124.699       10.209        0.007      335.768        6.623      867.602
11/11/2013  08:35:00     -121.876      -55.320       -2.829       33.957       28.799       23.044     1153.106      829.403      531.009        1.022        0.126      133.843       18.070        0.018      335.780        6.642      867.597
11/11/2013  08:36:00     -116.680      -54.201       -7.016       27.140       19.285       16.234      736.580      371.895      263.551        0.899        0.069      128.654       15.786        0.015      335.856        6.768      867.588
11/11/2013  08:37:00      -61.445      -35.457        3.679       53.692       30.240       26.081     2882.855      914.488      680.204        0.476        0.224       70.942       30.710        0.187      336.027        7.054      867.584
11/11/2013  08:38:00     -111.224      -42.981      -13.455       33.043       22.787       14.741     1091.823      519.244      217.310        0.811        0.091      119.240       16.475        0.019      335.929        6.890      867.578
11/11/2013  08:39:00      -46.472      -18.894        9.700       49.229       22.187       15.691     2423.512      492.242      246.198        0.289        0.158       50.166       19.174        0.146      336.048        7.090      867.570
11/11/2013  08:40:00      -24.326      -78.916       -0.001       17.539       21.366       12.599      307.612      456.509      158.728        0.387        0.046       82.580        9.526        0.013      336.009        7.022      867.549
11/11/2013  08:41:00      -17.609      -56.386       -1.425       29.140       18.245       20.599      849.119      332.888      424.338        0.255        0.080       59.072       13.950        0.056      336.066        7.116      867.542
11/11/2013  08:42:00      -37.956      -83.658      -10.801       27.261       20.164       15.784      743.178      406.586      249.150        0.498        0.070       91.866       15.591        0.029      336.065        7.117      867.540
11/11/2013  08:43:00      -51.760      -48.934       -1.987       32.195       20.528       20.599     1036.531      421.401      424.300        0.348        0.094       71.230       21.403        0.090      336.171        7.294      867.533
11/11/2013  08:44:00      -29.377      -62.021       -0.023       16.220       16.393       12.609      263.086      268.719      158.983        0.270        0.035       68.626        6.702        0.010      336.130        7.225      867.520
11/11/2013  08:45:00      -35.372      -31.904       -0.903       13.762       13.622        7.552      189.384      185.550       57.037        0.135        0.022       47.634        6.306        0.018      336.220        7.374      867.514
11/11/2013  08:46:00      -18.132      -38.978        4.677       16.705       16.769       15.193      279.046      281.210      230.816        0.133        0.040       42.989        6.296        0.021      336.344        7.581      867.501
11/11/2013  08:47:00      -15.247      -37.780       -3.562       15.269       22.997       10.390      233.138      528.843      107.945        0.127        0.043       40.741       14.054        0.119      336.413        7.699      867.490
11/11/2013  08:48:00      -11.617      -33.003       -0.685       16.036       12.982        9.290      257.159      168.534       86.301        0.087        0.026       34.988        6.451        0.034      336.444        7.750      867.488
11/11/2013  08:49:00      -17.873      -30.540       -1.232       17.405       17.084       12.283      302.948      291.860      150.870        0.100        0.037       35.386        8.716        0.061      336.462        7.780      867.481
11/11/2013  08:50:00      -11.324      -28.979       -3.034        9.382       15.382        6.613       88.021      236.604       43.738        0.067        0.018       31.113        2.500        0.006      336.489        7.825      867.478
11/11/2013  08:51:00      -34.907      -47.387       -3.712       12.073       25.284        9.952      145.755      639.300       99.051        0.218        0.044       58.856        8.322        0.020      336.471        7.796      867.479
11/11/2013  08:52:00      -49.294      -63.457       -0.622       18.571       14.122       14.036      344.898      199.420      196.997        0.360        0.037       80.354       11.824        0.022      336.467        7.788      867.466
11/11/2013  08:53:00      -59.384      -51.082       -0.866       26.783       20.562       14.587      717.315      422.799      212.778        0.374        0.068       78.331       15.211        0.038      336.542        7.915      867.445
11/11/2013  08:54:00      -32.620      -40.553        0.936       24.254       17.534       17.830      588.273      307.441      317.906        0.196        0.061       52.044       16.552        0.101      336.639        8.076      867.422
11/11/2013  08:55:00      -20.358      -45.272       -1.331       19.009       14.183       13.478      361.328      201.165      181.659        0.160        0.037       49.638       13.576        0.075      336.638        8.077      867.404
11/11/2013  08:56:00      -39.664      -30.380       -5.426       14.323       15.376        9.428      205.148      236.424       88.886        0.153        0.027       49.962        6.135        0.015      336.691        8.164      867.384
11/11/2013  08:57:00      -39.422      -43.429       -3.071       26.458       29.310       14.010      700.044      859.065      196.275        0.260        0.088       58.653       12.152        0.043      336.743        8.250      867.376
11/11/2013  08:58:00      -32.816      -59.122       -3.899       17.343       17.739       15.267      300.766      314.687      233.095        0.272        0.042       67.619       12.730        0.035      336.718        8.208      867.374
11/11/2013  08:59:00      -40.759      -66.452       -3.916       12.215       17.423        8.839      149.206      303.547       78.122        0.331        0.027       77.956        7.018        0.008      336.686        8.156      867.367
11/11/2013  09:00:00      -55.032      -69.467       -9.737       22.973       19.735       11.942      527.765      389.469      142.607        0.450        0.053       88.624       12.942        0.021      336.779        8.310      867.364
11/11/2013  09:01:00      -29.966      -68.297       -7.669       14.126       19.264       11.770      199.533      371.104      138.527        0.317        0.035       74.582        4.987        0.004      336.805        8.354      867.356
11/11/2013  09:02:00      -41.355      -68.028       -5.999       15.780       17.004       19.796      249.015      289.142      391.889        0.365        0.047       79.611        7.738        0.009      336.884        8.487      867.344
11/11/2013  09:03:00      -36.786      -71.451       -9.509       13.073       16.753        8.258      170.903      280.650       68.190        0.353        0.026       80.365        5.331        0.004      336.858        8.441      867.344
11/11/2013  09:04:00      -55.230      -79.071       -4.540       21.228       38.044       17.761      450.642     1447.318      315.462        0.577        0.111       96.450       15.427        0.026      336.915        8.537      867.351
11/11/2013  09:05:00      -68.710      -48.491       -5.189       31.195       23.166       18.882      973.148      536.667      356.523        0.448        0.093       84.097       19.974        0.056      336.966        8.622      867.355
11/11/2013  09:06:00      -43.764      -83.599        2.275       30.029       29.488       18.543      901.754      869.551      343.842        0.551        0.106       94.361       15.517        0.027      336.953        8.599      867.367
11/11/2013  09:07:00      -37.400      -48.400        2.375       13.901       43.688       13.575      193.241     1908.667      184.281        0.302        0.114       61.166        7.777        0.016      336.986        8.655      867.372
11/11/2013  09:08:00      -48.474      -19.389        0.233       17.108       13.140       11.361      292.670      172.666      129.072        0.166        0.030       52.208        9.314        0.032      337.144        8.919      867.371
11/11/2013  09:09:00      -24.667      -28.050       22.230       21.550       22.096       15.383      464.396      488.234      236.640        0.154        0.059       37.353        9.943        0.071      337.561        9.620      867.365
11/11/2013  09:10:00        7.061       45.371       47.367       23.866       26.491       17.933      569.589      701.757      321.604        0.297        0.080       45.918        7.108        0.024      337.845       10.094      867.369
11/11/2013  09:11:00       27.109       44.174       63.743       36.182       35.645       24.094     1309.107     1270.547      580.543        0.495        0.158       51.829       15.331        0.087      337.818       10.048      867.370
11/11/2013  09:12:00       -9.272       -4.982       38.470       18.571       23.922       13.655      344.875      572.262      186.471        0.135        0.055       10.525        9.105        0.748      338.092       10.508      867.362
11/11/2013  09:13:00      -32.517      -22.508        8.441       17.390       13.838       12.462      302.406      191.500      155.308        0.114        0.032       39.546       11.520        0.085      337.623        9.722      867.367
11/11/2013  09:14:00       -4.506       -4.495       32.720       23.715       34.966       23.406      562.389     1222.630      547.843        0.172        0.117        6.365       22.137       12.096      338.150       10.605      867.359
11/11/2013  09:15:00       28.358        7.290       51.456       47.162       55.382       49.326     2224.298     3067.214     2433.047        0.561        0.386       29.280       47.553        2.638      337.987       10.334      867.340
11/11/2013  09:16:00       62.710      -62.275       -3.473       45.829       71.997       44.572     2100.330     5183.548     1986.641        0.855        0.464       88.378       41.217        0.218      337.816       10.046      867.317
11/11/2013  09:17:00       11.755       32.660       74.121       42.342       43.383       30.175     1792.818     1882.107      910.519        0.564        0.229       34.711       27.078        0.609      338.092       10.510      867.306
11/11/2013  09:18:00       30.901       37.066       73.305       41.772       47.606       36.623     1744.905     2266.321     1341.247        0.653        0.268       48.258       26.575        0.303      337.891       10.170      867.318
11/11/2013  09:19:00       17.914       55.538       48.082       34.327       36.635       32.789     1178.342     1342.145     1075.120        0.466        0.180       58.356       29.559        0.257      337.688        9.831      867.339
11/11/2013  09:20:00       19.799      -24.392       32.382       32.182       58.476       36.513     1035.710     3419.387     1333.193        0.391        0.289       31.416       38.564        1.507      338.019       10.387      867.349
11/11/2013  09:21:00       37.981        8.257       49.844       47.256       58.525       44.429     2233.139     3425.204     1973.945        0.581        0.382       38.868       43.977        1.280      337.872       10.141      867.363
11/11/2013  09:22:00       70.407       58.348       49.626       36.971       33.054       38.108     1366.822     1092.534     1452.191        0.737        0.196       91.442       25.736        0.079      337.505        9.525      867.382
11/11/2013  09:23:00       54.112       58.293       51.283       53.881       31.477       31.719     2903.130      990.771     1006.097        0.693        0.245       79.537       33.416        0.177      337.741        9.921      867.385
11/11/2013  09:24:00       22.030       -4.718       41.339       22.951       24.361       19.011      526.759      593.443      361.407        0.185        0.074       22.530       15.358        0.465      338.160       10.623      867.404
11/11/2013  09:25:00       -2.553       14.261       47.926       16.086       38.640       21.516      258.762     1493.063      462.943        0.236        0.111       14.488       20.450        1.992      338.279       10.821      867.416
11/11/2013  09:26:00       16.999      -61.056       25.768       38.447       48.438       38.312     1478.180     2346.249     1467.837        0.499        0.265       63.379       23.161        0.134      338.002       10.357      867.410
11/11/2013  09:27:00       30.936      -59.514       22.697       31.567       50.046       31.357      996.507     2504.634      983.286        0.475        0.224       67.074       33.007        0.242      337.936       10.246      867.411
11/11/2013  09:28:00       14.230       24.334       44.576       33.050       27.223       28.568     1092.329      741.078      816.117        0.272        0.132       28.189       18.676        0.439      338.183       10.661      867.410
11/11/2013  09:29:00       25.838       33.207       40.787       34.278       31.211       30.419     1174.954      974.116      925.335        0.325        0.154       42.075       24.221        0.331      338.000       10.355      867.404
11/11/2013  09:30:00       67.892       65.062       17.291       37.764       31.598       31.997     1426.084      998.449     1023.805        0.629        0.172       94.034       17.445        0.034      337.722        9.888      867.408
11/11/2013  09:31:00       76.928       57.495       23.581       13.256       12.153       21.997      175.721      147.702      483.870        0.529        0.040       96.039        8.980        0.009      337.491        9.501      867.410
11/11/2013  09:32:00       40.542       26.627       29.108       31.410       40.112       25.292      986.606     1608.977      639.673        0.322        0.162       48.504       17.061        0.124      337.918       10.217      867.420
11/11/2013  09:33:00       13.352       56.338       72.658       36.118       48.003       18.391     1304.539     2304.269      338.236        0.629        0.197       57.899       20.539        0.126      338.037       10.416      867.430
11/11/2013  09:34:00       64.158       80.366       71.362       28.974       18.900       21.227      839.510      357.220      450.585        0.866        0.082      102.835       11.754        0.013      337.723        9.888      867.429
11/11/2013  09:35:00       55.616       83.690       72.451       34.520       23.377       23.801     1191.598      546.475      566.471        0.883        0.115      100.485       17.612        0.031      337.828       10.067      867.425
11/11/2013  09:36:00       76.396       66.926       16.833       28.689       35.662       29.272      823.075     1271.787      856.864        0.677        0.148      101.565       16.680        0.027      337.933       10.241      867.421
11/11/2013  09:37:00       25.378       38.116       33.206       43.942       29.796       31.842     1930.862      887.787     1013.938        0.352        0.192       45.792       23.865        0.272      338.279       10.823      867.415
11/11/2013  09:38:00       27.474       47.809       34.951       32.438       32.695       27.407     1052.219     1068.992      751.145        0.357        0.144       55.141       20.335        0.136      338.199       10.688      867.415
11/11/2013  09:39:00        6.694       17.234        8.079       29.649       26.087       16.400      879.062      680.528      268.967        0.112        0.091       18.488        9.483        0.263      338.467       11.138      867.422
11/11/2013  09:40:00       33.615       22.751       33.964       25.818       23.230       16.609      666.563      539.653      275.857        0.214        0.074       40.590       12.143        0.089      338.454       11.117      867.427
11/11/2013  09:41:00       27.348       38.882       34.136       24.859       29.099       32.563      617.966      846.763     1060.341        0.297        0.126       47.537       24.079        0.257      338.473       11.149      867.434
11/11/2013  09:42:00       32.004       30.457       38.727       21.470       22.932       18.298      460.979      525.865      334.800        0.239        0.066       44.180       14.548        0.108      338.365       10.966      867.438
11/11/2013  09:43:00        2.644       50.173       -2.679       24.775       27.731       18.740      613.812      768.996      351.183        0.213        0.087       50.243       11.052        0.048      338.396       11.019      867.437
11/11/2013  09:44:00       -0.988       94.836       -0.554       23.123       38.672       22.982      534.651     1495.516      528.192        0.578        0.128       94.841       21.677        0.052      338.326       10.900      867.439
11/11/2013  09:45:00       -7.648       69.372       10.050       20.073       34.125       28.804      402.943     1164.498      829.665        0.368        0.120       69.792       22.011        0.099      338.499       11.193      867.424
11/11/2013  09:46:00        2.508       34.962       18.066       23.511       39.136       22.229      552.758     1531.657      494.139        0.207        0.129       35.051       21.094        0.362      338.704       11.536      867.417
11/11/2013  09:47:00       23.861       32.812        0.997       25.748       32.679       23.615      662.954     1067.899      557.646        0.197        0.114       40.571       19.722        0.236      338.415       11.051      867.414
11/11/2013  09:48:00        9.809       47.495        6.996       23.898       41.583       24.148      571.129     1729.183      583.124        0.264        0.144       48.498       24.156        0.248      338.585       11.336      867.411
11/11/2013  09:49:00        8.289       56.978        5.397       30.594       38.726       23.053      935.988     1499.680      531.439        0.316        0.148       57.578       23.881        0.172      338.583       11.333      867.398
11/11/2013  09:50:00        6.352       26.415       13.934       24.660       28.069       22.738      608.125      787.845      517.022        0.142        0.096       27.168       20.716        0.581      338.890       11.849      867.407
11/11/2013  09:51:00      -11.926       58.006       -6.345       30.089       36.163       25.714      905.327     1307.776      661.230        0.321        0.144       59.220       22.211        0.141      338.573       11.317      867.410
11/11/2013  09:52:00      -55.033       19.663       -2.899       19.718       19.964       18.231      388.784      398.561      332.384        0.227        0.056       58.440       16.660        0.081      338.372       10.980      867.413
11/11/2013  09:53:00      -53.986       19.075      -14.725        9.850       11.903        7.163       97.025      141.686       51.314        0.189        0.015       57.257        4.456        0.006      338.152       10.610      867.432
11/11/2013  09:54:00       -9.729       28.712      -15.192       24.202       16.661       10.952      585.729      277.596      119.944        0.107        0.049       30.316        2.897        0.009      338.480       11.160      867.427
11/11/2013  09:55:00      -22.255       30.904        4.748       14.851       25.168       19.776      220.556      633.412      391.090        0.136        0.062       38.083       17.549        0.212      338.765       11.639      867.418
11/11/2013  09:56:00       -9.805       10.985       12.980       14.204       14.386       15.732      201.756      206.963      247.488        0.052        0.033       14.724        9.491        0.416      339.261       12.474      867.420
11/11/2013  09:57:00      -14.901       17.569       13.168       16.266       21.515       19.357      264.570      462.909      374.690        0.090        0.055       23.038       11.409        0.245      338.998       12.032      867.423
11/11/2013  09:58:00      -10.475       12.321        6.841       22.887       23.487       17.180      523.821      551.639      295.144        0.084        0.069       16.172       11.824        0.535      338.984       12.009      867.419
11/11/2013  09:59:00       -3.174       32.529       25.015       21.781       31.144       29.417      474.397      969.931      865.381        0.200        0.115       32.684       19.066        0.340      338.969       11.981      867.422
11/11/2013  10:00:00      -10.420       10.674       39.821       20.483       29.955       29.192      419.549      897.327      852.156        0.199        0.108       14.917       21.440        2.066      338.978       11.996      867.434
11/11/2013  10:01:00      -32.154       18.709       14.085       19.770       23.331       30.600      390.871      544.328      936.364        0.173        0.094       37.201       24.049        0.418      338.732       11.583      867.451
11/11/2013  10:02:00      -20.069       -4.372       16.143       16.824       32.077       21.651      283.036     1028.923      468.757        0.123        0.089       20.540       16.633        0.656      338.935       11.924      867.461
11/11/2013  10:03:00      -13.629       17.624       43.259       13.855       21.906       16.356      191.973      479.867      267.521        0.165        0.047       22.279       15.686        0.496      339.336       12.600      867.468
11/11/2013  10:04:00      -17.788        3.571       15.245       10.488       10.266       13.797      110.007      105.389      190.357        0.048        0.020       18.143        8.729        0.231      339.130       12.252      867.458
11/11/2013  10:05:00      -44.741       15.930       -4.085       18.210       18.849       20.467      331.621      355.299      418.904        0.169        0.055       47.492        7.055        0.022      338.645       11.438      867.456
11/11/2013  10:06:00      -36.522        3.336      -12.035       15.834       17.267       12.364      250.716      298.161      152.869        0.110        0.035       36.674        4.724        0.017      338.735       11.590      867.457
11/11/2013  10:07:00      -26.068       -3.666      -12.924       15.590       15.749       14.520      243.061      248.032      210.841        0.078        0.035       26.325        7.407        0.079      338.849       11.780      867.460
11/11/2013  10:08:00        1.839        8.492       31.776       16.692       33.137       30.948      278.614     1098.069      957.777        0.171        0.117        8.688       26.438        9.259      339.375       12.666      867.469
11/11/2013  10:09:00       68.113      -77.418        4.817       52.740       54.353       45.305     2781.546     2954.228     2052.548        0.922        0.389      103.116       47.010        0.208      339.145       12.278      867.462
11/11/2013  10:10:00       58.525      -18.951       30.272       42.135       31.120       29.773     1775.364      968.458      886.439        0.416        0.182       61.517       18.129        0.087      339.268       12.485      867.457
11/11/2013  10:11:00       27.292       16.402       36.206       25.971       47.803       30.155      674.494     2285.087      909.302        0.310        0.193       31.842       20.944        0.433      339.282       12.508      867.447
11/11/2013  10:12:00       24.974      -30.282       14.598       34.100       47.659       30.196     1162.836     2271.376      911.800        0.305        0.217       39.252       26.847        0.468      339.431       12.761      867.450
11/11/2013  10:13:00       50.844      -80.180       -9.115       37.999       35.602       26.080     1443.943     1267.533      680.186        0.624        0.170       94.942       15.192        0.026      339.096       12.195      867.457
11/11/2013  10:14:00        8.341       27.843       30.086       30.575       28.370       27.326      934.804      804.861      746.693        0.212        0.124       29.066       26.208        0.813      339.317       12.567      867.465
11/11/2013  10:15:00       16.064       41.521       39.990       18.827       22.955       21.862      354.440      526.945      477.944        0.247        0.068       44.520       11.045        0.062      339.275       12.497      867.466
11/11/2013  10:16:00       12.835        2.534       26.690       14.771       21.225       16.891      218.180      450.512      285.306        0.092        0.048       13.083       13.001        0.988      339.611       13.063      867.487
11/11/2013  10:17:00       18.675       24.080       17.910       23.736       26.250       21.833      563.394      689.045      476.669        0.149        0.086       30.473       19.959        0.429      339.485       12.851      867.489
11/11/2013  10:18:00       16.816      -11.538       49.933       27.304       53.170       26.002      745.489     2827.039      676.123        0.358        0.212       20.394        5.816        0.081      339.924       13.592      867.503
11/11/2013  10:19:00       -2.225       41.237       68.742       30.357       45.773       29.646      921.574     2095.183      878.884        0.516        0.195       41.297       25.919        0.394      339.710       13.229      867.506
11/11/2013  10:20:00      -10.245       20.981       56.297       28.506       43.903       33.319      812.575     1927.511     1110.156        0.378        0.193       23.349       30.717        1.731      339.634       13.103      867.509
11/11/2013  10:21:00        8.092       42.117       73.169       33.424       36.595       28.535     1117.176     1339.188      814.240        0.523        0.164       42.887       24.208        0.319      339.739       13.279      867.510
11/11/2013  10:22:00        9.056       22.815       63.086       23.569       53.547       29.524      555.510     2867.234      871.671        0.444        0.215       24.547       33.198        1.829      339.641       13.113      867.524
11/11/2013  10:23:00       37.614       42.373       50.743       31.562       47.621       27.352      996.137     2267.766      748.115        0.490        0.201       56.660       30.442        0.289      339.362       12.643      867.519
11/11/2013  10:24:00       39.032       55.336       11.676       28.166       32.689       29.523      793.334     1068.602      871.590        0.373        0.137       67.717       26.070        0.148      339.548       12.958      867.514
11/11/2013  10:25:00       16.453       43.043       13.471       34.747       32.001       27.166     1207.342     1024.076      737.968        0.264        0.148       46.081       15.550        0.114      339.645       13.119      867.496
11/11/2013  10:26:00        3.978       24.835       25.353       24.497       30.414       23.531      600.127      925.034      553.720        0.168        0.104       25.152       16.143        0.412      339.941       13.619      867.487
11/11/2013  10:27:00       39.948       33.350        4.516       39.699       27.009       23.710     1575.975      729.495      562.143        0.280        0.143       52.039       12.447        0.057      339.820       13.416      867.469
11/11/2013  10:28:00      -17.920        7.450        6.228       20.355       33.974       22.717      414.341     1154.222      516.041        0.125        0.104       19.407        8.240        0.180      339.898       13.547      867.456
11/11/2013  10:29:00       45.070       86.627        7.515       33.727       43.662       37.345     1137.536     1906.381     1394.613        0.701        0.222       97.649       25.949        0.071      339.608       13.058      867.445
11/11/2013  10:30:00       19.994       50.295        7.811       33.578       44.770       35.940     1127.505     2004.332     1291.649        0.371        0.221       54.124       33.848        0.391      339.786       13.358      867.431
11/11/2013  10:31:00       85.223       76.221       24.923       64.197       34.133       42.228     4121.210     1165.076     1783.208        1.038        0.353      114.336       29.155        0.065      339.497       12.871      867.420
11/11/2013  10:32:00      157.179      112.555       75.845       63.453       51.353       54.151     4026.311     2637.177     2932.304        2.636        0.480      193.323       16.898        0.008      339.507       12.885      867.397
11/11/2013  10:33:00       35.543      104.697      111.788       75.569       75.588       72.843     5710.654     5713.560     5306.085        2.072        0.837      110.566       70.447        0.406      339.573       12.996      867.394
11/11/2013  10:34:00       74.800       88.366      112.968       63.518       61.669       46.810     4034.517     3803.090     2191.217        1.810        0.501      115.774       44.820        0.150      339.418       12.736      867.384
11/11/2013  10:35:00       18.502       42.679       78.089       51.668       49.772       36.043     2669.599     2477.218     1299.107        0.735        0.322       46.517       34.187        0.540      339.793       13.370      867.396
11/11/2013  10:36:00       29.920       90.052       98.909       46.221       46.184       30.578     2136.367     2132.928      935.034        1.200        0.260       94.892       22.493        0.056      339.699       13.211      867.390
11/11/2013  10:37:00      104.417       69.766       27.315       47.449       40.580       40.995     2251.419     1646.759     1680.623        1.105        0.279      125.580       25.934        0.043      339.643       13.117      867.397
11/11/2013  10:38:00      119.281       73.402       40.555       76.022       53.120       49.033     5779.417     2821.742     2404.273        1.613        0.550      140.056       34.476        0.061      339.582       13.013      867.395
11/11/2013  10:39:00      150.653       91.486       64.336       75.913       87.581       65.717     5762.740     7670.513     4318.668        2.648        0.888      176.255       50.298        0.081      339.388       12.684      867.401
11/11/2013  10:40:00      166.235      137.153       74.414       64.241       45.520       57.388     4126.844     2072.104     3293.332        3.074        0.475      215.511       41.485        0.037      339.396       12.697      867.396
11/11/2013  10:41:00      120.469       76.302       52.417       96.822       83.176       55.758     9374.498     6918.320     3108.955        2.124        0.970      142.600       46.545        0.107      339.542       12.944      867.391
11/11/2013  10:42:00       80.926       93.977      127.158       94.848       85.347       59.576     8996.226     7284.181     3549.317        2.569        0.991      124.019       59.802        0.233      339.616       13.069      867.366
11/11/2013  10:43:00      128.075      122.479       84.980       92.925       66.640       57.311     8635.148     4440.827     3284.550        2.749        0.818      177.213       44.913        0.064      339.649       13.124      867.354
11/11/2013  10:44:00       12.609      133.734      117.722       53.133       54.788       46.724     2823.087     3001.778     2183.164        1.995        0.400      134.327       26.258        0.038      339.950       13.632      867.315
11/11/2013  10:45:00      107.439      109.763       74.291      104.196       66.173       60.915    10856.784     4378.880     3710.680        2.403        0.947      153.594       49.749        0.105      340.031       13.769      867.298
11/11/2013  10:46:00      136.509      140.970      100.470       91.450       63.531       67.382     8363.071     4036.169     4540.396        3.277        0.847      196.232       38.341        0.038      339.912       13.568      867.281
11/11/2013  10:47:00       99.738      103.246       85.126       72.436       45.835       50.525     5246.923     2100.889     2552.783        1.888        0.495      143.553       40.950        0.081      339.716       13.239      867.268
11/11/2013  10:48:00       53.862       75.738       99.379       71.976       71.770       62.676     5180.602     5150.958     3928.286        1.638        0.713       92.938       53.859        0.336      339.988       13.697      867.259
11/11/2013  10:49:00      153.665      105.406      110.309      100.408       72.980       68.136    10081.749     5326.093     4642.454        3.347        1.003      186.342       57.044        0.094      339.732       13.265      867.250
11/11/2013  10:50:00      156.449      128.370       79.931       93.095       70.207       78.375     8666.755     4929.089     6142.698        3.354        0.987      202.374       52.400        0.067      339.810       13.396      867.227
11/11/2013  10:51:00      107.748      121.022      127.788       93.538       79.365       66.718     8749.389     6298.732     4451.346        3.104        0.975      162.037       64.973        0.161      340.052       13.802      867.220
11/11/2013  10:52:00      124.883      124.225       92.607      105.618       78.225       84.963    11155.069     6119.085     7218.788        3.204        1.225      176.146       73.985        0.176      339.943       13.619      867.218
11/11/2013  10:53:00      131.187      153.039      132.471      105.472       86.787       79.686    11124.333     7531.929     6349.859        4.159        1.250      201.571       68.866        0.117      339.965       13.656      867.197
11/11/2013  10:54:00      145.408      133.788      120.750       81.070       57.150       52.970     6572.417     3266.135     2805.840        3.313        0.632      197.593       47.071        0.057      339.913       13.569      867.188
11/11/2013  10:55:00       95.278      104.174       94.563      122.726       84.521       62.552    15061.759     7143.836     3912.801        2.749        1.306      141.174       48.890        0.120      340.248       14.135      867.190
11/11/2013  10:56:00       92.545       95.994      108.638       77.415       54.672       38.174     5993.026     2989.045     1457.244        2.001        0.522      133.340       23.531        0.031      340.226       14.099      867.200
11/11/2013  10:57:00       90.241       16.329      105.850       72.032      149.838       78.409     5188.674    22451.405     6147.992        2.670        1.689       91.707       88.914        0.940      340.212       14.073      867.169
11/11/2013  10:58:00      144.334       28.636       87.764      101.238      102.707       69.925    10249.035    10548.640     4889.528        2.752        1.284      147.147       63.451        0.186      340.045       13.792      867.179
11/11/2013  10:59:00      174.652      122.646       87.514      110.903       71.774       83.746    12299.583     5151.449     7013.473        3.883        1.223      213.413       73.339        0.118      340.030       13.765      867.179
11/11/2013  11:00:00      158.846      160.443      122.658      108.916       86.149       82.866    11862.767     7421.645     6866.830        4.608        1.308      225.775       68.898        0.093      339.959       13.644      867.184
11/11/2013  11:01:00      130.208      117.582       96.555      110.006       93.464       75.633    12101.338     8735.567     5720.363        3.333        1.328      175.441       73.071        0.173      339.975       13.674      867.182
11/11/2013  11:02:00      104.725       91.805       95.889      101.794       80.260       83.042    10362.033     6441.595     6896.025        2.614        1.185      139.268       80.690        0.336      340.122       13.923      867.163
11/11/2013  11:03:00      119.649      171.961      143.220       58.636       68.922       50.865     3438.128     4750.263     2587.258        3.759        0.539      209.491       40.082        0.037      339.950       13.632      867.152
11/11/2013  11:04:00      115.796      168.090      146.382       80.772       85.780       69.584     6524.130     7358.126     4841.867        4.090        0.936      204.115       56.768        0.077      340.184       14.026      867.137
11/11/2013  11:05:00      170.229      126.993       90.770      127.904       76.552       84.021    16359.443     5860.161     7059.595        4.131        1.464      212.380       81.559        0.147      339.970       13.665      867.132
11/11/2013  11:06:00      113.784      147.585      154.050       96.021       84.970       61.328     9220.021     7219.970     3761.139        3.933        1.010      186.355       63.300        0.115      339.968       13.661      867.127
11/11/2013  11:07:00      153.658      165.450      164.874       96.173      103.528       68.582     9249.265    10718.086     4703.458        5.142        1.234      225.798       68.201        0.091      339.971       13.666      867.109
11/11/2013  11:08:00      116.173      163.411      146.214       65.324       64.908       59.670     4267.189     4213.095     3560.553        3.681        0.602      200.497       44.875        0.050      339.936       13.607      867.124
11/11/2013  11:09:00      133.454      124.486       99.256      106.531       82.552       83.179    11348.896     6814.776     6918.675        3.412        1.254      182.501       76.613        0.176      340.039       13.781      867.134
11/11/2013  11:10:00       61.836       84.487      111.268       78.632       68.333       53.974     6183.015     4669.383     2913.241        1.855        0.688      104.698       57.375        0.300      340.335       14.283      867.155
11/11/2013  11:11:00       82.931      108.268      121.978       67.561       63.664       51.649     4564.504     4053.076     2667.590        2.238        0.564      136.380       43.522        0.102      340.351       14.309      867.153
11/11/2013  11:12:00      102.465      103.462       96.360       95.118       53.533       64.482     9047.394     2865.789     4157.874        2.328        0.804      145.614       66.177        0.207      340.414       14.416      867.168
11/11/2013  11:13:00       68.497      115.828       99.268       48.931       55.177       54.392     2394.245     3044.545     2958.463        1.818        0.420      134.566       45.962        0.117      340.281       14.193      867.184
11/11/2013  11:14:00       84.097      107.876      108.561       61.833       61.337       38.410     3823.279     3762.242     1475.341        1.978        0.453      136.783       34.746        0.065      340.380       14.359      867.182
11/11/2013  11:15:00       98.029     -144.818       -4.833       74.659       78.105       41.199     5574.012     6100.399     1697.380        2.199        0.669      174.877       42.083        0.058      340.220       14.089      867.193
11/11/2013  11:16:00       71.872      -11.342       35.480       37.029       38.961       28.009     1371.129     1517.977      784.520        0.511        0.184       72.761       23.133        0.101      340.237       14.120      867.183
11/11/2013  11:17:00       54.391      -61.874        7.982       60.520       58.422       39.830     3662.640     3413.150     1586.390        0.775        0.433       82.382       36.303        0.194      340.491       14.549      867.170
11/11/2013  11:18:00      103.684       27.778       52.520       65.729      106.101       61.131     4320.260    11257.320     3737.044        1.679        0.966      107.340       70.842        0.436      340.485       14.537      867.158
11/11/2013  11:19:00       26.790       25.963       50.717       34.155       44.292       26.778     1166.539     1961.785      717.086        0.390        0.192       37.307       24.441        0.429      340.825       15.113      867.172
11/11/2013  11:20:00       22.621       58.294       88.994       41.385       63.223       48.798     1712.701     3997.115     2381.212        0.996        0.405       62.529       50.294        0.647      340.610       14.751      867.171
11/11/2013  11:21:00       28.809      -20.998       39.082       32.258       45.825       38.724     1040.581     2099.973     1499.544        0.372        0.232       35.649       16.372        0.211      340.767       15.015      867.177
11/11/2013  11:22:00       39.796      -37.377       11.318       33.524       43.647       27.416     1123.834     1905.078      751.630        0.344        0.189       54.596       23.117        0.179      340.516       14.592      867.175
11/11/2013  11:23:00       22.367      -12.219       30.162       41.836       49.347       39.963     1750.243     2435.135     1597.026        0.367        0.289       25.487       41.725        2.680      340.836       15.130      867.163
11/11/2013  11:24:00       85.864      -85.105       11.698       68.928      110.718       56.947     4751.093    12258.533     3242.933        1.750        1.013      120.895       53.099        0.193      340.560       14.662      867.138
11/11/2013  11:25:00       39.938       10.790       64.679       50.316       77.926       45.414     2531.737     6072.496     2062.451        0.828        0.533       41.370       49.568        1.436      340.737       14.964      867.123
11/11/2013  11:26:00       59.517       66.190       91.768       51.149       80.519       40.405     2616.242     6483.364     1632.578        1.354        0.537       89.013       50.893        0.327      340.558       14.660      867.114
11/11/2013  11:27:00      104.620       41.654       13.471       52.340       56.181       40.050     2739.512     3156.326     1603.986        1.018        0.375      112.607       11.772        0.011      340.677       14.863      867.090
11/11/2013  11:28:00       72.834       46.033       31.509       55.400       48.061       36.879     3069.213     2309.835     1360.035        0.758        0.337       86.162       21.205        0.061      340.913       15.262      867.053
11/11/2013  11:29:00       41.492       61.489       67.436       61.475       56.313       36.489     3779.232     3171.168     1331.464        0.916        0.414       74.179       27.718        0.140      341.072       15.531      867.027
11/11/2013  11:30:00       75.408       70.803       20.042       63.806       47.407       30.263     4071.177     2247.467      915.834        0.917        0.362      103.438       14.127        0.019      340.626       14.776      867.004
11/11/2013  11:31:00       77.711       67.442       15.221       22.745       35.308       45.316      517.351     1246.632     2053.543        0.732        0.191      102.896       24.170        0.055      340.462       14.500      866.970
11/11/2013  11:32:00       93.602       83.435       58.829       61.164       57.081       55.581     3740.992     3258.286     3089.231        1.463        0.504      125.390       40.104        0.102      340.669       14.848      866.936
11/11/2013  11:33:00       49.279       40.771       75.402       74.021       88.459       55.129     5479.074     7824.949     3039.221        1.306        0.817       63.958       54.038        0.714      340.836       15.131      866.907
11/11/2013  11:34:00       33.932      -34.613       -1.612       41.407       53.060       41.991     1714.505     2815.313     1763.223        0.432        0.315       48.471       19.428        0.161      340.814       15.095      866.885
11/11/2013  11:35:00       93.986       38.296        9.751       87.655       54.052       47.427     7683.480     2921.639     2249.322        1.162        0.643      101.489       27.818        0.075      340.985       15.383      866.851
11/11/2013  11:36:00      150.965       84.905       58.887       98.176       68.815       40.503     9638.615     4735.450     1640.513        2.474        0.801      173.203       26.344        0.023      340.878       15.201      866.828
11/11/2013  11:37:00       49.244       66.143       95.333       57.210       69.197       38.365     3272.992     4788.287     1471.905        1.271        0.477       82.461       37.953        0.212      341.032       15.464      866.807
11/11/2013  11:38:00       24.869       62.380       93.586       49.094       79.905       54.988     2410.227     6384.742     3023.657        1.254        0.591       67.155       54.887        0.668      341.216       15.774      866.796
11/11/2013  11:39:00       52.283      -48.229       36.551       52.022       55.414       40.021     2706.317     3070.674     1601.681        0.689        0.369       71.131       31.294        0.194      341.080       15.545      866.790
11/11/2013  11:40:00       15.774       -3.933       21.967       25.096       25.546       28.769      629.829      652.621      827.650        0.143        0.106       16.257       19.356        1.418      341.328       15.965      866.778
11/11/2013  11:41:00        0.841       12.517        9.794       37.403       32.129       19.511     1398.990     1032.279      380.667        0.153        0.141       12.546       10.209        0.662      341.313       15.940      866.781
11/11/2013  11:42:00       -5.524      -67.416      -12.232       58.224       32.710       25.678     3389.980     1069.965      659.380        0.492        0.256       67.642       24.052        0.126      340.990       15.393      866.764
11/11/2013  11:43:00       23.038       19.437       35.592       27.309       40.100       25.303      745.798     1608.025      640.228        0.258        0.150       30.142       20.933        0.482      341.046       15.487      866.757
11/11/2013  11:44:00       11.125       26.710       34.580       23.474       21.546       28.010      551.045      464.241      784.581        0.192        0.090       28.935       18.043        0.389      341.283       15.888      866.746
11/11/2013  11:45:00       98.345       65.600       26.220       73.808       48.031       47.714     5447.585     2306.931     2276.657        1.235        0.502      118.216       33.404        0.080      341.174       15.703      866.734
11/11/2013  11:46:00      114.157       66.483       25.621       54.685       52.009       45.901     2990.415     2704.966     2106.929        1.295        0.390      132.105       27.121        0.042      341.022       15.446      866.724
11/11/2013  11:47:00       92.554       61.219       13.646       53.289       45.864       42.729     2839.758     2103.520     1825.740        0.963        0.338      110.969       22.812        0.042      340.895       15.231      866.710
11/11/2013  11:48:00       84.190       83.656       67.347       56.874       45.713       46.617     3234.643     2089.663     2173.172        1.306        0.375      118.686       36.484        0.094      340.969       15.356      866.699
11/11/2013  11:49:00       71.076       -9.154       47.718       44.536       44.932       35.383     1983.418     2018.907     1251.990        0.633        0.263       71.663       31.020        0.187      340.974       15.365      866.673
11/11/2013  11:50:00       27.438        1.727       46.060       41.883       65.348       45.003     1754.176     4270.359     2025.271        0.546        0.402       27.493       44.885        2.665      341.297       15.912      866.656
11/11/2013  11:51:00       27.553       -3.737       58.958       45.704       75.106       45.494     2088.827     5640.888     2069.715        0.702        0.490       27.805       38.454        1.913      341.420       16.120      866.622
11/11/2013  11:52:00       58.311       66.705       65.032       74.178       38.916       37.307     5502.380     1514.478     1391.834        1.024        0.420       88.599       33.288        0.141      341.155       15.671      866.615
11/11/2013  11:53:00       57.131       18.427       31.741       59.671       32.063       32.599     3560.687     1028.054     1062.701        0.513        0.283       60.029       29.863        0.247      341.120       15.613      866.605
11/11/2013  11:54:00       33.461      -42.010        0.363       35.087       54.680       32.672     1231.079     2989.850     1067.449        0.409        0.264       53.707       33.287        0.384      341.260       15.849      866.600
11/11/2013  11:55:00        5.551        1.451       47.539       29.749       57.284       33.646      885.022     3281.403     1132.030        0.379        0.265        5.738       36.311       40.048      341.531       16.307      866.603
11/11/2013  11:56:00       93.650       84.991       68.366       51.014       51.803       63.767     2602.410     2683.539     4066.195        1.501        0.468      126.466       48.271        0.146      340.931       15.294      866.601
11/11/2013  11:57:00       67.012       72.470       58.397       42.352       38.539       24.501     1793.717     1485.250      600.291        0.852        0.194       98.704       12.810        0.017      341.027       15.455      866.587
11/11/2013  11:58:00       32.609      -15.268       41.244       54.969       45.962       30.698     3021.640     2112.515      942.368        0.454        0.304       36.006       18.780        0.272      341.517       16.284      866.578
11/11/2013  11:59:00      111.532       86.431       87.663       57.674       84.055       53.077     3326.277     7065.191     2817.161        2.040        0.660      141.102       46.465        0.108      341.226       15.790      866.567
11/11/2013  12:00:00       62.173       45.770       72.173       49.835       54.919       47.658     2483.485     3016.096     2271.319        0.947        0.389       77.204       41.743        0.292      341.384       16.060      866.571
11/11/2013  12:01:00        0.683      -54.574       26.806       31.291       61.273       36.063      979.118     3754.413     1300.548        0.486        0.302       54.578       14.535        0.071      341.765       16.705      866.573
11/11/2013  12:02:00        7.089        9.805       55.768       35.205       83.143       41.908     1239.405     6912.836     1756.296        0.658        0.495       12.099       41.475       11.750      341.778       16.728      866.571
11/11/2013  12:03:00       -4.419       32.908       65.297       29.860       45.831       28.909      891.630     2100.435      835.737        0.460        0.191       33.203       27.409        0.681      341.815       16.790      866.584
11/11/2013  12:04:00      -45.144      -27.496       -6.175       39.416       24.288       19.109     1553.635      589.913      365.164        0.267        0.125       52.859       13.778        0.068      341.173       15.701      866.573
11/11/2013  12:05:00      -56.451       14.647        2.493       29.913       16.696       18.260      894.760      278.770      333.441        0.246        0.075       58.320       12.864        0.049      341.338       15.981      866.545
11/11/2013  12:06:00      -33.677        9.841       12.189       20.471       22.952       20.384      419.080      526.786      415.509        0.137        0.068       35.085       19.478        0.308      341.607       16.438      866.532
11/11/2013  12:07:00      -24.257       10.782       22.607       27.676       26.987       29.282      765.964      728.311      857.428        0.178        0.118       26.545       23.431        0.779      341.786       16.742      866.525
11/11/2013  12:08:00       64.743      -46.428       28.336       82.040       90.812       49.019     6730.578     8246.906     2402.866        1.226        0.869       79.670       65.785        0.682      341.579       16.390      866.505
11/11/2013  12:09:00      112.986      -58.873       18.397       48.853       64.179       33.850     2386.662     4118.925     1145.808        1.211        0.383      127.404       39.042        0.094      341.174       15.705      866.495
11/11/2013  12:10:00       25.084       -6.369       23.424       56.914       52.035       34.057     3239.248     2707.620     1159.858        0.416        0.355       25.880       34.930        1.822      341.372       16.038      866.476
11/11/2013  12:11:00       37.475     -139.422      -15.742       64.684       56.831       42.984     4184.080     3229.778     1847.627        1.517        0.463      144.371       27.750        0.037      341.385       16.059      866.448
11/11/2013  12:12:00        0.826      -25.480       17.315       31.629       47.592       33.670     1000.423     2265.005     1133.658        0.267        0.220       25.493       31.490        1.526      341.569       16.373      866.432
11/11/2013  12:13:00       57.947      -55.372       19.827       45.276       80.300       40.680     2049.899     6448.037     1654.903        0.848        0.508       80.150       52.080        0.422      341.343       15.990      866.418
11/11/2013  12:14:00       25.202       30.113       64.831       49.437       56.737       41.235     2443.968     3219.135     1700.334        0.655        0.368       39.267       46.900        1.427      341.446       16.165      866.393
11/11/2013  12:15:00       78.274       66.033       61.184       60.234       34.430       48.925     3628.184     1185.421     2393.642        1.072        0.360      102.407       34.002        0.110      341.311       15.936      866.395
11/11/2013  12:16:00       20.789      -12.605        6.669       37.858       44.345       28.337     1433.251     1966.449      802.978        0.242        0.210       24.312       25.013        1.058      341.586       16.402      866.395
11/11/2013  12:17:00       69.355       48.078        2.927       32.246       23.322       24.860     1039.803      543.918      618.004        0.467        0.110       84.389       15.192        0.032      341.316       15.943      866.392
11/11/2013  12:18:00       34.851       43.777        1.190       24.831       12.837       14.184      616.566      164.797      201.184        0.206        0.049       55.956        8.153        0.021      341.243       15.820      866.388
11/11/2013  12:19:00      -18.571       20.845       -6.900       17.665       22.162       13.385      312.058      491.158      179.161        0.090        0.049       27.918        5.239        0.035      341.419       16.119      866.383
11/11/2013  12:20:00        3.954      -18.654       11.019       12.301       15.049       14.204      151.313      226.462      201.742        0.053        0.029       19.068        9.650        0.256      341.687       16.573      866.386
11/11/2013  12:21:00        7.808      -14.706       15.208       26.104       20.557       14.759      681.398      422.602      217.839        0.091        0.066       16.650        9.643        0.335      341.751       16.680      866.383
11/11/2013  12:22:00      -11.845       -5.681       26.059       28.802       32.518       23.455      829.528     1057.412      550.115        0.164        0.122       13.137       24.302        3.422      341.727       16.641      866.386
11/11/2013  12:23:00      -12.128      -62.461      -18.563       40.748       46.465       19.246     1660.397     2159.017      370.391        0.429        0.209       63.628       18.096        0.081      341.458       16.184      866.400
11/11/2013  12:24:00       35.615      -66.493       -7.615       31.898       41.114       23.646     1017.452     1690.402      559.136        0.451        0.163       75.430       21.296        0.080      341.581       16.392      866.412
11/11/2013  12:25:00       40.838     -126.478      -25.858       75.108       58.896       32.378     5641.271     3468.795     1048.339        1.424        0.508      132.907       28.512        0.046      341.425       16.129      866.413
11/11/2013  12:26:00       12.819      -97.536       -2.714       56.179       53.712       34.879     3156.128     2885.013     1216.571        0.847        0.363       98.375       12.320        0.016      341.538       16.320      866.422
11/11/2013  12:27:00       48.246      -69.785       -1.237       34.103       44.573       34.772     1163.004     1986.727     1209.095        0.578        0.218       84.839       30.875        0.132      341.646       16.503      866.413
11/11/2013  12:28:00      -13.371      -30.411       13.524       30.959       39.266       24.340      958.488     1541.799      592.455        0.219        0.155       33.221       17.531        0.278      341.886       16.909      866.406
11/11/2013  12:29:00      -33.238      -24.885        9.047       38.397       40.579       20.170     1474.306     1646.677      406.848        0.267        0.176       41.522       15.096        0.132      341.691       16.581      866.395
11/11/2013  12:30:00      -34.388      -23.310        1.303       37.047       21.508       21.099     1372.502      462.609      445.180        0.200        0.114       41.544       16.725        0.162      341.835       16.824      866.390
11/11/2013  12:31:00      -30.704       -8.059        8.525       30.553       22.606       17.726      933.477      511.013      314.225        0.142        0.088       31.744       20.214        0.405      342.070       17.223      866.389
11/11/2013  12:32:00      -26.343      -26.472        8.346       42.317       29.787       19.496     1790.718      887.293      380.105        0.226        0.153       37.346       18.041        0.233      342.014       17.128      866.379
11/11/2013  12:33:00       11.157       -5.509       23.561       30.897       29.177       21.378      954.648      851.284      457.001        0.149        0.113       12.443       20.799        2.794      342.037       17.166      866.367
11/11/2013  12:34:00       15.630      -51.514       -3.737       36.144       53.748       34.575     1306.390     2888.877     1195.458        0.415        0.270       53.833       33.769        0.393      342.014       17.127      866.342
11/11/2013  12:35:00       -5.880      -35.355       15.729       55.360       30.322       22.592     3064.708      919.400      510.400        0.301        0.225       35.840       20.224        0.318      341.964       17.041      866.324
11/11/2013  12:36:00      -92.757      -16.001       -8.441       27.732       21.008       15.898      769.071      441.322      252.751        0.520        0.073       94.127       12.983        0.019      341.327       15.963      866.309
11/11/2013  12:37:00       -3.973      -18.856        0.455       23.457       15.884       13.098      550.219      252.300      171.567        0.067        0.049       19.270        4.088        0.045      341.833       16.821      866.296
11/11/2013  12:38:00       17.185      -10.994       15.107       18.683       22.849       14.767      349.043      522.058      218.071        0.087        0.054       20.401        6.427        0.099      342.298       17.609      866.268
11/11/2013  12:39:00       -5.844      -49.150        3.579       26.828       49.279       22.354      719.718     2428.430      499.698        0.305        0.182       49.496       21.950        0.197      342.308       17.628      866.235
11/11/2013  12:40:00       37.192       17.794       31.363       28.060       59.023       30.368      787.342     3483.697      922.235        0.394        0.260       41.229       15.764        0.146      342.124       17.313      866.208
11/11/2013  12:41:00       36.799       16.859       16.037       33.202       73.405       36.427     1102.385     5388.284     1326.958        0.486        0.391       40.478       28.965        0.512      342.088       17.254      866.184
11/11/2013  12:42:00      113.499     -146.035      -26.436       45.850       44.950       26.180     2102.205     2020.492      685.399        1.986        0.240      184.955       22.242        0.014      341.665       16.534      866.156
11/11/2013  12:43:00       38.265     -108.797      -10.180       45.598       63.685       34.706     2079.193     4055.822     1204.475        1.037        0.367      115.330       22.967        0.040      341.783       16.735      866.149
11/11/2013  12:44:00       84.679     -133.411        4.587       71.968       86.848       50.601     5179.388     7542.587     2560.415        2.013        0.764      158.016       56.992        0.130      341.992       17.089      866.129
11/11/2013  12:45:00       43.577       26.874       68.943       50.096       73.290       52.814     2509.562     5371.493     2789.319        0.902        0.534       51.198       60.246        1.385      341.986       17.080      866.119
11/11/2013  12:46:00       49.948       19.486       42.319       47.008       32.504       30.920     2209.758     1056.483      956.042        0.444        0.211       53.615       23.477        0.192      342.037       17.167      866.106
11/11/2013  12:47:00       40.387       12.656       20.961       41.606       26.864       24.670     1731.035      721.652      608.630        0.265        0.153       42.323       23.395        0.306      341.939       17.000      866.070
11/11/2013  12:48:00        5.032      -23.997        8.344       26.037       41.729       26.057      677.920     1741.290      678.958        0.188        0.155       24.519       23.877        0.948      342.103       17.279      866.049
11/11/2013  12:49:00        4.608      -48.978       16.501       39.893       39.205       35.509     1591.447     1537.037     1260.904        0.354        0.219       49.194       32.109        0.426      342.210       17.461      866.036
11/11/2013  12:50:00       24.464        8.289       22.571       19.605       18.192       17.576      384.340      330.948      308.901        0.110        0.051       25.831       14.284        0.306      342.319       17.645      866.032
11/11/2013  12:51:00       49.852      113.293      110.185       64.399       48.261       43.823     4147.170     2329.093     1920.486        1.793        0.420      123.776       40.359        0.106      342.020       17.136      866.015
11/11/2013  12:52:00      125.624       92.169       48.396       43.644       36.553       49.904     1904.803     1336.117     2490.458        1.617        0.287      155.809       38.297        0.060      341.777       16.725      866.017
11/11/2013  12:53:00       37.153        6.388       38.586       56.085       84.410       37.844     3145.485     7125.044     1432.191        0.730        0.585       37.698       45.592        1.463      342.186       17.419      866.007
11/11/2013  12:54:00       62.102     -139.150        5.679       56.115       84.531       46.785     3148.881     7145.495     2188.819        1.787        0.624      152.379       49.167        0.104      342.058       17.201      865.994
11/11/2013  12:55:00       -3.582      -16.481        6.737       42.034       48.707       33.032     1766.888     2372.380     1091.083        0.278        0.262       16.866       32.370        3.683      342.329       17.662      865.989
11/11/2013  12:56:00       32.521      -52.420        6.860       25.880       27.416       31.046      669.790      751.618      963.843        0.312        0.119       61.688       16.308        0.070      342.014       17.127      865.987
11/11/2013  12:57:00        0.335       -7.502       10.779       20.231       18.150       24.589      409.274      329.405      604.631        0.076        0.067        7.510       14.258        3.605      342.167       17.388      865.960
11/11/2013  12:58:00       17.217       -6.137       28.017       35.430       35.972       25.173     1255.286     1294.005      633.703        0.215        0.159       18.278       21.577        1.393      342.200       17.443      865.937
11/11/2013  12:59:00       13.209       41.043       47.724       35.050       28.937       20.548     1228.499      837.378      422.233        0.331        0.124       43.116       19.039        0.195      342.124       17.315      865.928
11/11/2013  13:00:00       25.237      -18.826       30.865       31.063       77.389       34.651      964.913     5989.051     1200.662        0.505        0.408       31.485       43.559        1.914      342.065       17.214      865.915
11/11/2013  13:01:00      104.161     -126.946      -13.097       29.737       34.474       18.878      884.273     1188.472      356.361        1.478        0.121      164.209       13.121        0.006      341.936       16.994      865.916
11/11/2013  13:02:00       52.857      -67.133       -2.100       45.931       55.347       36.264     2109.652     3063.317     1315.113        0.690        0.324       85.444       32.333        0.143      341.974       17.060      865.904
11/11/2013  13:03:00       57.395      -87.130       -9.221       29.783       45.328       25.099      887.000     2054.600      629.946        0.727        0.179      104.335       21.305        0.042      341.897       16.930      865.909
11/11/2013  13:04:00       64.299      -82.140      -14.372       31.662       26.830       18.707     1002.500      719.872      349.941        0.658        0.104      104.314       12.415        0.014      341.814       16.788      865.907
11/11/2013  13:05:00       31.622      -58.683       -4.465       25.083       39.753       21.454      629.157     1580.291      460.292        0.357        0.133       66.661       20.172        0.092      341.908       16.949      865.900
11/11/2013  13:06:00       41.778      -37.832       -5.850       33.995       46.675       30.291     1155.678     2178.582      917.530        0.373        0.213       56.362       22.589        0.161      341.908       16.948      865.915
11/11/2013  13:07:00       16.372      -33.066       -5.973       17.844       29.235       20.045      318.416      854.708      401.800        0.149        0.079       36.897       17.236        0.218      341.972       17.056      865.919
11/11/2013  13:08:00       12.384      -14.568        7.412       15.208       34.893       20.032      231.294     1217.543      401.297        0.114        0.093       19.121       17.322        0.821      342.061       17.207      865.917
11/11/2013  13:09:00       24.862      -15.297       15.329       22.620       38.100       22.388      511.658     1451.640      501.234        0.178        0.123       29.191       26.084        0.798      342.050       17.188      865.913
11/11/2013  13:10:00       22.838       19.366       38.290       42.498       43.256       29.032     1806.066     1871.062      842.864        0.344        0.226       29.944       33.262        1.234      342.046       17.182      865.914
11/11/2013  13:11:00       11.451       -3.020       32.797       25.591       38.507       20.453      654.901     1482.826      418.315        0.189        0.128       11.843       25.517        4.643      342.154       17.364      865.916
11/11/2013  13:12:00      -13.052       28.132       30.130       17.987       22.068       18.337      323.517      487.009      336.261        0.151        0.057       31.013       17.225        0.308      342.140       17.341      865.910
11/11/2013  13:13:00        0.478       12.720       20.939       13.677       26.981       20.358      187.051      727.971      414.453        0.096        0.066       12.729       20.086        2.490      342.008       17.116      865.889
11/11/2013  13:14:00       11.799       -6.181       17.821       17.422       38.102       22.017      303.514     1451.791      484.749        0.137        0.112       13.320       25.181        3.574      342.120       17.307      865.880
11/11/2013  13:15:00       10.247      -34.809       10.877       27.985       50.481       27.078      783.139     2548.310      733.197        0.275        0.203       36.286       31.087        0.734      342.189       17.426      865.866
11/11/2013  13:16:00      -16.415       -1.588       43.411       18.176       43.603       25.127      330.384     1901.211      631.379        0.251        0.143       16.492       25.876        2.462      342.299       17.612      865.854
11/11/2013  13:17:00      -34.920      -49.233       18.627       24.131       28.043       20.408      582.327      786.426      416.500        0.289        0.089       60.359        9.288        0.024      342.178       17.405      865.848
11/11/2013  13:18:00       24.876      -48.655        1.840       39.843       74.722       35.656     1587.437     5583.410     1271.318        0.571        0.422       54.645       41.884        0.587      342.090       17.255      865.848
11/11/2013  13:19:00      -23.480        0.864       12.842       29.307       13.210        9.272      858.928      174.493       85.976        0.092        0.056       23.496        5.820        0.061      342.064       17.212      865.842
11/11/2013  13:20:00      -11.262      -33.191       22.630       18.907       44.126       26.008      357.484     1947.062      676.432        0.236        0.149       35.049       21.632        0.381      342.200       17.444      865.836
11/11/2013  13:21:00      -50.479     -100.777        0.094       53.192       34.429       23.875     2829.365     1185.375      570.026        0.864        0.229      112.713       17.874        0.025      341.989       17.086      865.824
11/11/2013  13:22:00       14.577      -16.128        3.789       24.450       31.512       17.099      597.810      993.027      292.382        0.118        0.094       21.740       12.634        0.338      342.096       17.267      865.814
11/11/2013  13:23:00        0.515      -55.192       -1.377       18.413       46.047       23.717      339.052     2120.280      562.503        0.303        0.151       55.194       19.252        0.122      342.169       17.389      865.802
11/11/2013  13:24:00       48.465      -67.473       -5.022       43.309       37.486       30.572     1875.648     1405.182      934.629        0.557        0.211       83.075       15.658        0.036      342.049       17.187      865.805
11/11/2013  13:25:00       12.309      -12.973       30.887       24.809       36.974       31.362      615.480     1367.097      983.559        0.212        0.148       17.883       22.953        1.647      342.070       17.222      865.802
11/11/2013  13:26:00       18.611        4.710       36.811       31.811       27.469       15.870     1011.928      754.566      251.858        0.187        0.101       19.198       14.622        0.580      342.066       17.217      865.803
11/11/2013  13:27:00       -4.414      -35.006        4.152       21.383       28.519       19.607      457.243      813.324      384.425        0.146        0.083       35.284       11.250        0.102      342.164       17.383      865.814
11/11/2013  13:28:00      -24.035      -12.225        2.970       14.666       11.791       10.706      215.097      139.029      114.610        0.060        0.023       26.965        7.417        0.076      342.056       17.200      865.819
11/11/2013  13:29:00      -26.130        6.287        6.423       28.979       20.042       16.199      839.774      401.669      262.419        0.113        0.075       26.876       14.378        0.286      342.126       17.317      865.812
11/11/2013  13:30:00      -89.895      -32.709      -12.134       22.278       16.795       12.008      496.323      282.063      144.183        0.511        0.046       95.660       12.002        0.016      341.938       16.999      865.804
11/11/2013  13:31:00      -53.800      -35.770        3.016       38.644       28.106       19.612     1493.331      789.946      384.615        0.343        0.133       64.606       20.252        0.098      342.041       17.175      865.797
11/11/2013  13:32:00      -23.771      -17.507       11.771       29.943       19.998       16.440      896.585      399.903      270.288        0.129        0.078       29.522       19.700        0.445      342.292       17.601      865.796
11/11/2013  13:33:00      -24.934      -30.135       14.905       40.959       36.195       23.944     1677.616     1310.096      573.336        0.266        0.178       39.113       23.940        0.375      342.229       17.492      865.790
11/11/2013  13:34:00      -47.112      -50.931       13.098       68.775       42.278       32.149     4730.039     1787.401     1033.573        0.627        0.378       69.379       32.578        0.220      342.215       17.469      865.783
11/11/2013  13:35:00      -96.940      -81.346      -15.365       28.471       30.341       16.175      810.577      920.605      261.646        0.912        0.100      126.549        6.209        0.002      341.937       16.997      865.780
11/11/2013  13:36:00      -55.052      -61.916       -5.637       20.381       23.022       19.332      415.403      530.001      373.711        0.411        0.066       82.851       12.874        0.024      341.990       17.086      865.776
11/11/2013  13:37:00      -81.049      -37.310      -14.568       19.293       22.215       11.492      372.208      493.488      132.063        0.459        0.050       89.225        6.995        0.006      341.974       17.059      865.767
11/11/2013  13:38:00      -65.129      -15.127        1.435       39.974       35.140       19.215     1597.944     1234.788      369.233        0.384        0.160       66.862       13.194        0.039      342.134       17.332      865.756
11/11/2013  13:39:00      -27.478      -54.475        2.871       38.259       35.989       28.380     1463.781     1295.184      805.438        0.365        0.178       61.013       11.583        0.036      342.297       17.609      865.754
11/11/2013  13:40:00      -18.975      -40.533       14.803       16.056       33.816       23.013      257.794     1143.502      529.615        0.208        0.097       44.755       20.909        0.218      342.497       17.947      865.752
11/11/2013  13:41:00      -29.560      -12.374       14.183       30.812       21.521       17.186      949.369      463.153      295.370        0.147        0.085       32.045       12.243        0.146      342.443       17.857      865.744
11/11/2013  13:42:00      -54.604      -46.991        1.272       33.581       23.605       15.578     1127.679      557.218      242.661        0.356        0.096       72.040        8.273        0.013      342.229       17.492      865.732
11/11/2013  13:43:00      -89.223     -124.120       -3.847       44.520       42.562       28.069     1981.990     1811.485      787.841        1.398        0.229      152.861       15.508        0.010      342.064       17.211      865.714
11/11/2013  13:44:00      -15.605      -80.903       11.134       39.290       60.953       29.649     1543.713     3715.211      879.036        0.652        0.307       82.394       19.950        0.059      342.181       17.411      865.704
11/11/2013  13:45:00     -118.265      -76.799       -7.736       80.693       48.553       29.547     6511.439     2357.408      873.023        1.484        0.487      141.013       32.554        0.053      342.037       17.167      865.686
11/11/2013  13:46:00     -132.420     -104.029      -20.976       62.071       79.206       25.869     3852.802     6273.567      669.224        1.979        0.540      168.396       28.561        0.029      342.037       17.166      865.677
11/11/2013  13:47:00     -120.903     -126.425      -15.539       45.432       37.254       26.153     2064.069     1387.892      683.964        1.749        0.207      174.931       20.681        0.014      341.992       17.088      865.686
11/11/2013  13:48:00      -63.286     -104.826       -4.510       53.469       51.703       31.521     2858.916     2673.164      993.599        1.077        0.326      122.448       23.078        0.036      342.122       17.311      865.685
11/11/2013  13:49:00     -119.085      -86.779      -16.096       39.035       29.541       24.437     1523.745      872.683      597.156        1.248        0.150      147.349       22.919        0.024      342.079       17.238      865.685
11/11/2013  13:50:00     -108.906      -25.049      -11.162       31.343       26.405       16.436      982.353      697.237      270.139        0.728        0.097      111.749       13.920        0.016      342.089       17.255      865.686
11/11/2013  13:51:00      -89.411      -27.929        3.487       46.336       32.180       25.343     2147.025     1035.527      642.284        0.631        0.191       93.671       28.016        0.089      342.324       17.654      865.676
11/11/2013  13:52:00      -65.371      -26.979       -4.978       37.346       24.634       17.776     1394.724      606.813      315.974        0.367        0.116       70.720       16.260        0.053      342.313       17.635      865.669
11/11/2013  13:53:00       -8.862      -19.873       12.042       21.715       18.340       12.511      471.557      336.338      156.528        0.079        0.048       21.759        6.765        0.097      342.516       17.980      865.665
11/11/2013  13:54:00       13.747        7.096       17.601       12.728       10.912       18.613      162.010      119.079      346.427        0.059        0.031       15.470        3.687        0.057      342.692       18.279      865.666
11/11/2013  13:55:00       26.114       25.460       33.265       20.975       13.368       12.205      439.951      178.695      148.965        0.160        0.038       36.471        6.635        0.033      342.486       17.929      865.662
11/11/2013  13:56:00       16.613       21.435       28.099       16.653       15.137        9.567      277.319      229.137       91.536        0.106        0.030       27.119        8.899        0.108      342.528       18.000      865.659
11/11/2013  13:57:00        2.160       13.757       27.476       16.586       14.134       11.670      275.088      199.767      136.191        0.078        0.031       13.925       11.952        0.737      342.849       18.546      865.658
11/11/2013  13:58:00        2.201        8.691       18.057       21.750       10.056       10.211      473.079      101.127      104.258        0.054        0.034        8.965        5.669        0.400      342.784       18.437      865.645
11/11/2013  13:59:00       21.156       48.367        5.511       18.028       35.595       25.650      324.992     1267.016      657.927        0.253        0.112       52.792       25.059        0.225      342.521       17.989      865.622
11/11/2013  14:00:00       32.983       20.786       -1.907       40.500       34.187       20.831     1640.275     1168.731      433.927        0.238        0.162       38.986       11.413        0.086      342.576       18.082      865.614
11/11/2013  14:01:00       29.954        2.116        0.154       32.261       73.679       27.445     1040.804     5428.548      753.238        0.406        0.361       30.029       29.569        0.970      342.610       18.140      865.594
11/11/2013  14:02:00        5.481      132.750      -12.466       30.845       47.988       31.273      951.391     2302.824      977.991        1.102        0.212      132.863       31.211        0.055      342.374       17.738      865.597
11/11/2013  14:03:00       19.169       82.031        4.055       50.346       47.218       38.802     2534.749     2229.560     1505.600        0.669        0.313       84.241       30.473        0.131      342.371       17.734      865.606
11/11/2013  14:04:00      -33.553       -6.013      -24.516       25.343       32.891       15.486      642.282     1081.798      239.830        0.186        0.098       34.087       13.684        0.161      342.615       18.150      865.619
11/11/2013  14:05:00      -34.698        6.361        2.005       21.683       33.485       23.590      470.167     1121.243      556.468        0.170        0.107       35.276       20.689        0.344      342.542       18.024      865.633
11/11/2013  14:06:00        2.401       16.841       16.435       16.617       14.053       13.029      276.139      197.482      169.756        0.060        0.032       17.011        8.591        0.255      342.828       18.511      865.648
11/11/2013  14:07:00      -21.758        9.296        6.329       36.670       26.144       20.570     1344.669      683.483      423.141        0.153        0.123       23.660       16.614        0.493      342.739       18.359      865.665
11/11/2013  14:08:00     -114.631      121.291      -24.775       38.263       60.221       29.433     1464.071     3626.563      866.307        1.721        0.298      166.888       18.311        0.012      342.373       17.737      865.656
11/11/2013  14:09:00      -60.494       90.351      -12.830       32.250       37.084       26.479     1040.032     1375.248      701.122        0.755        0.156      108.733       15.339        0.020      342.437       17.844      865.660
11/11/2013  14:10:00      -46.936       57.213      -10.362       22.478       23.717       20.432      505.249      562.483      417.486        0.353        0.074       74.003       13.409        0.033      342.612       18.144      865.643
11/11/2013  14:11:00       -2.985       53.776        0.980       33.567       31.321       22.164     1126.746      981.027      491.259        0.275        0.130       53.859       24.723        0.211      342.564       18.061      865.633
11/11/2013  14:12:00       42.232       51.984        1.068       14.798       17.317       16.589      218.984      299.879      275.202        0.264        0.040       66.976       12.646        0.036      342.463       17.890      865.617
11/11/2013  14:13:00       30.473       37.531       12.759       19.690       21.834       21.902      387.699      476.736      479.707        0.192        0.067       48.344       14.521        0.090      342.481       17.921      865.605
11/11/2013  14:14:00       54.260        5.499       16.901       31.730       30.390       23.193     1006.824      923.543      537.900        0.286        0.123       54.538       18.417        0.114      342.552       18.042      865.590
11/11/2013  14:15:00       20.408       18.189       34.245       35.845       61.265       36.369     1284.884     3753.359     1322.735        0.414        0.318       27.337       38.880        2.023      342.658       18.222      865.576
11/11/2013  14:16:00       69.876      -36.060        8.868       65.622       60.181       31.759     4306.268     3621.749     1008.659        0.760        0.447       78.633       38.956        0.245      342.611       18.140      865.564
11/11/2013  14:17:00       94.709      -85.763       -8.449       50.923       44.787       39.757     2593.144     2005.873     1580.637        1.129        0.309      127.770       31.814        0.062      342.537       18.015      865.545
11/11/2013  14:18:00       29.854      -37.520       18.816       36.698       66.333       24.743     1346.727     4400.013      612.217        0.450        0.318       47.948       33.538        0.489      342.746       18.372      865.553
11/11/2013  14:19:00        9.238       13.946       28.583       30.327       31.972       26.922      919.714     1022.214      724.792        0.188        0.133       16.728       27.810        2.764      342.831       18.514      865.554
11/11/2013  14:20:00      -44.394       -7.629        3.151       44.550       29.949       21.677     1984.731      896.941      469.896        0.269        0.168       45.045       28.038        0.387      342.844       18.538      865.554
11/11/2013  14:21:00        3.771       15.947       34.683       23.475       33.825       17.492      551.096     1144.113      305.975        0.174        0.100       16.386       15.806        0.930      343.049       18.888      865.541
11/11/2013  14:22:00       -4.916        5.582       27.579       34.821       40.662       18.881     1212.510     1653.412      356.507        0.202        0.161        7.438       20.778        7.804      343.107       18.987      865.548
11/11/2013  14:23:00        1.544       -4.552       24.786       24.141       31.244       25.686      582.778      976.179      659.758        0.143        0.111        4.807       23.211       23.316      343.193       19.132      865.550
11/11/2013  14:24:00       40.204      -14.325       11.913       55.296       40.256       38.416     3057.627     1620.544     1475.809        0.406        0.308       42.680       35.369        0.687      342.877       18.594      865.539
11/11/2013  14:25:00       25.571       17.236       50.845       34.036       64.967       42.656     1158.473     4220.677     1819.520        0.537        0.360       30.837       44.255        2.060      342.886       18.609      865.530
11/11/2013  14:26:00       29.101       27.511       27.981       28.394       26.313       21.106      806.236      692.354      445.476        0.217        0.097       40.046       11.333        0.080      342.687       18.272      865.520
11/11/2013  14:27:00       25.413       33.107       12.740       19.916       16.484       18.264      396.650      271.723      333.568        0.145        0.050       41.736        9.835        0.056      342.631       18.176      865.510
11/11/2013  14:28:00       20.253       34.354       -3.493       31.080       20.033       14.348      965.976      401.332      205.857        0.159        0.079       39.879        2.791        0.005      342.633       18.179      865.492
11/11/2013  14:29:00       23.096       16.744       14.577       34.815       19.359       24.611     1212.059      374.775      605.693        0.161        0.110       28.527       14.489        0.258      342.774       18.419      865.468
11/11/2013  14:30:00       88.263       63.660       47.716       55.917       41.865       45.710     3126.694     1752.669     2089.430        1.054        0.348      108.826       23.620        0.047      342.687       18.271      865.450
11/11/2013  14:31:00       13.805      -14.376       50.585       37.087       66.272       26.733     1375.467     4392.000      714.674        0.472        0.324       19.931       35.935        3.251      342.970       18.752      865.423
11/11/2013  14:32:00       57.670      -64.699       10.851       43.166       43.524       30.559     1863.319     1894.362      933.878        0.616        0.235       86.671       18.625        0.046      342.848       18.543      865.412
11/11/2013  14:33:00       29.028       -6.478       33.881       44.909       62.093       38.193     2016.790     3855.508     1458.731        0.468        0.367       29.742       24.821        0.696      342.914       18.658      865.402
11/11/2013  14:34:00       99.675     -147.083      -11.719       42.585       56.684       31.559     1813.516     3213.045      995.970        1.886        0.301      177.675       32.648        0.034      342.667       18.235      865.397
11/11/2013  14:35:00        9.527      -31.566       39.467       38.334       58.999       38.323     1469.527     3480.891     1468.621        0.453        0.321       32.973       41.789        1.606      342.963       18.739      865.393
11/11/2013  14:36:00       56.121       94.425       94.014       47.301       48.217       24.549     2237.339     2324.853      602.640        1.303        0.258      109.844       25.977        0.056      342.855       18.557      865.397
11/11/2013  14:37:00        5.815       40.935       58.451       25.948       37.180       29.083      673.322     1382.375      845.834        0.401        0.145       41.346       21.356        0.267      342.988       18.782      865.393
11/11/2013  14:38:00       38.830       56.703       67.118       63.416       53.541       42.194     4021.648     2866.638     1780.309        0.895        0.433       68.724       34.806        0.257      342.874       18.589      865.384
11/11/2013  14:39:00       66.236       34.583       13.854       43.839       41.352       25.595     1921.892     1709.979      655.108        0.503        0.214       74.720       20.590        0.076      342.715       18.318      865.390
11/11/2013  14:40:00       84.551       39.819       30.030       46.134       38.640       35.131     2128.350     1493.040     1234.170        0.725        0.243       93.458       29.517        0.100      342.662       18.230      865.372
11/11/2013  14:41:00       29.302      -20.341       19.172       29.514       48.127       15.361      871.091     2316.197      235.962        0.253        0.171       35.670       14.607        0.168      342.837       18.527      865.353
11/11/2013  14:42:00       49.733       26.213       27.007       53.683       68.013       38.069     2881.837     4625.725     1449.217        0.642        0.448       56.218       34.644        0.380      342.745       18.368      865.344
11/11/2013  14:43:00        0.071       10.633       56.115       36.372       53.767       39.667     1322.898     2890.899     1573.473        0.452        0.289       10.634       39.214       13.600      342.931       18.687      865.330
11/11/2013  14:44:00       36.463      -10.611       13.886       33.471       41.007       22.388     1120.285     1681.612      501.236        0.247        0.165       37.976       21.049        0.307      342.774       18.418      865.321
11/11/2013  14:45:00       39.226     -136.428       -3.237       51.166       58.540       34.651     2617.945     3426.948     1200.695        1.370        0.362      141.956       27.427        0.037      342.794       18.453      865.305
11/11/2013  14:46:00       73.935      -51.942       51.201       73.248      136.794       73.794     5365.205    18712.710     5445.561        2.015        1.476       90.357       80.622        0.796      342.896       18.626      865.277
11/11/2013  14:47:00       52.409       19.449       76.494       48.917       75.909       54.707     2392.858     5762.185     2992.825        1.006        0.557       55.902       47.685        0.728      342.794       18.453      865.282
11/11/2013  14:48:00       69.377      -67.635       24.199       63.502       91.348       61.835     4032.559     8344.399     3823.562        1.308        0.810       96.890       59.177        0.373      342.910       18.649      865.265
11/11/2013  14:49:00       70.502      -78.265       27.931       59.576      106.890       61.873     3549.276    11425.388     3828.231        1.534        0.940      105.337       81.362        0.597      342.862       18.568      865.261
11/11/2013  14:50:00       39.316      -87.253        1.658       46.162       68.819       37.897     2130.969     4736.031     1436.155        0.873        0.415       95.702       31.071        0.105      342.803       18.469      865.234
11/11/2013  14:51:00       13.954       18.894       57.253       40.622       55.476       41.638     1650.143     3077.569     1733.743        0.514        0.323       23.488       43.674        3.457      342.947       18.713      865.226
11/11/2013  14:52:00       36.653       44.115       52.862       52.216       40.414       32.383     2726.542     1633.315     1048.663        0.575        0.270       57.355       26.606        0.215      342.910       18.650      865.225
11/11/2013  14:53:00       61.458       15.935       17.234       56.914       39.545       33.268     3239.224     1563.792     1106.745        0.512        0.295       63.490       20.621        0.105      342.782       18.433      865.213
11/11/2013  14:54:00       26.326        7.037       18.044       35.882       33.275       18.531     1287.536     1107.238      343.386        0.190        0.137       27.251       14.486        0.283      342.936       18.694      865.207
11/11/2013  14:55:00       39.314       11.445       13.239       26.511       18.236       21.972      702.830      332.538      482.766        0.168        0.076       40.946       11.318        0.076      342.851       18.550      865.196
11/11/2013  14:56:00       52.736      -17.084       13.027       26.279       49.578       22.140      690.561     2457.932      490.185        0.344        0.182       55.435       27.432        0.245      342.953       18.724      865.182
11/11/2013  14:57:00       57.766      -13.602       20.218       48.895       84.041       39.092     2390.724     7062.937     1528.158        0.745        0.549       59.346       52.223        0.774      342.962       18.740      865.167
11/11/2013  14:58:00       42.179       24.783       37.713       45.372       39.825       32.441     2058.576     1586.032     1052.445        0.426        0.235       48.921       28.187        0.332      342.883       18.605      865.163
11/11/2013  14:59:00       61.415      -80.264        4.536       66.720       87.383       41.476     4451.611     7635.785     1720.266        1.202        0.690      101.065       59.295        0.344      342.886       18.609      865.188
11/11/2013  15:00:00       59.431      -31.051       17.864       38.381       64.038       47.733     1473.120     4100.802     2278.416        0.633        0.393       67.054       48.929        0.532      342.942       18.705      865.213
11/11/2013  15:01:00       35.474      -24.517       23.723       25.173       50.701       31.486      633.657     2570.569      991.345        0.331        0.210       43.122       27.988        0.421      342.926       18.678      865.245
11/11/2013  15:02:00       38.955       30.011       33.644       49.654       28.142       27.095     2465.545      791.995      734.122        0.377        0.200       49.175       20.837        0.180      342.973       18.757      865.270
11/11/2013  15:03:00       45.418       44.318       42.883       50.117       35.527       38.700     2511.754     1262.149     1497.673        0.557        0.264       63.457       25.012        0.155      342.925       18.676      865.299
11/11/2013  15:04:00       24.574       52.282       58.755       35.698       38.459       23.394     1274.322     1479.105      547.265        0.504        0.165       57.769       18.608        0.104      342.992       18.791      865.315
11/11/2013  15:05:00       36.708       24.787       20.908       29.547       33.473       29.441      873.020     1120.436      866.772        0.263        0.143       44.293       24.442        0.305      342.840       18.531      865.322
11/11/2013  15:06:00       73.418       47.331       18.688       50.868       34.417       30.428     2587.598     1184.524      925.868        0.634        0.235       87.352       10.642        0.015      342.816       18.490      865.320
11/11/2013  15:07:00        2.172       22.802       32.895       15.263       18.228       13.348      232.974      332.256      178.161        0.117        0.037       22.905        9.781        0.182      343.003       18.808      865.327
11/11/2013  15:08:00       -2.744        5.936        2.941       19.493       18.299       15.584      379.972      334.851      242.855        0.050        0.048        6.539       15.369        5.524      342.992       18.789      865.326
11/11/2013  15:09:00        0.141      -36.285        0.800       31.181       31.440       13.702      972.250      988.469      187.742        0.173        0.107       36.286       14.240        0.154      343.067       18.919      865.327
11/11/2013  15:10:00       67.569      -85.695       -7.377       21.122       21.380       15.674      446.143      457.104      245.687        0.656        0.057      109.129        8.223        0.006      342.756       18.387      865.330
11/11/2013  15:11:00       90.882      -73.647       10.981       57.866       31.635       23.148     3348.467     1000.760      535.835        0.934        0.244      116.976       31.467        0.072      342.880       18.601      865.333
11/11/2013  15:12:00       71.591      -69.511       -0.531       29.571       38.101       21.370      874.446     1451.649      456.684        0.637        0.139       99.785       18.208        0.033      342.862       18.568      865.326
11/11/2013  15:13:00        9.230      -36.700        3.800       30.342       49.720       26.185      920.638     2472.068      685.656        0.276        0.204       37.842       23.951        0.401      342.940       18.701      865.327
11/11/2013  15:14:00       -6.947      -44.446        8.405       37.255       26.744       20.554     1387.962      715.263      422.465        0.231        0.126       44.985       16.209        0.130      343.046       18.882      865.328
11/11/2013  15:15:00       -1.036      -51.917       -8.162       43.117       25.405       22.641     1859.033      645.403      512.619        0.289        0.151       51.928        8.361        0.026      342.926       18.677      865.326
11/11/2013  15:16:00       48.205      -39.852       -0.609       23.458       21.500       18.786      550.268      462.258      352.912        0.264        0.068       62.545       12.474        0.040      342.807       18.473      865.324
11/11/2013  15:17:00        9.130       -0.030       16.807       11.571       24.649       12.524      133.888      607.594      156.845        0.063        0.045        9.130       11.871        1.691      342.910       18.650      865.316
11/11/2013  15:18:00        4.337       -1.294       13.638       14.928       21.424       14.938      222.833      458.996      223.138        0.056        0.045        4.526       14.395       10.114      342.904       18.640      865.314
11/11/2013  15:19:00       25.055      -34.491        7.266       29.692       31.354       19.213      881.602      983.061      369.150        0.205        0.112       42.631       17.628        0.171      342.890       18.616      865.310
11/11/2013  15:20:00       75.858       12.270       35.427       60.908       39.789       34.464     3709.834     1583.177     1187.798        0.682        0.324       76.844       35.083        0.208      342.798       18.459      865.299
11/11/2013  15:21:00       35.089      -32.702        6.731       52.731       50.587       19.083     2780.556     2559.039      364.174        0.402        0.285       47.965       19.355        0.163      342.908       18.648      865.286
11/11/2013  15:22:00       67.111      -80.214       -0.946       49.569       53.137       30.416     2457.120     2823.577      925.124        0.857        0.310      104.585       31.394        0.090      342.845       18.541      865.268
11/11/2013  15:23:00       49.228       -9.677       47.588       50.964       65.803       44.394     2597.324     4330.075     1970.786        0.684        0.445       50.170       46.673        0.865      342.873       18.587      865.259
11/11/2013  15:24:00       44.681      -25.885       37.252       45.813       58.199       33.574     2098.811     3387.169     1127.214        0.533        0.331       51.638       38.748        0.563      343.000       18.804      865.250
11/11/2013  15:25:00       51.437      -47.857       20.827       43.820       61.059       35.119     1920.154     3728.175     1233.329        0.612        0.344       70.257       37.978        0.292      342.894       18.623      865.252
11/11/2013  15:26:00       75.873      -53.344       23.812       52.831       76.476       41.263     2791.149     5848.606     1702.600        0.975        0.517       92.749       58.009        0.391      342.874       18.590      865.257
11/11/2013  15:27:00       27.498       -8.283       42.214       51.042       68.276       41.198     2605.331     4661.580     1697.302        0.578        0.448       28.719       45.488        2.509      342.938       18.700      865.260
11/11/2013  15:28:00       73.814       73.355       52.065       47.085       33.977       38.698     2217.017     1154.455     1497.503        0.920        0.243      104.064       32.381        0.097      342.768       18.409      865.279
11/11/2013  15:29:00       26.522       30.421       37.365       45.972       30.029       22.201     2113.395      901.738      492.878        0.327        0.175       40.359       13.595        0.113      342.907       18.646      865.289
11/11/2013  15:30:00        5.660       29.056       51.103       20.472       24.335       15.878      419.104      592.215      252.107        0.238        0.063       29.602       11.076        0.140      343.002       18.807      865.295
11/11/2013  15:31:00        5.083        0.573       29.141       16.998       27.685       20.979      288.917      766.473      440.139        0.119        0.075        5.115       20.687       16.357      343.029       18.852      865.300
11/11/2013  15:32:00       50.933       -0.638       27.887       66.420       55.663       34.943     4411.561     3098.347     1221.010        0.605        0.437       50.937       43.403        0.726      342.883       18.604      865.304
11/11/2013  15:33:00       29.853      -18.318       24.584       30.878       36.823       33.638      953.457     1355.950     1131.491        0.264        0.172       35.025       32.152        0.843      342.934       18.691      865.311
11/11/2013  15:34:00       33.348       13.468        3.281       30.598       32.117       19.166      936.224     1031.527      367.352        0.182        0.117       35.965       23.060        0.411      342.905       18.641      865.321
11/11/2013  15:35:00        5.220       24.439       24.138       22.346       23.693       25.142      499.326      561.355      632.128        0.145        0.085       24.991       21.988        0.774      342.806       18.473      865.332
11/11/2013  15:36:00       51.255       27.955        6.950       18.107       19.295       21.312      327.875      372.306      454.192        0.231        0.058       58.383       14.506        0.062      342.703       18.297      865.338
11/11/2013  15:37:00       27.712       18.818       -3.144       21.603       17.573       12.391      466.703      308.802      153.545        0.103        0.046       33.497       11.966        0.128      342.739       18.361      865.331
11/11/2013  15:38:00       10.873        7.744        6.764       27.695       24.563       13.083      767.031      603.365      171.170        0.088        0.077       13.349        8.278        0.385      342.734       18.349      865.322
11/11/2013  15:39:00       12.256      -21.509       -0.839       13.794       19.939       12.001      190.278      397.572      144.024        0.067        0.037       24.756       10.632        0.184      342.848       18.543      865.320
11/11/2013  15:40:00       -2.249       13.455        7.857        7.814       11.738        9.999       61.059      137.771       99.980        0.027        0.015       13.642        8.340        0.374      342.723       18.331      865.316
11/11/2013  15:41:00      -11.384      -11.004        5.563       18.021       17.191       11.667      324.752      295.544      136.108        0.052        0.038       15.833        7.584        0.229      342.917       18.661      865.321
11/11/2013  15:42:00      -12.274       -5.823        3.558       15.430        9.627       10.080      238.084       92.673      101.613        0.031        0.022       13.585        9.911        0.532      342.910       18.651      865.329
11/11/2013  15:43:00      -45.591      -18.535       -2.293       33.047       13.907       11.559     1092.089      193.397      133.601        0.192        0.071       49.215       13.033        0.070      342.843       18.536      865.344
11/11/2013  15:44:00      -24.352      -28.445        7.360       35.816       17.539       13.400     1282.753      307.608      179.552        0.161        0.088       37.445       14.509        0.150      342.859       18.563      865.355
11/11/2013  15:45:00       15.103       -5.766       -3.984       25.128       25.559       13.723      631.439      653.242      188.328        0.087        0.074       16.166       12.248        0.574      342.744       18.370      865.368
11/11/2013  15:46:00        5.134       -3.758       -0.210       15.958        8.870        7.270      254.646       78.680       52.849        0.021        0.019        6.363        5.891        0.857      342.834       18.521      865.381
11/11/2013  15:47:00      -40.073      -15.336        2.689       23.706       18.928       12.792      561.960      358.261      163.646        0.147        0.054       42.908       10.555        0.061      342.797       18.459      865.392
11/11/2013  15:48:00        1.847        7.777        5.800       10.413        7.615        6.261      108.434       57.981       39.202        0.015        0.010        7.993        3.522        0.194      342.799       18.459      865.402
11/11/2013  15:49:00      -11.036      -10.469        4.560        9.240        8.191        8.866       85.379       67.088       78.611        0.024        0.012       15.212        5.787        0.145      342.823       18.501      865.407
11/11/2013  15:50:00      -36.206      -19.991        0.976       14.695        9.036        9.414      215.936       81.652       88.627        0.105        0.019       41.358        8.641        0.044      342.847       18.542      865.408
11/11/2013  15:51:00      -41.503      -23.564       -0.353       19.497       12.738        8.675      380.146      162.245       75.256        0.145        0.031       47.726        5.986        0.016      342.712       18.315      865.409
11/11/2013  15:52:00      -40.092      -16.721        0.756       25.474       11.562       12.204      648.913      133.688      148.949        0.141        0.047       43.440       14.049        0.105      342.744       18.368      865.408
11/11/2013  15:53:00      -74.849      -22.582       -6.213       12.790       11.860        7.947      163.584      140.648       63.160        0.326        0.018       78.182        6.662        0.007      342.764       18.401      865.412
11/11/2013  15:54:00      -74.895      -34.342       -5.884       20.369       18.266       13.222      414.895      333.638      174.824        0.387        0.046       82.393        6.097        0.005      342.734       18.351      865.408
11/11/2013  15:55:00      -72.158      -54.154        3.704       31.216       19.219       15.940      974.454      369.354      254.085        0.488        0.080       90.219       18.645        0.043      342.781       18.432      865.411
11/11/2013  15:56:00      -86.959      -29.655       -5.373       21.103       20.038        9.619      445.333      401.507       92.532        0.470        0.047       91.876        4.983        0.003      342.813       18.484      865.417
11/11/2013  15:57:00      -42.764       -3.601        4.476       22.398       21.632       11.617      501.657      467.939      134.964        0.148        0.055       42.915       10.295        0.058      342.822       18.502      865.424
11/11/2013  15:58:00      -51.770      -19.409       -2.313       24.340       18.313       12.378      592.450      335.381      153.210        0.207        0.054       55.288       14.029        0.064      342.792       18.451      865.431
11/11/2013  15:59:00      -37.592       -6.253        5.875       29.524       17.175       12.189      871.653      294.997      148.565        0.140        0.066       38.109        8.551        0.050      342.773       18.417      865.454
11/11/2013  16:00:00      -41.313        7.729        3.595       19.862       15.397       11.526      394.508      237.077      132.841        0.127        0.038       42.029       10.793        0.066      342.806       18.474      865.459
11/11/2013  16:01:00      -52.148       -6.291        1.861       17.302       15.711       10.887      299.364      246.828      118.524        0.171        0.033       52.526        7.598        0.021      342.810       18.480      865.459
11/11/2013  16:02:00      -18.388       -0.558        6.438       16.675       13.644       12.497      278.062      186.157      156.175        0.050        0.031       18.396       11.701        0.405      342.744       18.368      865.449
11/11/2013  16:03:00      -33.121        7.851       -2.191       14.295       10.313        7.262      204.357      106.364       52.742        0.076        0.018       34.039        7.164        0.044      342.790       18.447      865.443
11/11/2013  16:04:00      -37.453       12.472        2.054       14.301       12.888        8.796      204.514      166.106       77.371        0.101        0.022       39.475        7.599        0.037      342.727       18.338      865.434
11/11/2013  16:05:00      -61.627        9.999       -5.326       13.634       10.566        8.761      185.885      111.637       76.750        0.215        0.019       62.433        7.424        0.014      342.771       18.414      865.441
11/11/2013  16:06:00      -54.541       -5.926       -4.111       18.543       16.368       11.013      343.854      267.922      121.287        0.188        0.037       54.862       11.592        0.045      342.578       18.086      865.442
11/11/2013  16:07:00      -66.030       -1.139       -4.091       16.551       13.279        9.326      273.944      176.337       86.979        0.246        0.027       66.040        5.161        0.006      342.541       18.023      865.439
11/11/2013  16:08:00      -65.292       -2.557       -4.969       20.508       10.842       11.626      420.559      117.539      135.158        0.248        0.034       65.343       11.000        0.028      342.450       17.868      865.437
11/11/2013  16:09:00      -45.769       21.558       -6.369       17.015       21.025        9.564      289.514      442.031       91.463        0.171        0.041       50.592        5.395        0.011      342.534       18.011      865.445
11/11/2013  16:10:00      -38.016      -13.558       -1.385       21.178       21.042       13.469      448.512      442.781      181.404        0.135        0.054       40.361       11.080        0.075      342.359       17.715      865.446
11/11/2013  16:11:00      -33.830        1.841       -2.997       15.241       19.770       15.546      232.287      390.852      241.678        0.101        0.043       33.880       10.101        0.089      342.361       17.718      865.443
11/11/2013  16:12:00      -43.645        2.887       -6.453       12.067       13.870        7.807      145.609      192.383       60.949        0.118        0.020       43.740        7.485        0.029      342.320       17.647      865.445
11/11/2013  16:13:00      -45.439       -5.032       -5.600       13.724       15.888       10.284      188.357      252.440      105.762        0.133        0.027       45.717        5.000        0.012      342.220       17.476      865.456
11/11/2013  16:14:00      -23.821       -1.796       -7.723       18.776       23.374       10.644      352.532      546.338      113.288        0.082        0.051       23.888        7.368        0.095      342.177       17.405      865.453
11/11/2013  16:15:00      -75.899       -5.936      -11.304       21.489       17.937       14.338      461.779      321.722      205.582        0.346        0.049       76.131       10.945        0.021      342.206       17.453      865.442
11/11/2013  16:16:00      -90.401       25.516      -11.072       37.407       19.822       21.417     1399.252      392.917      458.693        0.560        0.113       93.933       20.432        0.047      342.251       17.529      865.435
11/11/2013  16:17:00      -81.901       26.139       -8.037       26.038       23.077       15.688      677.967      532.546      246.103        0.446        0.073       85.971       10.733        0.016      342.192       17.431      865.433
11/11/2013  16:18:00      -95.572       35.361       -9.069       26.169       19.916       16.446      684.826      396.651      270.469        0.591        0.068      101.904       13.388        0.017      342.167       17.386      865.426
11/11/2013  16:19:00      -87.376       23.063       -6.196       28.790       16.151       14.747      828.856      260.867      217.478        0.476        0.065       90.368       12.888        0.020      342.108       17.287      865.415
11/11/2013  16:20:00      -93.088       17.339       -7.393       19.044       16.565       10.579      362.666      274.391      111.909        0.488        0.037       94.689        7.167        0.006      342.099       17.271      865.422
11/11/2013  16:21:00      -96.114       -2.918      -10.851       21.890       14.067       11.308      479.169      197.884      127.862        0.508        0.040       96.159       10.537        0.012      341.989       17.087      865.423
11/11/2013  16:22:00      -88.453      -17.923       -6.934       24.233       26.647       13.295      587.224      710.069      176.753        0.483        0.074       90.251       11.218        0.015      341.826       16.809      865.432
11/11/2013  16:23:00      -94.308      -30.812       -3.366       21.295       21.527       13.694      453.457      463.419      187.532        0.548        0.055       99.214        9.424        0.009      341.751       16.681      865.456
11/11/2013  16:24:00     -100.603      -18.522       -7.401       34.382       25.212       19.319     1182.143      635.657      373.215        0.635        0.110      102.294       21.274        0.043      341.666       16.538      865.479
11/11/2013  16:25:00      -99.704      -10.900       -3.170       36.717       28.276       20.400     1348.148      799.537      416.152        0.632        0.128      100.298       20.198        0.041      341.676       16.554      865.490
11/11/2013  16:26:00      -94.509       -1.336      -13.140       29.170       25.607       17.650      850.916      655.698      311.531        0.546        0.091       94.518       16.124        0.029      341.727       16.640      865.511
11/11/2013  16:27:00      -93.876        6.566      -10.597       33.880       24.113       16.315     1147.857      581.423      266.180        0.548        0.100       94.105       13.602        0.021      341.709       16.610      865.523
11/11/2013  16:28:00      -69.782        7.080      -12.394       36.090       24.594       13.806     1302.522      604.875      190.604        0.359        0.105       70.140       14.438        0.042      341.612       16.446      865.523
11/11/2013  16:29:00      -77.481        1.168       -6.521       22.310       25.698       14.557      497.748      660.404      211.914        0.371        0.069       77.490        4.882        0.004      341.673       16.548      865.535
11/11/2013  16:30:00      -65.958       -1.162       -7.350       18.413       21.531       11.915      339.056      463.605      141.964        0.268        0.047       65.968        6.410        0.009      341.668       16.541      865.534
11/11/2013  16:31:00      -62.837       -9.300       -9.527       14.684       20.901       12.406      215.622      436.841      153.918        0.247        0.040       63.521        6.616        0.011      341.683       16.567      865.530
11/11/2013  16:32:00      -70.610      -22.510      -11.190       13.821       13.610        8.577      191.022      185.231       73.560        0.303        0.022       74.111        4.745        0.004      341.550       16.339      865.538
11/11/2013  16:33:00      -76.415      -28.574      -10.563       17.267       13.005       11.170      298.142      169.138      124.774        0.368        0.030       81.583        7.967        0.010      341.443       16.158      865.534
11/11/2013  16:34:00      -85.284      -45.745      -13.713       18.232       21.661       13.958      332.394      469.202      194.815        0.528        0.050       96.778       13.260        0.019      341.404       16.093      865.542
11/11/2013  16:35:00      -81.286      -51.425       -4.137       29.992       27.156       20.304      899.517      737.472      412.268        0.566        0.102       96.187       19.532        0.041      341.263       15.854      865.555
11/11/2013  16:36:00     -107.338      -49.431      -10.859       20.803       21.557       14.096      432.779      464.703      198.707        0.759        0.055      118.173       10.625        0.008      341.065       15.520      865.556
11/11/2013  16:37:00      -59.052      -48.583       -5.368       34.789       26.750       19.825     1210.307      715.583      393.041        0.410        0.116       76.469       20.456        0.072      340.948       15.319      865.571
11/11/2013  16:38:00      -51.106      -31.175        1.958       44.582       31.204       28.136     1987.588      973.717      791.650        0.367        0.188       59.864       25.989        0.188      340.888       15.220      865.568
11/11/2013  16:39:00      -68.095       -7.214       -3.953       38.577       28.514       19.478     1488.168      813.050      379.398        0.369        0.134       68.476       14.738        0.046      340.901       15.241      865.564
11/11/2013  16:40:00      -52.867       -8.780        0.941       46.288       34.902       20.627     2142.565     1218.151      425.459        0.333        0.189       53.592       12.645        0.056      340.979       15.373      865.550
11/11/2013  16:41:00      -77.207      -24.067        3.191       45.559       31.924       21.995     2075.583     1019.144      483.785        0.506        0.179       80.871       16.532        0.042      340.989       15.391      865.544
11/11/2013  16:42:00      -83.424      -25.943       -2.888       28.213       28.267       16.292      795.969      799.029      265.435        0.475        0.093       87.365        9.281        0.011      340.847       15.150      865.548
11/11/2013  16:43:00      -70.041      -27.814       -3.561       49.017       32.078       20.557     2402.675     1029.029      422.588        0.477        0.193       75.362       16.431        0.048      340.878       15.203      865.547
11/11/2013  16:44:00      -90.602      -11.871       -6.914       43.909       28.752       22.904     1927.968      826.656      524.611        0.584        0.164       91.377       20.125        0.049      340.953       15.330      865.559
11/11/2013  16:45:00      -78.542      -21.553       -1.803       48.994       41.258       25.922     2400.377     1702.200      671.941        0.570        0.239       81.445       24.138        0.088      340.912       15.260      865.563
11/11/2013  16:46:00      -81.354        4.780       -8.071       40.318       31.756       19.996     1625.565     1008.443      399.852        0.487        0.152       81.495       15.274        0.035      341.018       15.440      865.573
11/11/2013  16:47:00     -142.345       -6.214      -11.514       38.502       34.550       21.855     1482.414     1193.668      477.650        1.179        0.158      142.480       20.288        0.020      340.869       15.187      865.585
11/11/2013  16:48:00     -107.024      -13.637       -7.926       44.616       31.878       20.951     1990.566     1016.217      438.941        0.757        0.172      107.889       18.519        0.029      340.750       14.986      865.598
11/11/2013  16:49:00     -117.924      -15.734       -3.641       30.403       28.699       19.961      924.320      823.623      398.429        0.816        0.107      118.969       16.893        0.020      340.631       14.785      865.620
11/11/2013  16:50:00     -110.452      -10.339       -9.397       33.602       19.289       16.699     1129.096      372.046      278.840        0.709        0.089      110.934       15.469        0.019      340.537       14.625      865.628
11/11/2013  16:51:00     -104.524       -3.641       -7.939       31.218       20.204       15.903      974.543      408.212      252.911        0.632        0.082      104.588       16.336        0.024      340.632       14.787      865.625
11/11/2013  16:52:00      -99.936      -17.444       -4.284       25.375       17.541       15.106      643.878      307.688      228.180        0.574        0.059      101.447       10.764        0.011      340.730       14.952      865.628
11/11/2013  16:53:00     -100.541      -28.199       -4.922       23.401       17.437       12.420      547.619      304.033      154.257        0.597        0.050      104.421       10.020        0.009      340.580       14.699      865.627
11/11/2013  16:54:00     -113.477      -18.007       -8.667       46.304       29.806       19.516     2144.074      888.403      380.886        0.834        0.171      114.896       20.296        0.031      340.428       14.442      865.643
11/11/2013  16:55:00     -118.942       -2.812       -9.782       28.185       18.533       14.639      794.402      343.483      214.295        0.780        0.068      118.975       14.110        0.014      340.422       14.431      865.645
11/11/2013  16:56:00      -97.090       -9.554       -2.855       35.101       17.564       15.189     1232.048      308.491      230.716        0.565        0.089       97.559       15.678        0.026      340.339       14.292      865.658
11/11/2013  16:57:00      -99.210      -14.913       -4.818       38.849       19.311       16.139     1509.277      372.899      260.467        0.612        0.107      100.324       20.021        0.040      340.341       14.295      865.675
11/11/2013  16:58:00     -106.970      -10.494       -5.687       42.540       26.890       15.848     1809.631      723.087      251.150        0.718        0.139      107.483       13.262        0.015      340.454       14.485      865.684
11/11/2013  16:59:00      -77.788      -11.038        4.509       33.034       21.225       19.766     1091.271      450.492      390.712        0.406        0.097       78.567       20.673        0.069      340.507       14.575      865.686
11/11/2013  17:00:00      -80.500      -14.098       -0.180       37.565       21.715       15.822     1411.117      471.528      250.344        0.441        0.107       81.725       16.519        0.041      340.580       14.698      865.681
11/11/2013  17:01:00      -97.059      -21.618       -1.317       36.078       21.047       17.257     1301.601      442.961      297.796        0.597        0.102       99.437       18.359        0.034      340.543       14.636      865.678
11/11/2013  17:02:00     -123.559      -34.506       -8.545       20.069       15.521       13.804      402.769      240.909      190.560        0.868        0.042      128.287       10.367        0.007      340.613       14.754      865.678
11/11/2013  17:03:00     -130.492      -33.047       -1.626       27.675       23.115       15.827      765.890      534.324      250.493        0.984        0.078      134.612       15.261        0.013      340.613       14.754      865.684
11/11/2013  17:04:00     -142.505      -37.216       -9.842       26.538       18.240       14.797      704.269      332.711      218.949        1.152        0.063      147.285       15.136        0.011      340.546       14.642      865.693
11/11/2013  17:05:00     -143.962      -36.560       -7.654       31.218       23.209       18.072      974.545      538.645      326.603        1.198        0.092      148.532       18.519        0.016      340.446       14.472      865.694
11/11/2013  17:06:00     -129.810      -28.824       -3.030       43.318       29.450       24.265     1876.455      867.302      588.802        1.051        0.167      132.972       18.235        0.019      340.507       14.576      865.703
11/11/2013  17:07:00     -172.670      -39.199        2.409       41.628       38.227       23.615     1732.888     1461.305      557.689        1.755        0.188      177.064       18.129        0.010      340.817       15.098      865.706
11/11/2013  17:08:00     -135.110      -55.168        3.603       61.323       35.146       21.556     3760.556     1235.244      464.659        1.338        0.273      145.939       20.959        0.021      340.797       15.065      865.712
11/11/2013  17:09:00     -123.966      -31.538        4.329       57.515       45.773       24.280     3307.998     2095.178      589.509        1.119        0.300      127.915       30.581        0.057      340.820       15.106      865.718
11/11/2013  17:10:00     -127.674      -46.377       -5.357       30.548       27.678       19.165      933.167      766.084      367.285        1.027        0.103      135.837       15.650        0.013      340.736       14.962      865.709
11/11/2013  17:11:00     -113.670      -29.071       -1.250       33.653       29.100       18.290     1132.507      846.790      334.540        0.804        0.116      117.329       16.955        0.021      340.561       14.667      865.709
11/11/2013  17:12:00     -130.867      -46.015       -0.760       29.338       26.983       16.066      860.721      728.098      258.106        1.055        0.092      138.721       14.331        0.011      340.493       14.550      865.709
11/11/2013  17:13:00     -109.158      -34.556        3.815       39.311       28.789       21.957     1545.335      828.801      482.115        0.799        0.143      114.497       21.423        0.035      340.321       14.261      865.707
11/11/2013  17:14:00     -125.411      -21.050       -2.951       30.459       23.265       17.604      927.744      541.240      309.887        0.898        0.089      127.166       17.416        0.019      340.193       14.044      865.712
11/11/2013  17:15:00     -115.699      -24.944       -1.687       35.564       24.119       17.094     1264.810      581.721      292.219        0.807        0.107      118.357       17.766        0.023      340.139       13.952      865.716
11/11/2013  17:16:00     -131.601      -13.076       -7.333       30.657       17.100       15.807      939.855      292.400      249.857        0.951        0.074      132.249       16.435        0.015      340.203       14.060      865.711
11/11/2013  17:17:00     -145.206      -30.013       -9.336       26.823       20.148       19.355      719.449      405.942      374.607        1.179        0.075      148.276       18.490        0.016      340.246       14.134      865.710
11/11/2013  17:18:00     -135.878      -32.478       -7.511       23.156       21.608       17.182      536.179      466.922      295.212        1.044        0.065      139.706       12.592        0.008      340.153       13.977      865.702
11/11/2013  17:19:00     -132.220      -33.397       -8.932       21.627       26.066       13.004      467.737      679.461      169.100        1.000        0.066      136.372        8.926        0.004      340.094       13.877      865.707
11/11/2013  17:20:00     -141.403      -38.372      -11.429       21.814       18.101       13.480      475.838      327.636      181.707        1.129        0.049      146.517       12.075        0.007      340.017       13.749      865.708
11/11/2013  17:21:00     -130.262      -60.104       -8.186       18.285       26.703       12.740      334.356      713.064      162.301        1.093        0.060      143.460       11.796        0.007      340.093       13.876      865.720
11/11/2013  17:22:00     -119.204      -48.352      -10.864       24.598       24.675       16.797      605.037      608.835      282.128        0.908        0.075      128.637       13.251        0.011      340.073       13.843      865.740
11/11/2013  17:23:00     -126.536      -24.158      -12.070       27.077       17.353       10.517      733.168      301.113      110.616        0.894        0.057      128.822       11.760        0.008      339.990       13.703      865.754
11/11/2013  17:24:00     -138.726      -35.540       -9.553       13.081       15.568       10.222      171.110      242.349      104.479        1.056        0.026      143.206        8.359        0.003      339.917       13.578      865.779
11/11/2013  17:25:00     -142.814      -23.501      -13.659       22.714       20.768       15.240      515.906      431.308      232.260        1.116        0.059      144.734       13.210        0.008      339.884       13.522      865.798
11/11/2013  17:26:00     -133.088       -5.057      -12.646       31.303       17.712       16.769      979.905      313.732      281.197        0.974        0.079      133.184       15.770        0.014      339.816       13.409      865.800
11/11/2013  17:27:00     -115.686       -3.905       -7.204       52.814       19.599       20.057     2789.368      384.135      402.267        0.851        0.179      115.751       28.719        0.062      339.705       13.223      865.803
11/11/2013  17:28:00     -108.540      -10.790       -3.366       52.799       28.272       25.850     2787.725      799.303      668.227        0.808        0.213      109.075       23.759        0.047      339.724       13.255      865.800
11/11/2013  17:29:00     -130.733      -26.765       -5.535       46.859       33.845       25.344     2195.813     1145.514      642.320        1.091        0.199      133.444       24.081        0.033      339.641       13.113      865.800
11/11/2013  17:30:00     -120.426      -35.127       -4.713       34.733       31.666       23.162     1206.362     1002.713      536.493        0.925        0.137      125.445       18.964        0.023      339.583       13.016      865.810
11/11/2013  17:31:00     -120.034      -19.694       -1.327       44.266       24.062       22.058     1959.519      578.996      486.555        0.891        0.151      121.639       22.154        0.033      339.501       12.878      865.829
11/11/2013  17:32:00     -130.380      -30.089       -3.811       41.190       29.424       21.160     1696.649      865.744      447.734        1.046        0.151      133.807       23.208        0.030      339.575       13.002      865.855
11/11/2013  17:33:00     -151.573      -26.265       -7.092       35.797       23.002       20.163     1281.413      529.101      406.547        1.297        0.111      153.831       20.044        0.017      339.568       12.991      865.872
11/11/2013  17:34:00     -138.501      -55.685       -7.351       30.386       25.233       18.754      923.322      636.700      351.714        1.212        0.096      149.276       11.114        0.006      339.605       13.052      865.894
11/11/2013  17:35:00     -140.095      -58.651        2.725       35.762       30.005       21.929     1278.924      900.304      480.879        1.287        0.133      151.877       21.165        0.019      339.632       13.098      865.906
11/11/2013  17:36:00     -140.237      -42.902       -3.056       31.345       24.211       19.463      982.532      586.182      378.812        1.173        0.097      146.652       19.111        0.017      339.695       13.205      865.925
11/11/2013  17:37:00     -117.684      -42.421        1.289       28.967       25.625       19.434      839.096      656.635      377.671        0.876        0.094      125.097       17.011        0.018      339.655       13.137      865.941
11/11/2013  17:38:00     -118.156      -39.128        3.645       28.653       22.076       15.068      821.011      487.340      227.037        0.852        0.077      124.466       14.587        0.014      339.632       13.098      865.953
11/11/2013  17:39:00     -104.882      -43.801        4.225       34.847       26.442       20.619     1214.299      699.195      425.150        0.764        0.117      113.661       18.592        0.027      339.629       13.094      865.966
11/11/2013  17:40:00     -117.576      -32.399        0.651       37.687       27.808       16.351     1420.320      773.308      267.360        0.867        0.123      121.959       20.724        0.029      339.676       13.174      865.964
11/11/2013  17:41:00      -81.414      -37.648        5.124       35.144       25.439       17.256     1235.070      647.156      297.779        0.513        0.109       89.697       18.171        0.041      339.622       13.082      865.971
11/11/2013  17:42:00     -119.391      -57.505        1.048       30.434       29.743       20.472      926.248      884.658      419.089        0.990        0.111      132.518       17.772        0.018      339.738       13.277      865.962
11/11/2013  17:43:00      -95.076      -51.240       -1.534       29.683       25.589       19.258      881.097      654.816      370.888        0.679        0.095      108.004       13.094        0.015      339.681       13.181      865.963
11/11/2013  17:44:00     -123.796      -74.703       -5.176       25.174       22.054       17.194      633.749      486.397      295.619        1.117        0.071      144.589       12.021        0.007      339.740       13.281      865.965
11/11/2013  17:45:00      -94.164      -75.513        0.967       43.664       39.802       18.289     1906.571     1584.233      334.485        0.920        0.191      120.702       18.852        0.024      339.706       13.225      865.983
11/11/2013  17:46:00     -141.461      -85.163        0.198       47.340       31.072       25.482     2241.036      965.442      649.334        1.556        0.193      165.118       27.220        0.027      339.857       13.478      865.990
11/11/2013  17:47:00     -132.274      -55.396       -7.336       25.530       27.668       14.840      651.756      765.517      220.237        1.113        0.082      143.406       12.094        0.007      339.787       13.361      866.012
11/11/2013  17:48:00     -131.407      -32.400       -0.573       34.783       34.994       24.542     1209.871     1224.546      602.290        1.068        0.152      135.343       22.952        0.029      339.830       13.434      866.038
11/11/2013  17:49:00     -129.153      -43.308       -5.445       28.793       26.419       16.276      829.009      697.948      264.921        1.019        0.090      136.220       14.789        0.012      339.905       13.559      866.064
11/11/2013  17:50:00     -143.299      -54.911       -6.823       32.560       24.908       16.351     1060.168      620.421      267.370        1.277        0.097      153.460       14.658        0.009      340.042       13.790      866.094
11/11/2013  17:51:00     -151.190      -43.273       -8.127       24.653       27.270       17.634      607.762      743.660      310.950        1.323        0.083      157.261       16.929        0.012      340.081       13.855      866.105
11/11/2013  17:52:00     -141.913      -42.618      -11.480       32.306       20.388       17.264     1043.681      415.682      298.039        1.192        0.088      148.174       17.201        0.013      340.061       13.822      866.126
11/11/2013  17:53:00      -90.055      -18.439       -1.626       38.075       30.690       19.914     1449.707      941.904      396.574        0.562        0.139       91.924       21.051        0.052      339.990       13.703      866.131
11/11/2013  17:54:00     -116.826        3.439       -4.474       36.431       29.506       19.287     1327.224      870.605      371.989        0.812        0.128      116.877       17.679        0.023      340.188       14.036      866.153
11/11/2013  17:55:00      -82.295      -23.876       -2.828       27.473       36.197       17.284      754.787     1310.212      298.749        0.486        0.118       85.689       12.028        0.020      340.010       13.735      866.163
11/11/2013  17:56:00      -85.852      -33.370       -4.926       25.085       15.431        9.228      629.245      238.116       85.160        0.473        0.048       92.109        8.238        0.008      339.889       13.533      866.174
11/11/2013  17:57:00      -55.100      -38.384       -0.575       32.195       19.374       16.923     1036.527      375.359      286.376        0.310        0.085       67.152       20.198        0.090      339.997       13.714      866.171
11/11/2013  17:58:00      -20.929      -28.325        2.823       29.017       14.895       15.964      842.014      221.850      254.853        0.128        0.066       35.219       11.585        0.108      339.914       13.575      866.171
11/11/2013  17:59:00      -60.254      -27.751       -2.254       19.724       11.306        8.850      389.055      127.821       78.322        0.250        0.030       66.338       10.423        0.025      339.741       13.284      866.163
11/11/2013  18:00:00      -61.704      -25.050       -4.436       17.916       10.237        5.435      320.965      104.790       29.544        0.245        0.023       66.595        2.939        0.002      339.733       13.269      866.164
11/11/2013  18:01:00      -61.109      -21.150       -1.964       15.815       10.221        8.220      250.107      104.469       67.571        0.230        0.021       64.665        7.689        0.014      339.658       13.144      866.177
11/11/2013  18:02:00      -84.656       -6.273       -8.897       17.912       13.479        8.162      320.839      181.680       66.619        0.393        0.028       84.888        7.934        0.009      339.676       13.172      866.182
11/11/2013  18:03:00      -90.250       -5.766       -5.045       24.410       15.010       12.330      595.871      225.304      152.028        0.459        0.049       90.434       12.841        0.020      339.646       13.122      866.196
11/11/2013  18:04:00      -69.645      -24.167        3.282       28.732       21.297       14.663      825.515      453.554      214.994        0.347        0.075       73.718       12.867        0.030      339.640       13.113      866.193
11/11/2013  18:05:00      -45.401      -25.544       -1.381       28.372       20.650       12.026      804.970      426.411      144.627        0.205        0.069       52.094        8.550        0.027      339.558       12.974      866.201
11/11/2013  18:06:00     -123.119      -30.955      -13.538       10.499        9.470        7.894      110.233       89.687       62.309        0.828        0.013      126.951        4.526        0.001      339.654       13.136      866.208
11/11/2013  18:07:00     -123.842      -27.018      -10.737       11.598       12.098       11.378      134.523      146.351      129.457        0.830        0.021      126.755        6.810        0.003      339.623       13.084      866.193
11/11/2013  18:08:00      -86.811      -24.458       -1.587       26.479       13.068       10.123      701.147      170.765      102.478        0.456        0.049       90.190        8.924        0.010      339.508       12.889      866.186
11/11/2013  18:09:00      -26.585      -22.450       -0.299       18.492        9.414        9.204      341.951       88.627       84.709        0.086        0.026       34.796        4.625        0.018      339.425       12.750      866.175
11/11/2013  18:10:00      -84.491      -24.735      -10.043       16.616       11.438        7.809      276.089      130.835       60.979        0.416        0.023       88.038        3.585        0.002      339.496       12.869      866.174
11/11/2013  18:11:00     -108.467      -31.405      -11.010       12.067       12.811        8.221      145.623      164.131       67.578        0.662        0.019      112.922        5.150        0.002      339.441       12.778      866.187
11/11/2013  18:12:00     -139.209      -11.627      -16.904       18.093       12.939       12.589      327.341      167.424      158.484        1.023        0.033      139.694        7.817        0.003      339.322       12.575      866.195
11/11/2013  18:13:00      -92.617      -32.160       -2.184       27.806       21.131       17.298      773.190      446.509      299.208        0.557        0.076       98.042       12.162        0.015      339.227       12.416      866.194
11/11/2013  18:14:00     -104.358      -26.270       -4.649       27.155       21.635       16.425      737.381      468.078      269.778        0.654        0.074      107.614       14.310        0.018      339.146       12.281      866.207
11/11/2013  18:15:00     -105.376      -22.275       -4.335       30.333       15.219       14.903      920.107      231.622      222.101        0.650        0.069      107.704       14.781        0.019      339.128       12.250      866.217
11/11/2013  18:16:00     -105.715      -24.020       -6.526       25.822       21.046       13.928      666.780      442.925      193.986        0.655        0.065      108.410       13.597        0.016      339.143       12.274      866.235
11/11/2013  18:17:00     -101.048      -18.373       -3.240       30.121       28.011       19.921      907.262      784.610      396.862        0.632        0.104      102.705       19.401        0.036      339.042       12.105      866.268
11/11/2013  18:18:00      -91.333      -19.509       -3.338       26.897       17.511       14.890      723.432      306.641      221.707        0.499        0.063       93.394       13.159        0.020      338.990       12.016      866.279
11/11/2013  18:19:00      -64.536      -26.542      -11.959       32.330       21.542       13.919     1045.197      464.048      193.737        0.336        0.085       69.780       11.430        0.027      339.005       12.043      866.294
11/11/2013  18:20:00      -67.086      -15.810       -6.074       18.142       18.224       13.086      329.149      332.099      171.250        0.281        0.042       68.924        6.733        0.010      339.003       12.040      866.313
11/11/2013  18:21:00      -69.893      -31.692      -16.699       21.666       19.037       13.202      469.427      362.412      174.289        0.359        0.050       76.743        9.335        0.015      338.989       12.015      866.323
11/11/2013  18:22:00      -84.375      -27.594       -9.521       22.971       16.851       11.958      527.685      283.964      142.983        0.446        0.048       88.773        9.822        0.012      338.912       11.887      866.341
11/11/2013  18:23:00      -88.216      -32.634      -13.898       11.523       14.205        8.473      132.780      201.793       71.798        0.472        0.020       94.059        8.668        0.008      338.864       11.807      866.356
11/11/2013  18:24:00      -89.921      -22.013      -15.242       12.908       15.680       10.222      166.604      245.869      104.498        0.466        0.026       92.576        5.604        0.004      338.840       11.765      866.360
11/11/2013  18:25:00      -74.076      -45.041       -6.515       29.635       19.748       15.752      878.225      389.972      248.126        0.454        0.076       86.694       13.259        0.023      338.833       11.753      866.379
11/11/2013  18:26:00      -96.453      -56.378       -5.620       24.642       22.091       15.536      607.212      487.995      241.381        0.692        0.067      111.722       14.667        0.017      338.789       11.682      866.388
11/11/2013  18:27:00     -120.408      -33.025       -8.779       33.889       17.573       17.439     1148.455      308.808      304.135        0.871        0.088      124.855       20.585        0.027      338.905       11.873      866.386
11/11/2013  18:28:00      -89.165      -12.856      -10.614       22.386       14.178       12.116      501.131      201.024      146.805        0.454        0.042       90.087       10.342        0.013      338.898       11.861      866.373
11/11/2013  18:29:00      -73.704      -27.786       -2.606       18.968       15.375       10.053      359.791      236.376      101.072        0.345        0.035       78.767        7.158        0.008      338.948       11.947      866.350
11/11/2013  18:30:00      -96.207      -38.236       -2.828       32.232       18.050       12.746     1038.913      325.802      162.456        0.613        0.076      103.527       15.433        0.022      338.862       11.802      866.349
11/11/2013  18:31:00     -105.809      -44.423       -4.147       22.297       27.297       12.527      497.157      745.151      156.935        0.729        0.070      114.756       11.403        0.010      338.772       11.650      866.348
11/11/2013  18:32:00     -109.466      -35.577       -0.681       27.018       17.703       14.122      729.955      313.387      199.423        0.725        0.062      115.102       13.398        0.014      338.716       11.556      866.339
11/11/2013  18:33:00     -108.446      -42.354       -3.461       29.977       20.719       16.610      898.628      429.278      275.887        0.758        0.080      116.423       14.298        0.015      338.708       11.544      866.351
11/11/2013  18:34:00     -132.905      -45.203        4.402       31.403       23.330       17.356      986.135      544.294      301.218        1.078        0.092      140.382       17.187        0.015      338.814       11.722      866.349
11/11/2013  18:35:00     -129.233      -45.811        2.711       35.876       22.236       15.943     1287.081      494.421      254.171        1.042        0.102      137.113       15.839        0.013      338.868       11.812      866.346
11/11/2013  18:36:00     -116.381      -36.022        2.545       37.774       27.499       15.861     1426.852      756.185      251.586        0.864        0.122      121.828       14.106        0.013      338.867       11.811      866.346
11/11/2013  18:37:00     -106.772      -49.863        5.788       33.389       26.417       18.921     1114.847      697.876      357.987        0.805        0.109      117.842       15.367        0.017      338.881       11.833      866.351
11/11/2013  18:38:00      -94.458      -31.991        3.280       44.661       30.815       16.316     1994.646      949.537      266.228        0.658        0.161       99.728       20.329        0.042      338.838       11.760      866.362
11/11/2013  18:39:00      -59.827       -4.239        1.238       27.070       23.818       17.483      732.809      567.286      305.642        0.260        0.080       59.977       13.351        0.050      338.761       11.632      866.352
11/11/2013  18:40:00      -92.635       11.466       -0.727       24.267       18.191       13.418      588.879      330.909      180.042        0.491        0.055       93.342        9.462        0.010      338.813       11.719      866.367
11/11/2013  18:41:00     -101.630       -8.114       -6.888       16.504       17.519       11.632      272.379      306.918      135.309        0.558        0.036      101.953        6.860        0.005      338.850       11.781      866.386
11/11/2013  18:42:00     -139.197        9.008      -11.893       20.779       16.760       14.525      431.772      280.912      210.977        1.026        0.046      139.488       11.541        0.007      338.933       11.922      866.422
11/11/2013  18:43:00     -118.666       -9.252       -6.237       23.319       22.854       14.435      543.775      522.325      208.369        0.774        0.064      119.026       11.989        0.010      338.799       11.695      866.432
11/11/2013  18:44:00     -105.500      -37.937       -2.825       27.810       27.816       17.016      773.369      773.731      289.549        0.721        0.092      112.113       14.047        0.016      338.573       11.316      866.438
11/11/2013  18:45:00     -108.778      -24.853       -3.219       34.248       32.075       19.307     1172.914     1028.776      372.778        0.752        0.129      111.581       17.220        0.024      338.565       11.303      866.456
11/11/2013  18:46:00      -91.917      -44.675       -4.497       44.575       34.302       22.660     1986.924     1176.641      513.462        0.707        0.184      102.199       23.654        0.054      338.395       11.016      866.462
11/11/2013  18:47:00      -72.752      -45.146      -11.298       24.392       19.899       11.876      594.973      395.972      141.031        0.430        0.057       85.621        7.254        0.007      338.280       10.824      866.480
11/11/2013  18:48:00      -58.598      -31.185       -5.709       27.964       24.179       12.346      781.958      584.640      152.418        0.298        0.076       66.379        8.513        0.016      338.248       10.769      866.497
11/11/2013  18:49:00      -69.036      -28.434       -1.398       30.055       18.685       17.474      903.286      349.115      305.324        0.357        0.078       74.662       18.748        0.063      338.315       10.883      866.506
11/11/2013  18:50:00     -118.454      -59.200       -6.823       31.203       30.625       22.050      973.602      937.866      486.186        0.999        0.120      132.423       18.374        0.019      338.434       11.083      866.520
11/11/2013  18:51:00     -137.108      -66.334        0.851       35.657       27.123       16.101     1271.404      735.651      259.230        1.273        0.113      152.312       16.016        0.011      338.506       11.203      866.537
11/11/2013  18:52:00     -128.293      -56.737       -6.358       33.757       28.060       24.665     1139.566      787.339      608.350        1.113        0.127      140.278       21.520        0.024      338.484       11.167      866.534
11/11/2013  18:53:00     -124.057      -53.137       -2.648       45.984       37.813       21.329     2114.505     1429.856      454.907        1.111        0.200      134.958       21.387        0.025      338.507       11.204      866.543
11/11/2013  18:54:00     -103.838      -30.541       -0.489       40.425       35.023       19.860     1634.154     1226.639      394.419        0.748        0.163      108.236       19.088        0.031      338.472       11.146      866.548
11/11/2013  18:55:00     -145.410      -61.440       -6.782       30.408       25.547       17.897      924.627      652.660      320.311        1.343        0.095      157.858       13.901        0.008      338.479       11.158      866.549
11/11/2013  18:56:00     -120.084      -26.530      -11.664       31.627       25.518       18.471     1000.239      651.179      341.186        0.863        0.100      122.980       14.113        0.013      338.418       11.056      866.565
11/11/2013  18:57:00     -106.251      -47.703       -4.687       29.613       27.538       18.270      876.923      758.364      333.778        0.778        0.098      116.468       17.791        0.023      338.345       10.933      866.587
11/11/2013  18:58:00      -99.171      -40.274       -2.053       29.145       25.073       19.252      849.417      628.641      370.656        0.665        0.092      107.037       16.209        0.023      338.321       10.894      866.595
11/11/2013  18:59:00     -112.230      -41.687       -2.405       29.799       29.369       17.271      887.999      862.525      298.291        0.819        0.102      119.722       14.809        0.015      338.319       10.889      866.618
11/11/2013  19:00:00     -114.831       -9.314       -4.609       41.836       23.891       21.833     1750.248      570.768      476.684        0.805        0.140      115.208       21.650        0.035      338.233       10.744      866.638
11/11/2013  19:01:00     -111.400      -37.467       -4.066       19.854       14.344       12.146      394.182      205.755      147.522        0.729        0.037      117.532        9.294        0.006      338.226       10.733      866.659
11/11/2013  19:02:00     -113.746      -30.440       -8.511       15.218       13.291        9.701      231.600      176.664       94.119        0.722        0.025      117.748        7.913        0.005      338.195       10.682      866.694
11/11/2013  19:03:00     -120.388       -1.588      -12.364       28.166       20.381       13.247      793.330      415.372      175.471        0.802        0.069      120.399       11.755        0.010      338.265       10.800      866.708
11/11/2013  19:04:00     -101.696      -11.665       -7.821       40.753       18.701       14.806     1660.798      349.743      219.227        0.638        0.111      102.363       16.935        0.027      338.219       10.722      866.738
11/11/2013  19:05:00     -134.903      -10.458      -17.288       13.464       12.071       13.930      181.272      145.714      194.056        0.956        0.026      135.308        7.865        0.003      338.350       10.941      866.762
11/11/2013  19:06:00     -142.538        1.384      -14.675        5.872        7.802        5.741       34.484       60.865       32.955        1.033        0.006      142.544        3.159        0.000      338.461       11.130      866.765
11/11/2013  19:07:00     -135.220        5.219      -14.134        9.266        7.603        6.800       85.867       57.812       46.234        0.935        0.009      135.321        3.512        0.001      338.442       11.096      866.785
11/11/2013  19:08:00     -131.774        6.560      -14.243       10.687       10.762        9.587      114.205      115.812       91.914        0.897        0.016      131.938        5.184        0.002      338.298       10.855      866.794
11/11/2013  19:09:00     -105.774        2.996      -10.265       22.007       17.796       10.940      484.326      316.692      119.676        0.611        0.046      105.816       10.500        0.010      338.244       10.763      866.796
11/11/2013  19:10:00     -101.600       13.960       -6.744       24.609       24.655       13.156      605.598      607.890      173.085        0.597        0.069      102.554        8.827        0.007      338.226       10.734      866.803
11/11/2013  19:11:00     -132.381       14.594      -13.283       39.071       28.793       23.869     1526.518      829.050      569.709        1.042        0.146      133.183       23.247        0.030      338.355       10.950      866.816
11/11/2013  19:12:00      -61.078      -30.034       -5.259       42.758       25.852       22.144     1828.229      668.324      490.347        0.382        0.149       68.063       20.496        0.091      338.133       10.577      866.827
11/11/2013  19:13:00      -74.851      -11.262      -17.222       27.381       26.431       15.967      749.701      698.576      254.948        0.386        0.085       75.694       11.258        0.022      338.141       10.590      866.858
11/11/2013  19:14:00      -73.734       17.703       -5.064       35.489       35.122       26.703     1259.504     1233.544      713.027        0.449        0.160       75.830       23.820        0.099      338.165       10.631      866.878
11/11/2013  19:15:00     -106.595       14.491      -18.877       34.177       34.379       21.601     1168.101     1181.882      466.597        0.737        0.141      107.576       18.041        0.028      338.228       10.737      866.898
11/11/2013  19:16:00     -120.091       27.205      -24.406       26.125       51.130       22.727      682.522     2614.317      516.531        0.978        0.191      123.134       21.866        0.032      338.251       10.777      866.925
11/11/2013  19:17:00     -122.520       23.729      -21.380       48.127       32.759       22.253     2316.202     1073.178      495.177        0.996        0.194      124.796       20.237        0.026      338.197       10.685      866.939
11/11/2013  19:18:00     -127.780      -22.438       -8.895       38.846       41.937       22.674     1509.046     1758.724      514.092        1.035        0.189      129.735       18.580        0.021      338.115       10.547      866.949
11/11/2013  19:19:00     -115.185       -3.112       -6.516       52.986       32.736       22.757     2807.547     1071.654      517.897        0.886        0.220      115.227       24.110        0.044      338.043       10.427      866.971
11/11/2013  19:20:00     -126.315      -20.279       -1.509       70.695       45.970       30.886     4997.720     2113.276      953.919        1.222        0.403      127.933       34.136        0.071      338.091       10.507      866.985
11/11/2013  19:21:00     -140.577      -15.579      -10.736       43.056       45.830       27.870     1853.781     2100.414      776.720        1.242        0.237      141.437       22.147        0.025      338.093       10.510      866.984
11/11/2013  19:22:00     -118.382      -52.447       -7.079       37.503       44.446       26.193     1406.499     1975.439      686.087        1.044        0.203      129.480       22.490        0.030      338.022       10.391      866.999
11/11/2013  19:23:00     -192.719        6.786      -18.701       27.779       27.035       24.173      771.697      730.907      584.331        1.981        0.104      192.839       18.348        0.009      338.013       10.376      867.004
11/11/2013  19:24:00     -177.811       -7.169      -21.504       28.626       26.614       22.490      819.470      708.307      505.783        1.708        0.102      177.955       14.188        0.006      338.010       10.371      867.012
11/11/2013  19:25:00     -176.789       -1.379      -22.248       25.141       26.544       20.054      632.076      704.599      402.157        1.674        0.087      176.794       11.416        0.004      337.996       10.347      867.027
11/11/2013  19:26:00     -176.911        6.055      -15.922       45.932       31.434       24.756     2109.790      988.075      612.881        1.765        0.186      177.015       24.067        0.018      338.046       10.430      867.034
11/11/2013  19:27:00     -185.661        4.014      -19.443       29.413       30.473       21.183      865.128      928.620      448.708        1.855        0.112      185.704       14.923        0.006      338.078       10.485      867.028
11/11/2013  19:28:00     -169.192        6.201      -11.764       34.514       31.300       20.041     1191.207      979.687      401.634        1.569        0.129      169.306       11.273        0.004      338.025       10.396      867.032
11/11/2013  19:29:00     -168.712        1.344       -8.212       49.571       28.927       27.428     2457.323      836.753      752.268        1.629        0.202      168.717       27.901        0.027      338.013       10.375      867.029
11/11/2013  19:30:00     -170.390       -2.804      -11.355       40.801       31.301       29.708     1664.712      979.746      882.544        1.635        0.176      170.413       28.347        0.028      337.936       10.247      867.042
11/11/2013  19:31:00     -112.323      -21.620       -2.735       42.979       28.472       21.959     1847.170      810.674      482.218        0.812        0.157      114.385       22.736        0.040      337.875       10.145      867.045
11/11/2013  19:32:00     -135.186      -40.185       -8.199       22.990       25.149       13.696      528.521      632.455      187.580        1.065        0.067      141.032        9.856        0.005      337.920       10.220      867.039
11/11/2013  19:33:00      -89.327      -29.516       -3.862       53.865       35.213       22.954     2901.421     1239.927      526.870        0.677        0.233       94.077       27.429        0.085      337.887       10.164      867.057
11/11/2013  19:34:00     -112.828      -29.992      -10.327       28.067       35.644       18.194      787.750     1270.465      331.016        0.806        0.119      116.746       14.000        0.014      337.811       10.038      867.045
11/11/2013  19:35:00     -105.205      -17.430      -10.635       41.821       41.428       20.409     1749.025     1716.258      416.520        0.768        0.194      106.639       16.949        0.025      337.741        9.921      867.028
11/11/2013  19:36:00     -114.885      -56.875       -7.228       42.944       26.945       16.714     1844.165      726.044      279.345        0.967        0.142      128.193       14.512        0.013      337.761        9.953      867.042
11/11/2013  19:37:00      -83.103      -39.329        1.768       48.710       35.974       20.349     2372.647     1294.142      414.091        0.627        0.204       91.939       20.825        0.051      337.782        9.989      867.050
11/11/2013  19:38:00      -67.122      -41.072       -3.794       19.614       26.050       16.000      384.711      678.606      255.999        0.376        0.066       78.691       13.452        0.029      337.816       10.046      867.062
11/11/2013  19:39:00      -86.976      -22.816      -11.951       25.667       23.603       18.749      658.797      557.079      351.540        0.490        0.078       89.919       14.046        0.024      337.741        9.920      867.085
11/11/2013  19:40:00     -138.134      -44.309      -20.110       40.837       20.922       13.867     1667.696      437.747      192.280        1.187        0.115      145.067       11.096        0.006      337.792       10.004      867.091
11/11/2013  19:41:00     -154.598      -37.969      -15.511       22.542       23.138       14.672      508.121      535.382      215.261        1.342        0.063      159.193       11.943        0.006      337.772        9.973      867.084
11/11/2013  19:42:00     -119.945      -38.218      -11.990       25.386       20.281       10.219      644.471      411.323      104.419        0.858        0.058      125.886        7.266        0.003      337.807       10.030      867.089
11/11/2013  19:43:00     -125.860      -11.448       -6.680       28.647       21.215       20.855      820.645      450.072      434.945        0.886        0.085      126.379       19.181        0.023      337.771        9.970      867.086
11/11/2013  19:44:00     -140.582      -27.895      -14.628       21.313       17.232       11.952      454.227      296.938      142.845        1.082        0.045      143.323       10.553        0.005      337.868       10.134      867.075
11/11/2013  19:45:00     -105.847      -50.168       -1.695       46.747       29.311       19.022     2185.299      859.150      361.856        0.856        0.170      117.134       22.309        0.036      337.835       10.078      867.073
11/11/2013  19:46:00     -122.833      -48.014      -11.520       29.790       26.071       15.121      887.473      679.683      228.630        0.966        0.090      131.883       14.940        0.013      337.728        9.900      867.070
11/11/2013  19:47:00     -115.596      -39.127      -13.450       22.172       30.950       17.098      491.614      957.883      292.355        0.841        0.087      122.038       15.977        0.017      337.689        9.833      867.064
11/11/2013  19:48:00      -79.505      -37.510      -18.630       33.079       25.212       20.179     1094.236      635.659      407.207        0.511        0.107       87.909       20.101        0.052      337.683        9.822      867.064
11/11/2013  19:49:00     -105.443      -42.870      -16.886       26.818       35.260       15.516      719.195     1243.245      240.752        0.772        0.110      113.825       10.883        0.009      337.631        9.735      867.074
11/11/2013  19:50:00     -121.088      -24.591      -20.056       24.124       22.663       21.200      581.989      513.627      449.437        0.861        0.077      123.560       17.379        0.020      337.584        9.658      867.065
11/11/2013  19:51:00     -115.727      -27.762      -11.456       25.775       25.662       20.781      664.370      658.533      431.868        0.802        0.088      119.010       15.314        0.017      337.574        9.639      867.044
11/11/2013  19:52:00     -144.017      -15.224      -16.411       26.567       18.486       13.174      705.829      341.740      173.548        1.123        0.061      144.819       10.014        0.005      337.621        9.720      867.040
11/11/2013  19:53:00     -105.291      -23.561      -11.046       28.175       28.074       16.627      793.846      788.152      276.456        0.681        0.093      107.895       13.521        0.016      337.641        9.753      867.046
11/11/2013  19:54:00      -76.473       -8.369       -9.063       20.684       24.304       18.028      427.837      590.695      325.009        0.367        0.067       76.930       11.521        0.022      337.763        9.957      867.034
11/11/2013  19:55:00      -68.879      -17.315       -9.611       27.116       18.725       15.336      735.276      350.611      235.179        0.323        0.066       71.022       12.022        0.029      337.831       10.071      867.028
11/11/2013  19:56:00      -13.070      -43.614       -5.823       27.490       15.364       10.790      755.691      236.039      116.420        0.161        0.055       45.530        9.516        0.044      337.966       10.297      867.021
11/11/2013  19:57:00      -36.870      -26.751        0.366       21.046       13.534       11.626      442.930      183.167      135.161        0.142        0.038       45.552        6.750        0.022      337.922       10.223      867.015
11/11/2013  19:58:00      -43.656      -31.321       -6.976       10.721       15.455        6.226      114.945      238.862       38.766        0.166        0.020       53.729        3.775        0.005      338.011       10.374      867.011
11/11/2013  19:59:00      -66.159      -29.865      -13.155       14.380       15.275       12.160      206.771      233.320      147.865        0.301        0.029       72.587        6.078        0.007      337.915       10.210      866.996
11/11/2013  20:00:00      -68.220      -19.020      -19.046       18.420       10.360       10.056      339.282      107.333      101.131        0.296        0.027       70.821       10.317        0.021      337.884       10.159      866.995
11/11/2013  20:01:00      -66.505      -25.925      -13.612       12.516       12.151        8.117      156.657      147.647       65.882        0.283        0.019       71.379        4.911        0.005      337.880       10.153      867.011
11/11/2013  20:02:00      -66.751      -38.409       -6.946       19.089       15.040       13.881      364.391      226.190      192.694        0.338        0.039       77.013        6.018        0.006      337.870       10.136      867.023
11/11/2013  20:03:00      -98.523      -28.853      -15.845       12.903       11.628       10.433      166.475      135.204      108.843        0.560        0.021      102.661        5.039        0.002      337.834       10.077      867.021
11/11/2013  20:04:00      -86.756      -14.044      -12.940       19.131       14.852       13.822      365.985      220.587      191.041        0.433        0.039       87.885       10.804        0.015      337.863       10.124      867.020
11/11/2013  20:05:00      -94.075      -24.379      -17.873       11.316        8.324        9.838      128.051       69.287       96.778        0.503        0.015       97.182        7.661        0.006      337.936       10.245      867.021
11/11/2013  20:06:00      -75.029      -16.478      -12.569       12.422       11.046       10.395      154.299      122.024      108.051        0.322        0.019       76.818        6.910        0.008      337.909       10.200      867.019
11/11/2013  20:07:00      -70.246      -25.858      -14.826        9.217       11.355        8.985       84.950      128.936       80.722        0.306        0.015       74.855        7.256        0.009      337.935       10.245      867.023
11/11/2013  20:08:00      -70.152      -21.466       -6.586       10.228       15.316       10.401      104.618      234.576      108.179        0.294        0.022       73.363        5.349        0.005      337.934       10.244      867.032
11/11/2013  20:09:00      -83.733      -24.747      -11.139       12.602       14.760        9.541      158.806      217.845       91.027        0.411        0.023       87.314        4.083        0.002      337.963       10.291      867.049
11/11/2013  20:10:00      -87.953      -21.041      -15.016       14.539       14.185       10.093      211.378      201.204      101.867        0.446        0.026       90.435        5.447        0.004      338.066       10.463      867.072
11/11/2013  20:11:00      -91.504      -14.320      -13.585       11.343       10.966       11.070      128.662      120.259      122.537        0.457        0.019       92.618        7.492        0.007      338.057       10.450      867.081
11/11/2013  20:12:00      -86.451      -18.341      -12.176       13.405       11.513       11.059      179.693      132.542      122.312        0.420        0.022       88.375        8.868        0.010      338.073       10.477      867.079
11/11/2013  20:13:00      -82.309      -27.358      -14.554        8.007        8.966        7.759       64.109       80.385       60.198        0.397        0.010       86.737        3.208        0.001      338.075       10.481      867.087
11/11/2013  20:14:00      -95.431      -26.361      -16.462       12.098        9.426        7.579      146.373       88.858       57.441        0.518        0.015       99.005        6.670        0.005      338.066       10.466      867.097
11/11/2013  20:15:00      -94.775      -24.468      -16.389        9.335        9.496        7.647       87.136       90.165       58.483        0.504        0.012       97.882        2.458        0.001      338.051       10.440      867.098
11/11/2013  20:16:00      -72.724      -24.982      -12.104        7.474       10.571        7.700       55.864      111.743       59.295        0.314        0.011       76.895        3.474        0.002      338.058       10.452      867.099
11/11/2013  20:17:00      -63.754      -14.171      -11.077        7.642        7.068        5.598       58.400       49.950       31.341        0.226        0.007       65.310        3.729        0.003      338.095       10.513      867.084
11/11/2013  20:18:00      -62.614       -7.504      -10.866        5.363        6.158        5.750       28.764       37.926       33.065        0.210        0.005       63.062        2.737        0.002      338.036       10.415      867.069
11/11/2013  20:19:00      -62.884       -7.886       -8.915        7.477        5.907        6.710       55.906       34.893       45.021        0.212        0.007       63.377        4.518        0.005      338.109       10.536      867.072
11/11/2013  20:20:00      -65.461      -14.145      -10.460        9.750        9.954        7.617       95.062       99.073       58.023        0.242        0.013       66.972        6.472        0.009      338.068       10.470      867.074
11/11/2013  20:21:00      -92.737      -13.282      -12.245       12.367        9.206        8.900      152.936       84.748       79.203        0.462        0.016       93.683        3.975        0.002      338.062       10.458      867.076
11/11/2013  20:22:00     -112.281      -21.884      -13.554       15.187       14.813       11.447      230.646      219.433      131.035        0.693        0.029      114.393        7.659        0.004      338.071       10.473      867.092
11/11/2013  20:23:00     -130.620      -30.142      -16.847       18.376       14.794       11.288      337.664      218.867      127.429        0.947        0.034      134.053        8.106        0.004      338.007       10.366      867.098
11/11/2013  20:24:00     -112.878      -33.197      -10.310       16.503       19.068       20.568      272.361      363.587      423.038        0.750        0.053      117.658       13.756        0.014      337.909       10.201      867.102
11/11/2013  20:25:00     -119.346      -19.281      -14.547       14.344       12.298        9.902      205.757      151.247       98.049        0.764        0.023      120.893        7.781        0.004      337.932       10.239      867.111
11/11/2013  20:26:00      -95.801      -31.003      -14.901       13.797       10.277        7.896      190.368      105.615       62.354        0.536        0.018      100.692        5.497        0.003      338.098       10.517      867.134
11/11/2013  20:27:00      -70.516      -15.627       -8.626        9.631        8.303        7.901       92.752       68.943       62.418        0.276        0.011       72.227        6.130        0.007      338.194       10.682      867.135
11/11/2013  20:28:00      -55.986      -14.398      -11.523        5.568        9.466        5.113       31.002       89.605       26.140        0.181        0.007       57.808        4.234        0.005      338.313       10.877      867.140
11/11/2013  20:29:00      -55.546       -0.421      -10.504        4.615        8.106        4.233       21.294       65.704       17.918        0.165        0.005       55.547        2.030        0.001      338.408       11.039      867.141
11/11/2013  20:30:00      -50.594        2.793       -7.633        6.281        4.842        5.389       39.457       23.441       29.044        0.136        0.005       50.671        3.546        0.005      338.390       11.010      867.143
11/11/2013  20:31:00      -29.863       -2.815       -3.397       11.465        6.102        6.004      131.451       37.239       36.043        0.056        0.010       29.996        5.571        0.034      338.547       11.273      867.158
11/11/2013  20:32:00        3.288        1.108        1.127        4.522        2.620        3.310       20.450        6.863       10.959        0.003        0.002        3.470        2.129        0.376      338.652       11.448      867.186
11/11/2013  20:33:00       13.603       -1.075       -0.924        6.264        4.713        5.127       39.234       22.212       26.289        0.014        0.004       13.646        3.500        0.066      338.429       11.076      867.200
11/11/2013  20:34:00        6.295        0.646       -0.428        5.233        2.938        2.014       27.386        8.635        4.058        0.004        0.002        6.328        1.248        0.039      338.532       11.246      867.202
11/11/2013  20:35:00       -2.079        0.079       -0.555        4.874        3.104        2.251       23.752        9.637        5.068        0.002        0.002        2.081        2.293        1.214      338.553       11.283      867.210
11/11/2013  20:36:00      -36.766      -14.947       -4.703       13.850        8.250        6.659      191.829       68.067       44.346        0.095        0.015       39.688        6.887        0.030      338.359       10.955      867.224
11/11/2013  20:37:00      -68.237      -26.080      -11.448       11.123        7.170        4.986      123.719       51.411       24.858        0.283        0.010       73.051        1.422        0.000      338.172       10.642      867.222
11/11/2013  20:38:00      -91.298      -26.826       -4.855       10.674       12.593        6.461      113.925      158.583       41.748        0.470        0.016       95.157        3.586        0.001      338.058       10.450      867.211
11/11/2013  20:39:00     -105.215      -19.422      -10.863       12.213       14.895        9.283      149.154      221.850       86.172        0.601        0.023      106.993        7.493        0.005      338.043       10.426      867.223
11/11/2013  20:40:00     -108.492      -29.822      -16.280       12.037       17.548        8.157      144.881      307.945       66.535        0.672        0.026      112.516        2.441        0.000      338.055       10.448      867.234
11/11/2013  20:41:00     -103.845      -36.960      -14.541       12.089       13.286       10.394      146.155      176.513      108.034        0.640        0.022      110.226        7.732        0.005      338.069       10.470      867.251
11/11/2013  20:42:00      -93.940      -34.516       -8.182       11.098       18.101       10.685      123.171      327.642      114.180        0.532        0.028      100.081        7.278        0.005      338.031       10.406      867.255
11/11/2013  20:43:00     -107.357      -41.427      -16.698        9.518       10.902        8.557       90.586      118.856       73.217        0.690        0.014      115.073        2.911        0.001      338.102       10.526      867.253
11/11/2013  20:44:00     -116.352      -43.984      -15.662        9.604       13.379       11.704       92.237      179.002      136.992        0.806        0.020      124.388        5.371        0.002      338.095       10.514      867.258
11/11/2013  20:45:00     -112.420      -29.255      -11.007       20.949       16.020       12.295      438.861      256.626      151.163        0.723        0.042      116.164        9.741        0.007      338.110       10.538      867.277
11/11/2013  20:46:00     -104.611      -48.249       -8.806       14.248       12.788       12.008      203.014      163.541      144.197        0.693        0.026      115.202        3.978        0.001      338.109       10.538      867.308
11/11/2013  20:47:00      -65.757      -37.333       -4.525       25.758       24.868       17.212      663.456      618.394      296.256        0.366        0.079       75.616       15.706        0.043      338.024       10.395      867.324
11/11/2013  20:48:00      -81.706      -54.901       -8.043       30.580       31.412       17.187      935.139      986.723      295.386        0.599        0.111       98.437       13.908        0.020      338.141       10.591      867.315
11/11/2013  20:49:00      -76.313      -34.560       -1.714       17.147       18.970        9.339      294.019      359.858       87.214        0.388        0.037       83.773       10.570        0.016      338.170       10.639      867.282
11/11/2013  20:50:00      -48.846      -25.770       -1.663       12.675       10.262        6.789      160.644      105.317       46.097        0.168        0.016       55.227        3.929        0.005      338.165       10.630      867.252
11/11/2013  20:51:00      -39.803      -15.053       -7.922       11.757        8.939        4.820      138.235       79.907       23.236        0.106        0.012       42.554        5.391        0.016      338.211       10.710      867.215
11/11/2013  20:52:00      -47.191       -4.776       -9.126       15.367        6.056       10.089      236.150       36.672      101.789        0.135        0.019       47.432       10.578        0.050      338.265       10.799      867.197
11/11/2013  20:53:00       -9.758       -3.741       -1.634        6.066        5.484        5.333       36.802       30.070       28.440        0.010        0.005       10.451        2.805        0.072      338.253       10.777      867.181
11/11/2013  20:54:00      -54.112      -13.159      -12.449       11.055        9.792        8.551      122.203       95.876       73.113        0.177        0.015       55.689        6.693        0.014      338.250       10.773      867.181
11/11/2013  20:55:00      -58.511      -28.299       -9.349        8.770        6.061        6.045       76.916       36.739       36.547        0.223        0.008       64.995        2.826        0.002      338.149       10.605      867.189
11/11/2013  20:56:00      -58.073      -38.092       -1.537       17.713       13.877        9.880      313.744      192.572       97.615        0.271        0.030       69.451        4.893        0.005      338.152       10.609      867.199
11/11/2013  20:57:00      -65.248      -38.221       -2.831       21.910       17.617       10.724      480.062      310.372      115.009        0.332        0.045       75.619        6.371        0.007      338.120       10.554      867.204
11/11/2013  20:58:00      -85.057      -45.851        1.684       24.535       21.170       17.796      601.966      448.164      316.692        0.535        0.068       96.628       13.033        0.018      338.099       10.520      867.200
11/11/2013  20:59:00      -73.040      -56.593        1.350       33.378       29.105       20.197     1114.063      847.083      407.935        0.545        0.118       92.399       17.791        0.037      338.078       10.485      867.210
11/11/2013  21:00:00      -92.754      -50.668        7.737       49.632       33.435       24.765     2463.339     1117.877      613.330        0.771        0.210      105.691       22.869        0.047      338.086       10.499      867.240
11/11/2013  21:01:00      -88.237      -72.593        3.298       49.669       31.974       25.639     2467.014     1022.310      657.367        0.861        0.207      114.261       20.647        0.033      338.136       10.583      867.256
11/11/2013  21:02:00      -78.446      -44.834        5.787       54.939       32.624       22.431     3018.323     1064.308      503.151        0.639        0.229       90.354       25.462        0.079      338.116       10.549      867.284
11/11/2013  21:03:00     -118.155      -59.478       -1.380       44.679       28.438       20.808     1996.235      808.729      432.986        1.037        0.162      132.281       22.163        0.028      338.190       10.673      867.298
11/11/2013  21:04:00     -138.784      -57.873       -3.871       22.884       20.441       17.449      523.681      417.840      304.459        1.194        0.062      150.367        8.072        0.003      338.247       10.768      867.308
11/11/2013  21:05:00     -121.558      -36.543       -5.710       24.809       24.413       15.442      615.505      595.977      238.469        0.880        0.072      126.932       13.928        0.012      338.211       10.709      867.320
11/11/2013  21:06:00     -116.425      -42.949       -0.679       23.918       25.270       16.976      572.089      638.561      288.180        0.845        0.075      124.095       14.590        0.014      338.175       10.646      867.325
11/11/2013  21:07:00      -76.529      -22.060        3.275       47.261       27.802       19.405     2233.634      772.930      376.557        0.487        0.169       79.646       24.573        0.095      338.163       10.627      867.327
11/11/2013  21:08:00     -123.450      -24.067       -7.103       13.760       13.821       10.357      189.341      191.007      107.264        0.818        0.024      125.774        6.617        0.003      338.185       10.666      867.328
11/11/2013  21:09:00     -126.596      -44.672       -4.486       21.206       19.175       12.212      449.697      367.688      149.131        0.950        0.048      134.246        7.263        0.003      338.205       10.698      867.333
11/11/2013  21:10:00     -134.906      -45.645       -6.126       20.152       16.301       13.502      406.121      265.725      182.305        1.059        0.043      142.418        9.775        0.005      338.147       10.599      867.345
11/11/2013  21:11:00      -98.816      -29.732       -1.820       38.616       29.405       17.535     1491.190      864.633      307.483        0.666        0.133      103.192       22.080        0.046      338.072       10.474      867.345
11/11/2013  21:12:00     -114.459      -18.931       -5.989       26.862       27.538       15.523      721.561      758.339      240.976        0.761        0.086      116.014       13.281        0.013      337.983       10.326      867.347
11/11/2013  21:13:00     -105.642      -14.364       -5.575       30.320       20.894       15.320      919.330      436.561      234.705        0.649        0.080      106.614       15.933        0.022      337.994       10.344      867.354
11/11/2013  21:14:00     -120.394      -40.169       -4.752       27.065       16.996       18.199      732.535      288.877      331.206        0.874        0.068      126.918       17.935        0.020      338.054       10.445      867.363
11/11/2013  21:15:00     -115.366      -37.013       -1.383       28.579       18.978       13.523      816.770      360.162      182.873        0.802        0.068      121.158       15.208        0.016      338.046       10.430      867.370
11/11/2013  21:16:00      -93.042      -37.320        1.744       35.094       21.229       17.218     1231.581      450.679      296.470        0.602        0.099      100.247       15.959        0.025      338.057       10.449      867.378
11/11/2013  21:17:00      -85.443      -32.765       -9.673       14.922       13.571       11.426      222.660      184.159      130.542        0.450        0.027       91.510        9.058        0.010      338.042       10.424      867.385
11/11/2013  21:18:00      -89.925      -29.867      -11.223       12.806       14.362       10.239      163.985      206.277      104.847        0.479        0.024       94.755        4.615        0.002      338.097       10.517      867.369
11/11/2013  21:19:00      -97.590       -6.600       -9.778       20.356       19.266       14.883      414.386      371.180      221.505        0.533        0.050       97.813       13.341        0.019      338.061       10.455      867.362
11/11/2013  21:20:00      -96.096      -21.547       -5.499       20.564       17.691       10.054      422.859      312.954      101.084        0.528        0.042       98.482        8.407        0.007      338.066       10.465      867.359
11/11/2013  21:21:00      -94.719      -19.784       -6.935       20.163       16.977       14.189      406.542      288.204      201.341        0.515        0.045       96.763       13.935        0.021      338.074       10.479      867.354
11/11/2013  21:22:00      -83.531      -20.678       -8.422       19.810       23.261       11.498      392.422      541.096      132.206        0.427        0.053       86.052        5.794        0.005      337.995       10.347      867.349
11/11/2013  21:23:00      -72.584       -4.394       -9.885       21.284       20.304       10.751      452.992      412.253      115.592        0.318        0.049       72.717        7.165        0.010      338.071       10.474      867.354
11/11/2013  21:24:00      -59.854      -11.365       -8.656       13.721       14.033       12.989      188.259      196.919      168.709        0.217        0.028       60.924        7.020        0.013      338.042       10.426      867.373
11/11/2013  21:25:00      -76.436       -9.869       -6.017       22.526       13.057       13.613      507.424      170.487      185.327        0.342        0.043       77.070       12.313        0.026      338.033       10.409      867.388
11/11/2013  21:26:00      -59.364      -24.294      -11.460       23.443       17.159       12.116      549.586      294.438      146.797        0.262        0.050       64.142        8.651        0.018      338.039       10.419      867.398
11/11/2013  21:27:00      -76.620      -26.060      -10.755       19.487       18.458       12.997      379.747      340.685      168.916        0.378        0.044       80.931       11.935        0.022      338.026       10.398      867.401
11/11/2013  21:28:00      -95.039      -32.496      -16.242       22.089       17.462       15.793      487.908      304.915      249.414        0.570        0.052      100.441       15.190        0.023      338.009       10.371      867.398
11/11/2013  21:29:00      -92.864      -23.346      -19.077       25.022       19.792       16.383      626.077      391.724      268.413        0.541        0.064       95.754       14.625        0.023      337.959       10.286      867.383
11/11/2013  21:30:00      -64.562      -40.143      -11.042       24.024       20.480       13.719      577.131      419.421      188.207        0.354        0.059       76.024        9.264        0.015      337.932       10.240      867.375
11/11/2013  21:31:00      -52.224      -28.712      -10.323       28.808       23.995       15.376      829.921      575.762      236.426        0.265        0.082       59.596       11.763        0.039      337.933       10.243      867.383
11/11/2013  21:32:00     -129.298      -60.878      -14.686       33.619       29.414       20.309     1130.240      865.199      412.440        1.152        0.120      142.913       17.844        0.016      337.903       10.192      867.403
11/11/2013  21:33:00     -134.974      -61.736      -15.525       25.218       32.193       21.593      635.923     1036.375      466.253        1.220        0.107      148.422       14.333        0.009      337.837       10.082      867.425
11/11/2013  21:34:00     -150.808      -27.955      -12.282       29.683       32.880       22.054      881.086     1081.109      486.368        1.306        0.122      153.377       18.823        0.015      337.782        9.989      867.435
11/11/2013  21:35:00     -117.122      -18.609       -8.091       51.781       36.420       23.530     2681.266     1326.382      553.658        0.934        0.228      118.591       23.341        0.039      337.805       10.027      867.437
11/11/2013  21:36:00      -94.022       -3.104       -0.714       51.800       37.298       27.039     2683.220     1391.144      731.109        0.683        0.240       94.074       28.741        0.093      337.862       10.122      867.441
11/11/2013  21:37:00     -144.508        4.145      -13.483       42.193       27.401       20.554     1780.281      750.826      422.471        1.202        0.148      144.567       18.985        0.017      337.943       10.259      867.436
11/11/2013  21:38:00     -117.483      -15.657       -9.243       47.938       27.587       22.901     2298.092      761.030      524.441        0.886        0.179      118.522       25.245        0.045      337.907       10.199      867.416
11/11/2013  21:39:00     -116.418       -0.154      -19.059       34.865       22.063       19.346     1215.593      486.758      374.255        0.800        0.104      116.418       14.184        0.015      337.959       10.285      867.412
11/11/2013  21:40:00      -97.681      -31.151      -12.487       22.115       27.286       13.116      489.075      744.549      172.039        0.604        0.070      102.528       11.239        0.012      337.976       10.314      867.409
11/11/2013  21:41:00      -69.533      -64.724       -3.984       26.668       22.653       20.775      711.184      513.169      431.618        0.535        0.083       94.995       18.570        0.038      337.984       10.327      867.416
11/11/2013  21:42:00     -114.716      -44.408       -9.091       18.570       19.800       11.478      344.862      392.053      131.741        0.804        0.043      123.011        7.688        0.004      337.947       10.266      867.422
11/11/2013  21:43:00     -129.017      -41.842      -11.464       14.380       16.526       10.655      206.789      273.119      113.538        0.956        0.030      135.632        9.045        0.004      337.957       10.281      867.415
11/11/2013  21:44:00     -122.030      -36.694      -10.663       16.048       14.034       10.244      257.536      196.945      104.934        0.846        0.028      127.428        7.934        0.004      337.944       10.260      867.404
11/11/2013  21:45:00     -126.573      -43.655      -12.917       12.874       16.012        9.497      165.738      256.387       90.199        0.930        0.026      133.890        3.781        0.001      337.878       10.151      867.406
11/11/2013  21:46:00     -139.336      -55.815      -23.862       18.953       19.798       12.419      359.222      391.961      154.223        1.200        0.045      150.100        6.793        0.002      337.911       10.205      867.411
11/11/2013  21:47:00      -82.281      -64.916       -2.683       34.876       31.843       28.860     1216.352     1014.004      832.923        0.703        0.153      104.806       28.026        0.072      337.896       10.180      867.426
11/11/2013  21:48:00      -74.860      -44.827       -6.473       50.407       35.029       24.094     2540.897     1227.025      580.510        0.600        0.217       87.255       23.043        0.070      337.879       10.152      867.449
11/11/2013  21:49:00     -152.703      -35.801       -4.807       21.094       22.008       18.805      444.959      484.367      353.645        1.295        0.064      156.843       12.252        0.006      337.892       10.172      867.481
11/11/2013  21:50:00     -114.137      -20.784        0.488       35.955       21.281       15.882     1292.736      452.880      252.250        0.773        0.100      116.014       15.154        0.017      337.921       10.222      867.491
11/11/2013  21:51:00      -92.600      -17.608       -3.043       32.974       22.662       13.551     1087.279      513.573      183.616        0.534        0.089       94.259       11.025        0.014      337.847       10.098      867.489
11/11/2013  21:52:00      -55.033      -21.027       -3.134       21.221       19.329       10.854      450.337      373.621      117.801        0.221        0.047       58.914        6.733        0.013      337.837       10.082      867.460
11/11/2013  21:53:00      -39.146       -3.778       -4.186       18.233        9.924        8.387      332.446       98.489       70.349        0.103        0.025       39.328        6.995        0.032      337.818       10.049      867.437
11/11/2013  21:54:00      -72.466      -19.332       -9.874       16.486       15.301        7.975      271.799      234.116       63.594        0.315        0.028       75.000        5.640        0.006      337.889       10.169      867.431
11/11/2013  21:55:00     -125.414      -41.251      -19.344       14.435       15.015       10.201      208.359      225.460      104.056        0.917        0.027      132.024        5.660        0.002      337.958       10.284      867.440
11/11/2013  21:56:00     -155.478      -60.687      -12.936       21.459       18.034       13.980      460.491      325.214      195.430        1.450        0.049      166.903       11.227        0.005      337.886       10.163      867.463
11/11/2013  21:57:00     -157.741      -52.021      -12.466       24.686       20.438       10.655      609.421      417.699      113.532        1.444        0.057      166.098        6.975        0.002      337.810       10.037      867.489
11/11/2013  21:58:00     -134.061      -60.299        5.147       52.579       32.855       22.448     2764.562     1079.475      503.929        1.299        0.217      146.997       24.283        0.027      337.879       10.152      867.516
11/11/2013  21:59:00     -126.752      -56.490        1.540       40.620       33.432       20.700     1649.985     1117.714      428.498        1.123        0.160      138.770       17.439        0.016      337.866       10.130      867.540
11/11/2013  22:00:00     -120.926      -18.153       -8.429       24.083       20.867       12.619      579.969      435.414      159.234        0.810        0.059      122.281        5.230        0.002      337.868       10.131      867.545
11/11/2013  22:01:00     -114.821      -14.869      -11.272       27.674       22.280       16.182      765.854      496.392      261.862        0.753        0.076      115.780       11.960        0.011      337.848       10.099      867.518
11/11/2013  22:02:00      -70.100      -30.586        2.856       29.064       19.136       12.760      844.690      366.186      162.817        0.362        0.069       76.482       12.895        0.028      337.724        9.892      867.510
11/11/2013  22:03:00      -95.339      -50.227       -5.276       19.800       19.342       12.395      392.050      374.107      153.626        0.628        0.046      107.761       10.603        0.010      337.854       10.110      867.498
11/11/2013  22:04:00      -43.728      -41.830        4.557       35.674       19.122       14.922     1272.636      365.637      222.679        0.277        0.093       60.513       16.892        0.078      337.884       10.162      867.469
11/11/2013  22:05:00      -20.782      -15.149       10.458       31.177       18.013       16.496      971.992      324.470      272.134        0.117        0.078       25.718       17.137        0.444      337.839       10.085      867.466
11/11/2013  22:06:00      -41.418      -17.120        1.288       19.244       21.377       13.592      370.331      456.961      184.753        0.151        0.051       44.817        8.599        0.037      337.804       10.026      867.491
11/11/2013  22:07:00      -73.582      -44.354       -9.924       29.156       15.070       11.497      850.063      227.099      132.190        0.434        0.060       85.917       12.307        0.021      337.853       10.109      867.519
11/11/2013  22:08:00     -107.007      -58.447      -13.494       19.313       14.864       10.467      372.982      220.948      109.552        0.788        0.035      121.929        7.327        0.004      337.827       10.063      867.521
11/11/2013  22:09:00     -107.296      -39.816      -11.051       34.913       22.967       17.363     1218.903      527.499      301.479        0.763        0.102      114.446       17.003        0.022      337.808       10.032      867.525
11/11/2013  22:10:00      -70.792      -51.161       -3.791       28.571       16.396       16.123      816.277      268.826      259.953        0.449        0.067       87.344       11.840        0.018      337.777        9.981      867.538
11/11/2013  22:11:00     -100.292      -59.374       -3.585       27.518       21.224       16.383      757.249      450.441      268.394        0.754        0.074      116.550       13.067        0.013      337.781        9.988      867.551
11/11/2013  22:12:00     -108.113      -40.966      -11.389       13.990       15.021       10.215      195.723      225.634      104.345        0.701        0.026      115.614        4.164        0.001      337.826       10.062      867.560
11/11/2013  22:13:00      -85.968      -38.659       -7.659       16.250       14.907        9.743      264.059      222.223       94.921        0.476        0.029       94.260        9.599        0.010      337.854       10.108      867.559
11/11/2013  22:14:00      -81.194      -34.913      -11.922       13.572       15.816       10.106      184.194      250.154      102.121        0.424        0.027       88.382        6.394        0.005      337.927       10.231      867.576
11/11/2013  22:15:00     -102.198      -50.298      -13.915       11.302       13.694        8.414      127.735      187.513       70.795        0.678        0.019      113.905        7.811        0.005      337.877       10.148      867.621
11/11/2013  22:16:00     -128.874      -52.479      -12.581       11.896        7.904        9.144      141.524       62.473       83.617        0.990        0.014      139.149        3.571        0.001      337.832       10.072      867.637
11/11/2013  22:17:00     -122.315      -56.719      -10.467       18.430       14.451       17.368      339.681      208.832      301.633        0.957        0.043      134.826       10.491        0.006      337.782        9.989      867.656
11/11/2013  22:18:00     -116.071      -62.022      -12.716       31.366       20.201       13.884      983.841      408.088      192.768        0.953        0.079      131.603        4.739        0.001      337.771        9.970      867.690
11/11/2013  22:19:00      -77.839      -60.436        0.320       39.836       24.065       21.869     1586.901      579.105      478.254        0.618        0.132       98.546       16.822        0.029      337.777        9.980      867.704
11/11/2013  22:20:00     -112.359      -79.739       -5.070       41.557       28.892       26.523     1726.956      834.725      703.459        1.114        0.163      137.778       24.312        0.031      337.803       10.024      867.700
11/11/2013  22:21:00      -86.645      -53.566        1.917       40.841       29.884       21.207     1667.969      893.038      449.752        0.670        0.151      101.865       16.681        0.027      337.741        9.919      867.703
11/11/2013  22:22:00      -90.345      -48.442       -1.400       29.576       21.862       12.885      874.752      477.960      166.036        0.601        0.076      102.513       12.411        0.015      337.698        9.847      867.713
11/11/2013  22:23:00     -105.158      -55.601       -2.862       26.071       22.594       15.342      679.685      510.490      235.372        0.779        0.071      118.952       12.356        0.011      337.724        9.892      867.726
11/11/2013  22:24:00      -66.825      -40.617        6.024       30.994       27.928       17.363      960.598      779.986      301.469        0.410        0.102       78.201       19.574        0.063      337.689        9.831      867.723
11/11/2013  22:25:00     -106.136      -41.731      -11.687       14.373       14.522       13.380      206.579      210.880      179.017        0.687        0.030      114.045        9.220        0.007      337.762        9.956      867.703
11/11/2013  22:26:00      -84.249      -40.464       -0.370       20.561       17.251        9.572      422.762      297.610       91.617        0.477        0.041       93.462        8.668        0.009      337.719        9.883      867.709
11/11/2013  22:27:00      -83.258      -36.091       -3.063       23.947       18.655       18.517      573.465      348.001      342.876        0.475        0.063       90.744       14.907        0.027      337.766        9.961      867.726
11/11/2013  22:28:00      -85.712      -56.407       -6.134       16.050       15.420       12.443      257.600      237.763      154.834        0.561        0.033      102.607        6.879        0.004      337.817       10.047      867.728
11/11/2013  22:29:00      -96.613      -73.668       -3.807       16.447       18.006       13.712      270.508      324.232      188.027        0.778        0.039      121.495       10.572        0.008      337.886       10.163      867.738
11/11/2013  22:30:00      -92.063      -63.278       -4.106       28.711       19.250       17.981      824.298      370.549      323.300        0.701        0.076      111.712       17.542        0.025      337.911       10.206      867.746
11/11/2013  22:31:00      -92.166      -56.763        1.248       31.249       22.846       21.376      976.522      521.954      456.931        0.684        0.098      108.244       18.201        0.028      337.848       10.098      867.755
11/11/2013  22:32:00     -110.783      -70.649        1.515       47.519       36.374       24.459     2258.017     1323.048      598.266        1.072        0.209      131.393       26.226        0.040      337.892       10.172      867.759
11/11/2013  22:33:00     -106.242      -69.411       -1.161       25.528       24.014       18.902      651.690      576.689      357.288        0.885        0.079      126.906       10.834        0.007      337.913       10.209      867.768
11/11/2013  22:34:00     -124.452      -35.151       -1.803       36.314       23.033       18.863     1318.731      530.531      355.829        0.947        0.110      129.321       20.687        0.026      337.842       10.089      867.768
11/11/2013  22:35:00     -120.667      -55.939       -2.949       22.636       19.197       11.953      512.395      368.506      142.872        0.936        0.051      133.003        7.653        0.003      337.782        9.989      867.762
11/11/2013  22:36:00     -146.376      -56.682       -3.548       33.734       22.516       19.326     1138.011      506.967      373.510        1.333        0.101      156.967       16.585        0.011      337.707        9.863      867.754
11/11/2013  22:37:00     -142.386      -58.955        0.964       45.049       42.658       23.197     2029.399     1819.663      538.116        1.407        0.219      154.109       24.534        0.025      337.701        9.854      867.751
11/11/2013  22:38:00     -131.234      -72.530       -2.709       28.396       26.585       16.473      806.336      706.737      271.353        1.214        0.089      149.943       13.750        0.008      337.702        9.854      867.762
11/11/2013  22:39:00     -123.798      -57.802      -10.203       31.721       21.369       15.646     1006.238      456.626      244.809        1.024        0.085      136.627       10.068        0.005      337.691        9.836      867.777
11/11/2013  22:40:00     -119.544      -58.399      -10.616       23.940       20.207       13.876      573.120      408.329      192.532        0.949        0.059      133.046        8.700        0.004      337.650        9.768      867.782
11/11/2013  22:41:00      -98.484      -57.126       -2.141       33.913       23.145       18.266     1150.097      535.672      333.650        0.749        0.101      113.853       12.754        0.013      337.621        9.720      867.781
11/11/2013  22:42:00     -102.189      -75.885        2.321       45.205       24.478       21.424     2043.487      599.175      458.988        0.965        0.155      127.283       23.274        0.033      337.691        9.837      867.782
11/11/2013  22:43:00     -107.053      -68.265       -1.281       39.476       31.451       25.764     1558.317      989.193      663.807        0.967        0.161      126.966       19.456        0.023      337.721        9.887      867.777
11/11/2013  22:44:00     -121.734      -50.574       -8.731       25.402       21.363       12.211      645.240      456.368      149.109        0.935        0.063      131.822       10.739        0.007      337.757        9.946      867.770
11/11/2013  22:45:00      -95.220      -44.772       -3.274       20.963       21.567       15.251      439.455      465.124      232.599        0.611        0.057      105.221       13.027        0.015      337.772        9.971      867.779
11/11/2013  22:46:00      -78.800      -44.893       -5.524       21.459       22.045       12.217      460.486      485.982      149.257        0.468        0.055       90.691       12.204        0.018      337.881       10.154      867.787
11/11/2013  22:47:00      -64.451      -34.102       -0.719       18.195       18.728       16.795      331.048      350.739      282.064        0.314        0.048       72.917       13.115        0.032      337.845       10.094      867.788
11/11/2013  22:48:00      -83.962      -17.778      -10.040       19.481       15.725       13.415      379.521      247.267      179.969        0.414        0.040       85.823        9.807        0.013      337.832       10.071      867.801
11/11/2013  22:49:00     -104.776      -17.107      -17.393       29.312       39.522       13.291      859.185     1561.950      176.651        0.708        0.130      106.163        9.032        0.007      337.853       10.106      867.810
11/11/2013  22:50:00     -103.358      -49.214       -8.192       20.071       15.422       13.156      402.855      237.852      173.089        0.699        0.041      114.477        6.696        0.003      337.761        9.954      867.825
11/11/2013  22:51:00     -102.893      -47.248        0.362       24.924       23.454       16.797      621.186      550.096      282.155        0.714        0.073      113.223       15.968        0.020      337.706        9.861      867.841
11/11/2013  22:52:00     -109.293      -36.866      -10.833       22.092       18.408        9.364      488.072      338.856       87.687        0.717        0.046      115.344        8.715        0.006      337.730        9.901      867.837
11/11/2013  22:53:00      -28.354      -21.275       12.204       30.737       26.805       18.186      944.787      718.508      330.714        0.170        0.100       35.448       17.719        0.250      337.720        9.884      867.834
11/11/2013  22:54:00      -52.152       -2.568        3.727       38.352       22.870       14.876     1470.858      523.017      221.288        0.248        0.111       52.216       18.412        0.124      337.704        9.858      867.831
11/11/2013  22:55:00      -40.047       -7.840        1.226       27.636       15.455       11.420      763.755      238.843      130.415        0.140        0.057       40.807       11.578        0.080      337.694        9.840      867.841
11/11/2013  22:56:00      -45.618        3.851       -2.362       14.083       12.189        8.679      198.345      148.568       75.328        0.126        0.021       45.780        6.361        0.019      337.791       10.003      867.862
11/11/2013  22:57:00      -29.451        5.419       -2.489       14.392       14.838       10.428      207.134      220.169      108.745        0.072        0.027       29.946        7.229        0.058      337.802       10.022      867.885
11/11/2013  22:58:00      -75.853       12.329       -6.781       18.657       15.388       11.869      348.087      236.800      140.883        0.334        0.036       76.849        8.815        0.013      337.916       10.213      867.892
11/11/2013  22:59:00      -91.230       16.118       -8.438       25.160       25.510       16.783      633.032      650.769      281.668        0.511        0.078       92.643       13.242        0.020      337.881       10.155      867.881
11/11/2013  23:00:00      -76.188       11.657      -18.391       21.254       14.540       13.642      451.746      211.399      186.109        0.356        0.042       77.074        5.688        0.005      337.826       10.061      867.881
11/11/2013  23:01:00      -24.709       -9.407       -6.786       25.201       14.989       16.293      635.099      224.666      265.458        0.093        0.056       26.439       12.703        0.231      337.798       10.015      867.892
11/11/2013  23:02:00      -61.845      -28.176      -14.779       11.979       18.064        9.869      143.494      326.294       97.406        0.270        0.028       67.961        4.270        0.004      337.742        9.923      867.912
11/11/2013  23:03:00      -98.679      -35.652       -9.442       15.169       18.127       11.908      230.102      328.579      141.802        0.590        0.035      104.922        7.382        0.005      337.591        9.668      867.906
11/11/2013  23:04:00      -84.324      -43.938      -17.766       15.932       12.552       10.732      253.839      157.561      115.184        0.494        0.026       95.084        8.593        0.008      337.551        9.601      867.907
11/11/2013  23:05:00      -63.171      -40.213      -11.526       10.961       11.424        7.451      120.138      130.506       55.515        0.302        0.015       74.885        4.047        0.003      337.563        9.621      867.912
11/11/2013  23:06:00      -63.376      -18.040       -9.047        7.789        8.047        5.879       60.676       64.756       34.560        0.229        0.008       65.894        4.335        0.004      337.548        9.597      867.906
11/11/2013  23:07:00      -78.550      -29.201       -6.886        9.382       11.464        8.448       88.030      131.432       71.371        0.368        0.015       83.802        5.541        0.004      337.615        9.709      867.909
11/11/2013  23:08:00      -92.575      -29.595       -9.328       17.637       10.985        8.953      311.061      120.669       80.151        0.502        0.026       97.190        7.153        0.005      337.599        9.681      867.926
11/11/2013  23:09:00     -116.458      -45.793       -6.849       18.996       21.052       12.261      360.840      443.169      150.326        0.833        0.048      125.137       11.101        0.008      337.551        9.601      867.936
11/11/2013  23:10:00      -70.167      -45.964       -4.445       26.517       21.464       16.538      703.143      460.694      273.507        0.425        0.072       83.882        9.162        0.012      337.527        9.561      867.935
11/11/2013  23:11:00      -81.633      -29.674       -8.400       14.249       18.069        9.648      203.041      326.498       93.076        0.412        0.031       86.859        4.544        0.003      337.517        9.545      867.932
11/11/2013  23:12:00      -97.909      -32.046       -6.015       14.094       15.715       10.695      198.655      246.965      114.382        0.560        0.028      103.020        6.695        0.004      337.543        9.587      867.915
11/11/2013  23:13:00     -107.467      -36.605       -3.380       15.632       15.986        9.939      244.365      255.548       98.779        0.675        0.030      113.530        8.564        0.006      337.537        9.578      867.902
11/11/2013  23:14:00     -109.891      -33.445       -7.606       10.161       11.169        9.525      103.239      124.740       90.733        0.679        0.016      114.868        5.951        0.003      337.515        9.541      867.897
11/11/2013  23:15:00      -68.938      -15.419        2.487       36.150       30.965       17.918     1306.845      958.839      321.051        0.379        0.129       70.642       18.846        0.071      337.528        9.562      867.893
11/11/2013  23:16:00      -78.450       18.978       -8.778       35.279       25.454       17.276     1244.629      647.891      298.455        0.439        0.110       80.713       14.470        0.032      337.701        9.853      867.879
11/11/2013  23:17:00      -74.964      -10.942      -12.978       22.266       21.724       15.798      495.782      471.951      249.587        0.356        0.061       75.758       12.726        0.028      337.734        9.907      867.860
11/11/2013  23:18:00      -76.109      -33.430       -9.104       15.677       19.675       14.082      245.760      387.099      198.300        0.391        0.042       83.127        7.835        0.009      337.526        9.559      867.845
11/11/2013  23:19:00      -70.960      -25.644      -12.027       17.865       12.364       12.841      319.168      152.867      164.888        0.324        0.032       75.451        8.997        0.014      337.422        9.385      867.827
11/11/2013  23:20:00      -55.930      -37.234       -8.973       22.467       20.512       10.771      504.751      420.725      116.017        0.282        0.052       67.190        2.639        0.002      337.433        9.402      867.815
11/11/2013  23:21:00      -73.705       -5.378      -15.969       16.162        8.416        9.112      261.224       70.836       83.035        0.307        0.021       73.901        5.360        0.005      337.467        9.460      867.805
11/11/2013  23:22:00      -72.241      -18.592      -13.248       22.648       12.476       10.143      512.927      155.641      102.883        0.326        0.039       74.595        7.765        0.011      337.510        9.531      867.787
11/11/2013  23:23:00      -38.005      -27.607      -12.806       19.932       16.997       12.917      397.301      288.914      166.850        0.161        0.043       46.974       10.334        0.048      337.506        9.524      867.769
11/11/2013  23:24:00      -60.170      -16.889      -18.706       14.629       14.126        8.726      214.009      199.537       76.145        0.237        0.024       62.495        6.264        0.010      337.595        9.676      867.752
11/11/2013  23:25:00      -36.179      -13.976       -6.151       18.106        9.936        8.246      327.845       98.722       67.991        0.102        0.025       38.784       10.377        0.072      337.781        9.987      867.756
11/11/2013  23:26:00        7.677       -4.215        2.308        8.147        5.111        4.470       66.371       26.122       19.982        0.010        0.006        8.758        4.858        0.308      337.889       10.167      867.767
11/11/2013  23:27:00       28.950        4.872       -0.546        8.375        6.900        6.300       70.145       47.614       39.693        0.051        0.008       29.357        4.427        0.023      337.862       10.123      867.775
11/11/2013  23:28:00       32.714        2.490       -0.618       10.830       11.733        4.404      117.296      137.673       19.395        0.068        0.014       32.808        5.242        0.026      337.875       10.146      867.794
11/11/2013  23:29:00       19.720      -26.170       -1.156       10.386       12.458        6.668      107.874      155.205       44.464        0.069        0.015       32.768        5.856        0.032      337.915       10.212      867.831
11/11/2013  23:30:00      -16.970      -25.882       -1.055       21.676        6.965        5.287      469.835       48.510       27.952        0.075        0.027       30.949        7.433        0.058      338.067       10.467      867.853
11/11/2013  23:31:00      -55.309      -37.742      -10.429        9.007       12.042        6.103       81.125      145.013       37.247        0.243        0.013       66.959        2.059        0.001      337.892       10.172      867.884
11/11/2013  23:32:00      -65.932      -45.930      -13.773       10.006        8.359        8.339      100.114       69.867       69.535        0.344        0.012       80.353        4.693        0.003      337.646        9.760      867.929
11/11/2013  23:33:00      -98.028      -44.256      -14.274       17.822        6.869        6.005      317.611       47.185       36.056        0.609        0.020      107.555        4.042        0.001      337.599        9.683      867.972
11/11/2013  23:34:00     -132.800      -42.913      -10.480       23.541       21.771       14.260      554.182      473.956      203.352        1.041        0.062      139.561       11.584        0.007      337.574        9.639      868.000
11/11/2013  23:35:00     -103.366      -53.202       -1.769       33.194       24.036       20.201     1101.824      577.709      408.074        0.780        0.104      116.254       16.096        0.019      337.534        9.573      868.001
11/11/2013  23:36:00     -120.747      -32.379      -16.156       30.150       32.759       20.441      909.038     1073.180      417.854        0.914        0.120      125.013       18.681        0.022      337.622        9.720      867.999
11/11/2013  23:37:00     -115.087      -12.083       -8.694       25.341       16.273       17.093      642.159      264.803      292.178        0.733        0.060      115.719       14.575        0.016      337.616        9.711      868.008
11/11/2013  23:38:00     -126.540      -30.010      -11.643       15.465       16.176       14.188      239.168      261.672      201.291        0.888        0.035      130.050        7.322        0.003      337.563        9.620      868.006
11/11/2013  23:39:00      -73.839      -43.108       -1.630       50.825       26.330       20.389     2583.199      693.273      415.703        0.550        0.185       85.501       25.609        0.090      337.546        9.593      868.014
11/11/2013  23:40:00      -69.269      -42.948        3.449       30.866       19.147       19.455      952.695      366.625      378.510        0.418        0.085       81.503       14.545        0.032      337.552        9.603      868.046
11/11/2013  23:41:00      -82.278      -42.693       -4.209       28.004       20.729       16.453      784.235      429.706      270.713        0.505        0.074       92.695       11.257        0.015      337.626        9.726      868.072
11/11/2013  23:42:00      -82.802      -59.607       -9.417       27.011       21.856       19.876      729.599      477.683      395.046        0.605        0.080      102.026       13.358        0.017      337.693        9.840      868.092
11/11/2013  23:43:00      -92.515      -52.899       -3.318       37.097       24.786       16.816     1376.190      614.360      282.774        0.682        0.114      106.571       16.957        0.025      337.618        9.714      868.121
11/11/2013  23:44:00      -90.924      -51.843       -3.185       41.925       29.020       22.670     1757.703      842.168      513.921        0.704        0.156      104.666       23.508        0.050      337.628        9.731      868.151
11/11/2013  23:45:00      -73.197      -55.101       -1.190       35.052       21.846       14.809     1228.651      477.244      219.313        0.516        0.096       91.618       16.569        0.033      337.660        9.785      868.155
11/11/2013  23:46:00      -52.629      -31.731       -2.636       18.683       15.034        9.941      349.047      226.033       98.828        0.223        0.034       61.455        8.278        0.018      337.676        9.813      868.132
11/11/2013  23:47:00      -11.872      -25.271       -4.928       17.907        8.999        9.030      320.646       80.983       81.536        0.064        0.024       27.921        8.218        0.087      337.749        9.933      868.100
11/11/2013  23:48:00      -15.595      -13.738        0.714       25.036        8.900       11.663      626.797       79.214      136.025        0.064        0.042       20.783       14.711        0.501      337.764        9.957      868.071
11/11/2013  23:49:00      -31.444      -14.048       -5.897       12.111       11.222        8.179      146.679      125.938       66.900        0.078        0.017       34.440        6.494        0.036      337.808       10.034      868.048
11/11/2013  23:50:00      -19.491      -20.995        6.646       13.190       12.174       10.397      173.969      148.203      108.102        0.065        0.022       28.647        8.798        0.094      337.943       10.259      868.020
11/11/2013  23:51:00      -41.279      -23.380      -12.240       10.819       12.216        7.193      117.059      149.236       51.744        0.136        0.016       47.440        5.994        0.016      337.805       10.027      867.986
11/11/2013  23:52:00       -8.126      -25.276       -8.222       10.202       16.800        7.997      104.080      282.241       63.947        0.061        0.023       26.550        4.408        0.028      338.201       10.690      867.979
11/11/2013  23:53:00      -21.097      -42.252       -7.415       12.689       10.001       12.066      161.017      100.025      145.579        0.135        0.020       47.226        7.343        0.024      337.917       10.216      867.984
11/11/2013  23:54:00      -19.840      -25.622       -4.934       12.579       12.608        7.317      158.235      158.974       53.542        0.072        0.019       32.406        6.391        0.039      338.065       10.463      867.980
11/11/2013  23:55:00        0.991       17.536        1.513        4.865       14.361        4.575       23.671      206.235       20.932        0.028        0.013       17.564        2.484        0.020      338.396       11.020      867.961
11/11/2013  23:56:00       38.381       34.843        7.565       22.765        7.574        7.901      518.252       57.362       62.426        0.169        0.032       51.838        4.078        0.006      338.173       10.645      867.937
11/11/2013  23:57:00       78.015       26.327        9.495       19.969       15.564       15.771      398.755      242.251      248.740        0.388        0.044       82.337       10.109        0.015      337.843       10.091      867.909
11/11/2013  23:58:00       73.623       52.349       34.519       26.574       29.469       28.729      706.185      868.421      825.355        0.588        0.120       90.337       18.010        0.040      337.764        9.959      867.889
11/11/2013  23:59:00       80.486       43.997       14.278       33.936       26.067       26.159     1151.651      679.482      684.278        0.557        0.126       91.726       15.709        0.029      337.740        9.919      867.868
